| time (UTC) | temp F | wind direction | speed MPH | gust MPH | rain 1hr in | rain 24hr in | rain mn in | humidity % | barometer mb |
| 20260507113001 | 54 | 246 | 6.0 | 11.0 | 0.00 | 0.02 | 0.01 | 72 | 1011.9 |
| 20260507112901 | 54 | 284 | 6.0 | 11.0 | 0.00 | 0.02 | 0.01 | 72 | 1011.9 |
| 20260507112801 | 54 | 260 | 6.0 | 10.0 | 0.00 | 0.02 | 0.01 | 72 | 1011.9 |
| 20260507112701 | 54 | 267 | 6.0 | 10.0 | 0.00 | 0.02 | 0.01 | 72 | 1011.9 |
| 20260507112601 | 54 | 270 | 6.0 | 10.0 | 0.00 | 0.02 | 0.01 | 72 | 1011.9 |
| 20260507112525 | 54 | 263 | 6.0 | 10.0 | 0.00 | 0.02 | 0.01 | 72 | 1011.8 |
| 20260507112501 | 54 | 258 | 6.0 | 10.0 | 0.00 | 0.02 | 0.01 | 72 | 1011.8 |
| 20260507112401 | 54 | 248 | 6.0 | 10.0 | 0.00 | 0.02 | 0.01 | 72 | 1011.9 |
| 20260507112301 | 54 | 269 | 6.0 | 10.0 | 0.00 | 0.02 | 0.01 | 73 | 1011.9 |
| 20260507112200 | 54 | 262 | 6.0 | 10.0 | 0.00 | 0.02 | 0.01 | 73 | 1011.8 |
| 20260507112056 | 54 | 311 | 6.0 | 12.0 | 0.00 | 0.02 | 0.01 | 74 | 1011.8 |
| 20260507112020 | 54 | 323 | 6.0 | 12.0 | 0.00 | 0.02 | 0.01 | 74 | 1011.8 |
| 20260507111956 | 54 | 267 | 6.0 | 12.0 | 0.00 | 0.02 | 0.01 | 74 | 1011.8 |
| 20260507111856 | 54 | 284 | 6.0 | 12.0 | 0.00 | 0.02 | 0.01 | 73 | 1011.9 |
| 20260507111756 | 54 | 258 | 6.0 | 12.0 | 0.00 | 0.02 | 0.01 | 73 | 1011.9 |
| 20260507111656 | 54 | 271 | 6.0 | 12.0 | 0.00 | 0.02 | 0.01 | 73 | 1011.8 |
| 20260507111550 | 54 | 286 | 5.0 | 12.0 | 0.00 | 0.02 | 0.01 | 73 | 1011.9 |
| 20260507111514 | 54 | 281 | 5.0 | 12.0 | 0.00 | 0.02 | 0.01 | 74 | 1011.9 |
| 20260507111449 | 54 | 251 | 6.0 | 12.0 | 0.00 | 0.02 | 0.01 | 74 | 1011.8 |
| 20260507111350 | 54 | 260 | 6.0 | 12.0 | 0.00 | 0.02 | 0.01 | 73 | 1011.8 |
| 20260507111250 | 54 | 249 | 5.0 | 12.0 | 0.00 | 0.02 | 0.01 | 74 | 1011.8 |
| 20260507111235 | 54 | 259 | 5.0 | 11.0 | 0.00 | 0.02 | 0.01 | 76 | 1011.8 |
| 20260507111222 | 54 | 234 | 5.0 | 11.0 | 0.00 | 0.02 | 0.01 | 74 | 1011.8 |
| 20260507111218 | 54 | 275 | 5.0 | 11.0 | 0.00 | 0.02 | 0.01 | 75 | 1011.8 |
| 20260507110944 | 54 | 257 | 6.0 | 11.0 | 0.00 | 0.02 | 0.01 | 76 | 1011.7 |
| 20260507110844 | 54 | 291 | 6.0 | 11.0 | 0.00 | 0.02 | 0.01 | 75 | 1011.8 |
| 20260507110743 | 54 | 277 | 6.0 | 11.0 | 0.00 | 0.02 | 0.01 | 76 | 1011.8 |
| 20260507110643 | 54 | 248 | 6.0 | 11.0 | 0.00 | 0.02 | 0.01 | 76 | 1011.8 |
| 20260507110538 | 55 | 235 | 6.0 | 11.0 | 0.00 | 0.02 | 0.01 | 75 | 1011.8 |
| 20260507110508 | 55 | 258 | 6.0 | 11.0 | 0.00 | 0.02 | 0.01 | 75 | 1011.8 |
| 20260507110442 | 55 | 261 | 6.0 | 11.0 | 0.00 | 0.02 | 0.01 | 75 | 1011.8 |
| 20260507110338 | 55 | 254 | 6.0 | 11.0 | 0.00 | 0.02 | 0.01 | 73 | 1011.9 |
| 20260507110237 | 55 | 286 | 6.0 | 11.0 | 0.00 | 0.02 | 0.01 | 73 | 1011.8 |
| 20260507110137 | 55 | 242 | 6.0 | 11.0 | 0.00 | 0.02 | 0.01 | 73 | 1011.8 |
| 20260507110032 | 55 | 256 | 6.0 | 11.0 | 0.00 | 0.02 | 0.01 | 74 | 1011.9 |
| 20260507110006 | 55 | 233 | 6.0 | 11.0 | 0.00 | 0.02 | 0.01 | 74 | 1011.9 |
| 20260507105932 | 55 | 254 | 6.0 | 11.0 | 0.00 | 0.02 | 0.01 | 74 | 1011.8 |
| 20260507105832 | 55 | 257 | 6.0 | 11.0 | 0.00 | 0.02 | 0.01 | 73 | 1011.8 |
| 20260507105733 | 55 | 285 | 6.0 | 11.0 | 0.00 | 0.02 | 0.01 | 73 | 1011.8 |
| 20260507105631 | 55 | 225 | 6.0 | 11.0 | 0.00 | 0.02 | 0.01 | 73 | 1011.8 |
| 20260507105531 | 55 | 227 | 6.0 | 11.0 | 0.00 | 0.02 | 0.01 | 73 | 1011.8 |
| 20260507105504 | 55 | 283 | 6.0 | 11.0 | 0.00 | 0.02 | 0.01 | 73 | 1011.8 |
| 20260507105432 | 55 | 203 | 6.0 | 11.0 | 0.00 | 0.02 | 0.01 | 73 | 1011.8 |
| 20260507105332 | 55 | 242 | 7.0 | 15.0 | 0.00 | 0.02 | 0.01 | 72 | 1011.9 |
| 20260507105232 | 55 | 218 | 7.0 | 15.0 | 0.00 | 0.02 | 0.01 | 73 | 1011.9 |
| 20260507105130 | 55 | 227 | 7.0 | 15.0 | 0.00 | 0.02 | 0.01 | 73 | 1011.8 |
| 20260507105002 | 55 | 229 | 7.0 | 15.0 | 0.00 | 0.02 | 0.01 | 73 | 1012.0 |
| 20260507104930 | 55 | 200 | 7.0 | 15.0 | 0.00 | 0.02 | 0.01 | 73 | 1011.9 |
| 20260507104829 | 55 | 214 | 7.0 | 15.0 | 0.00 | 0.02 | 0.01 | 74 | 1011.9 |
| 20260507104729 | 55 | 252 | 7.0 | 15.0 | 0.00 | 0.02 | 0.01 | 73 | 1011.9 |
| 20260507104629 | 55 | 277 | 7.0 | 15.0 | 0.00 | 0.02 | 0.01 | 75 | 1011.9 |
| 20260507104530 | 55 | 240 | 6.0 | 15.0 | 0.00 | 0.02 | 0.01 | 74 | 1011.9 |
| 20260507104502 | 55 | 244 | 6.0 | 15.0 | 0.00 | 0.02 | 0.01 | 74 | 1011.9 |
| 20260507104434 | 54 | 250 | 6.0 | 15.0 | 0.00 | 0.02 | 0.01 | 73 | 1012.1 |
| 20260507104329 | 54 | 280 | 5.0 | 13.0 | 0.00 | 0.02 | 0.01 | 74 | 1011.9 |
| 20260507104229 | 54 | 304 | 5.0 | 11.0 | 0.00 | 0.02 | 0.01 | 74 | 1011.9 |
| 20260507104129 | 54 | 276 | 5.0 | 11.0 | 0.00 | 0.02 | 0.01 | 76 | 1011.9 |
| 20260507104029 | 54 | 245 | 6.0 | 11.0 | 0.00 | 0.02 | 0.01 | 75 | 1011.9 |
| 20260507104002 | 54 | 207 | 6.0 | 11.0 | 0.00 | 0.02 | 0.01 | 75 | 1011.9 |
| 20260507103933 | 54 | 236 | 5.0 | 11.0 | 0.00 | 0.02 | 0.01 | 75 | 1012.0 |
| 20260507103829 | 54 | 223 | 5.0 | 11.0 | 0.00 | 0.02 | 0.01 | 75 | 1012.0 |
| 20260507103729 | 54 | 234 | 5.0 | 11.0 | 0.00 | 0.02 | 0.01 | 77 | 1012.0 |
| 20260507103629 | 54 | 239 | 6.0 | 11.0 | 0.00 | 0.02 | 0.01 | 76 | 1012.0 |
| 20260507103529 | 54 | 275 | 6.0 | 11.0 | 0.00 | 0.02 | 0.01 | 76 | 1011.9 |
| 20260507103502 | 54 | 302 | 6.0 | 11.0 | 0.00 | 0.02 | 0.01 | 76 | 1011.9 |
| 20260507103429 | 53 | 244 | 6.0 | 11.0 | 0.00 | 0.02 | 0.01 | 75 | 1012.0 |
| 20260507103328 | 53 | 280 | 6.0 | 11.0 | 0.00 | 0.02 | 0.01 | 76 | 1012.1 |
| 20260507103228 | 53 | 284 | 6.0 | 10.0 | 0.00 | 0.02 | 0.01 | 76 | 1012.0 |
| 20260507103134 | 53 | 283 | 6.0 | 10.0 | 0.00 | 0.02 | 0.01 | 77 | 1012.1 |
| 20260507103029 | 53 | 244 | 6.0 | 10.0 | 0.00 | 0.02 | 0.01 | 77 | 1012.0 |
| 20260507103002 | 53 | 226 | 6.0 | 10.0 | 0.00 | 0.02 | 0.01 | 77 | 1012.0 |
| 20260507102929 | 53 | 274 | 6.0 | 10.0 | 0.00 | 0.02 | 0.01 | 77 | 1012.0 |
| 20260507102828 | 53 | 237 | 6.0 | 10.0 | 0.00 | 0.02 | 0.01 | 77 | 1012.0 |
| 20260507102729 | 53 | 235 | 6.0 | 10.0 | 0.00 | 0.02 | 0.01 | 77 | 1012.0 |
| 20260507102629 | 53 | 275 | 5.0 | 10.0 | 0.00 | 0.02 | 0.01 | 76 | 1012.0 |
| 20260507102529 | 53 | 267 | 5.0 | 10.0 | 0.00 | 0.02 | 0.01 | 76 | 1012.0 |
| 20260507102501 | 53 | 249 | 5.0 | 10.0 | 0.00 | 0.02 | 0.01 | 77 | 1012.0 |
| 20260507102429 | 53 | 259 | 5.0 | 10.0 | 0.00 | 0.02 | 0.01 | 77 | 1012.0 |
| 20260507102329 | 53 | 256 | 5.0 | 10.0 | 0.00 | 0.02 | 0.01 | 77 | 1012.0 |
| 20260507102229 | 53 | 284 | 6.0 | 10.0 | 0.00 | 0.02 | 0.01 | 77 | 1012.0 |
| 20260507102128 | 53 | 288 | 6.0 | 11.0 | 0.00 | 0.02 | 0.01 | 77 | 1012.0 |
| 20260507102026 | 53 | 283 | 6.0 | 11.0 | 0.00 | 0.02 | 0.01 | 77 | 1012.0 |
| 20260507102002 | 53 | 248 | 6.0 | 11.0 | 0.00 | 0.02 | 0.01 | 77 | 1012.0 |
| 20260507101925 | 53 | 241 | 6.0 | 11.0 | 0.00 | 0.02 | 0.01 | 77 | 1012.1 |
| 20260507101825 | 53 | 265 | 6.0 | 11.0 | 0.00 | 0.02 | 0.01 | 77 | 1012.0 |
| 20260507101725 | 53 | 261 | 6.0 | 11.0 | 0.00 | 0.02 | 0.01 | 76 | 1012.0 |
| 20260507101620 | 53 | 266 | 7.0 | 11.0 | 0.00 | 0.02 | 0.01 | 76 | 1012.0 |
| 20260507101520 | 53 | 276 | 7.0 | 11.0 | 0.00 | 0.02 | 0.01 | 75 | 1012.1 |
| 20260507101502 | 53 | 242 | 7.0 | 11.0 | 0.00 | 0.02 | 0.01 | 75 | 1012.1 |
| 20260507101420 | 53 | 255 | 7.0 | 11.0 | 0.00 | 0.02 | 0.01 | 75 | 1012.1 |
| 20260507101319 | 53 | 254 | 7.0 | 11.0 | 0.00 | 0.02 | 0.01 | 75 | 1012.1 |
| 20260507101219 | 53 | 252 | 7.0 | 11.0 | 0.00 | 0.02 | 0.01 | 76 | 1012.1 |
| 20260507101114 | 53 | 255 | 7.0 | 11.0 | 0.00 | 0.02 | 0.01 | 77 | 1012.0 |
| 20260507101014 | 53 | 257 | 6.0 | 11.0 | 0.01 | 0.02 | 0.01 | 76 | 1012.0 |
| 20260507101002 | 53 | 230 | 6.0 | 11.0 | 0.01 | 0.02 | 0.01 | 76 | 1012.0 |
| 20260507100914 | 53 | 241 | 6.0 | 11.0 | 0.01 | 0.02 | 0.01 | 76 | 1012.0 |
| 20260507100814 | 53 | 220 | 6.0 | 11.0 | 0.01 | 0.02 | 0.01 | 77 | 1012.0 |
| 20260507100726 | 53 | 275 | 6.0 | 11.0 | 0.01 | 0.02 | 0.01 | 76 | 1012.0 |
| 20260507100721 | 53 | 246 | 7.0 | 11.0 | 0.01 | 0.02 | 0.01 | 76 | 1012.0 |
| 20260507100717 | 53 | 255 | 7.0 | 11.0 | 0.01 | 0.02 | 0.01 | 77 | 1012.0 |
| 20260507100713 | 53 | 255 | 6.0 | 11.0 | 0.01 | 0.02 | 0.01 | 76 | 1012.0 |
| 20260507100408 | 53 | 257 | 6.0 | 11.0 | 0.01 | 0.02 | 0.01 | 77 | 1012.0 |
| 20260507100308 | 53 | 260 | 7.0 | 12.0 | 0.01 | 0.02 | 0.01 | 76 | 1012.0 |
| 20260507100208 | 53 | 267 | 7.0 | 13.0 | 0.01 | 0.02 | 0.01 | 78 | 1012.0 |
| 20260507100103 | 53 | 269 | 7.0 | 13.0 | 0.01 | 0.02 | 0.01 | 79 | 1011.9 |
| 20260507100000 | 53 | 240 | 7.0 | 13.0 | 0.01 | 0.02 | 0.01 | 79 | 1012.0 |
| 20260507095903 | 53 | 300 | 7.0 | 13.0 | 0.01 | 0.02 | 0.01 | 78 | 1011.9 |
| 20260507095803 | 53 | 265 | 7.0 | 13.0 | 0.01 | 0.02 | 0.01 | 78 | 1012.0 |
| 20260507095703 | 53 | 267 | 7.0 | 13.0 | 0.01 | 0.02 | 0.01 | 79 | 1012.0 |
| 20260507095604 | 53 | 241 | 6.0 | 13.0 | 0.01 | 0.02 | 0.01 | 81 | 1012.1 |
| 20260507095505 | 53 | 271 | 6.0 | 13.0 | 0.01 | 0.02 | 0.01 | 80 | 1012.0 |
| 20260507095501 | 53 | 261 | 6.0 | 13.0 | 0.01 | 0.02 | 0.01 | 80 | 1012.0 |
| 20260507095404 | 53 | 215 | 6.0 | 13.0 | 0.01 | 0.02 | 0.01 | 81 | 1012.1 |
| 20260507095306 | 53 | 252 | 5.0 | 13.0 | 0.01 | 0.02 | 0.01 | 80 | 1012.0 |
| 20260507095224 | 52 | 261 | 5.0 | 11.0 | 0.01 | 0.02 | 0.01 | 80 | 1012.0 |
| 20260507095220 | 53 | 221 | 5.0 | 11.0 | 0.01 | 0.02 | 0.01 | 80 | 1012.0 |
| 20260507095216 | 53 | 262 | 6.0 | 11.0 | 0.01 | 0.02 | 0.01 | 81 | 1012.0 |
| 20260507095212 | 52 | 227 | 5.0 | 11.0 | 0.01 | 0.02 | 0.01 | 80 | 1012.0 |
| 20260507094904 | 52 | 248 | 6.0 | 11.0 | 0.01 | 0.02 | 0.01 | 81 | 1012.0 |
| 20260507094804 | 52 | 221 | 6.0 | 12.0 | 0.01 | 0.02 | 0.01 | 82 | 1012.0 |
| 20260507094704 | 52 | 246 | 6.0 | 12.0 | 0.01 | 0.02 | 0.01 | 82 | 1012.0 |
| 20260507094602 | 52 | 232 | 6.0 | 12.0 | 0.01 | 0.02 | 0.01 | 83 | 1011.9 |
| 20260507094502 | 52 | 262 | 6.0 | 12.0 | 0.01 | 0.02 | 0.01 | 81 | 1012.0 |
| 20260507094401 | 52 | 247 | 6.0 | 12.0 | 0.01 | 0.02 | 0.01 | 82 | 1012.0 |
| 20260507094302 | 52 | 238 | 6.0 | 12.0 | 0.01 | 0.02 | 0.01 | 82 | 1011.9 |
| 20260507094201 | 52 | 238 | 6.0 | 12.0 | 0.01 | 0.02 | 0.01 | 82 | 1012.1 |
| 20260507094101 | 52 | 286 | 5.0 | 12.0 | 0.01 | 0.02 | 0.01 | 83 | 1012.0 |
| 20260507094001 | 52 | 272 | 5.0 | 12.0 | 0.01 | 0.02 | 0.01 | 82 | 1012.0 |
| 20260507093901 | 52 | 253 | 5.0 | 12.0 | 0.01 | 0.02 | 0.01 | 81 | 1012.0 |
| 20260507093801 | 52 | 261 | 5.0 | 10.0 | 0.01 | 0.02 | 0.01 | 82 | 1012.0 |
| 20260507093701 | 52 | 235 | 4.0 | 10.0 | 0.01 | 0.02 | 0.01 | 83 | 1012.0 |
| 20260507093601 | 51 | 277 | 4.0 | 9.0 | 0.01 | 0.02 | 0.01 | 83 | 1011.9 |
| 20260507093500 | 51 | 219 | 4.0 | 9.0 | 0.01 | 0.02 | 0.01 | 84 | 1011.9 |
| 20260507093401 | 51 | 233 | 4.0 | 9.0 | 0.01 | 0.02 | 0.01 | 84 | 1011.9 |
| 20260507093301 | 51 | 229 | 4.0 | 9.0 | 0.01 | 0.02 | 0.01 | 84 | 1011.9 |
| 20260507093201 | 51 | 238 | 4.0 | 9.0 | 0.01 | 0.02 | 0.01 | 83 | 1011.9 |
| 20260507093101 | 51 | 245 | 4.0 | 9.0 | 0.01 | 0.02 | 0.01 | 84 | 1011.9 |
| 20260507093001 | 51 | 223 | 4.0 | 9.0 | 0.01 | 0.02 | 0.01 | 84 | 1011.9 |
| 20260507092901 | 51 | 235 | 4.0 | 9.0 | 0.01 | 0.02 | 0.01 | 84 | 1012.0 |
| 20260507092801 | 51 | 213 | 4.0 | 9.0 | 0.01 | 0.02 | 0.01 | 83 | 1011.9 |
| 20260507092700 | 51 | 244 | 4.0 | 10.0 | 0.01 | 0.02 | 0.01 | 83 | 1011.9 |
| 20260507092557 | 51 | 233 | 5.0 | 13.0 | 0.01 | 0.02 | 0.01 | 83 | 1011.9 |
| 20260507092502 | 51 | 218 | 5.0 | 13.0 | 0.01 | 0.02 | 0.01 | 84 | 1011.9 |
| 20260507092457 | 51 | 218 | 5.0 | 13.0 | 0.01 | 0.02 | 0.01 | 84 | 1011.9 |
| 20260507092358 | 51 | 226 | 5.0 | 13.0 | 0.01 | 0.02 | 0.01 | 85 | 1011.9 |
| 20260507092257 | 51 | 271 | 5.0 | 13.0 | 0.01 | 0.02 | 0.01 | 85 | 1011.9 |
| 20260507092154 | 51 | 262 | 5.0 | 13.0 | 0.01 | 0.02 | 0.01 | 85 | 1011.9 |
| 20260507092054 | 51 | 267 | 5.0 | 13.0 | 0.01 | 0.02 | 0.01 | 84 | 1011.8 |
| 20260507092000 | 51 | 214 | 6.0 | 13.0 | 0.01 | 0.02 | 0.01 | 84 | 1011.8 |
| 20260507091954 | 51 | 213 | 5.0 | 13.0 | 0.01 | 0.02 | 0.01 | 84 | 1011.8 |
| 20260507091854 | 51 | 239 | 5.0 | 13.0 | 0.01 | 0.02 | 0.01 | 84 | 1011.9 |
| 20260507091752 | 51 | 227 | 5.0 | 13.0 | 0.01 | 0.02 | 0.01 | 84 | 1011.9 |
| 20260507091652 | 51 | 220 | 5.0 | 13.0 | 0.01 | 0.02 | 0.01 | 85 | 1011.9 |
| 20260507091552 | 51 | 261 | 6.0 | 11.0 | 0.01 | 0.02 | 0.01 | 85 | 1011.9 |
| 20260507091502 | 51 | 229 | 6.0 | 11.0 | 0.01 | 0.02 | 0.01 | 85 | 1011.9 |
| 20260507091451 | 51 | 229 | 6.0 | 11.0 | 0.01 | 0.02 | 0.01 | 85 | 1011.8 |
| 20260507091351 | 51 | 240 | 5.0 | 11.0 | 0.01 | 0.02 | 0.01 | 85 | 1011.8 |
| 20260507091252 | 51 | 240 | 5.0 | 11.0 | 0.01 | 0.02 | 0.01 | 85 | 1011.8 |
| 20260507091152 | 51 | 240 | 5.0 | 11.0 | 0.01 | 0.02 | 0.01 | 85 | 1011.9 |
| 20260507091052 | 51 | 234 | 5.0 | 11.0 | 0.01 | 0.02 | 0.00 | 85 | 1011.8 |
| 20260507091001 | 51 | 284 | 5.0 | 11.0 | 0.00 | 0.01 | 0.00 | 84 | 1011.8 |
| 20260507090951 | 51 | 285 | 5.0 | 11.0 | 0.00 | 0.01 | 0.00 | 84 | 1011.7 |
| 20260507090851 | 51 | 223 | 6.0 | 11.0 | 0.00 | 0.01 | 0.00 | 85 | 1011.9 |
| 20260507090751 | 51 | 241 | 6.0 | 11.0 | 0.00 | 0.01 | 0.00 | 85 | 1011.8 |
| 20260507090651 | 51 | 247 | 6.0 | 14.0 | 0.00 | 0.01 | 0.00 | 85 | 1011.8 |
| 20260507090551 | 51 | 257 | 6.0 | 14.0 | 0.00 | 0.01 | 0.00 | 85 | 1011.8 |
| 20260507090501 | 51 | 277 | 6.0 | 14.0 | 0.00 | 0.01 | 0.00 | 85 | 1011.8 |
| 20260507090448 | 51 | 269 | 6.0 | 14.0 | 0.00 | 0.01 | 0.00 | 84 | 1011.7 |
| 20260507090348 | 51 | 228 | 6.0 | 14.0 | 0.00 | 0.01 | 0.00 | 85 | 1011.8 |
| 20260507090247 | 51 | 209 | 6.0 | 14.0 | 0.00 | 0.01 | 0.00 | 85 | 1011.8 |
| 20260507090147 | 51 | 248 | 6.0 | 14.0 | 0.00 | 0.01 | 0.00 | 84 | 1011.9 |
| 20260507090047 | 51 | 271 | 5.0 | 14.0 | 0.00 | 0.01 | 0.00 | 84 | 1011.7 |
| 20260507090001 | 51 | 263 | 5.0 | 14.0 | 0.00 | 0.01 | 0.00 | 83 | 1011.7 |
| 20260507085948 | 51 | 258 | 5.0 | 14.0 | 0.00 | 0.01 | 0.00 | 83 | 1011.7 |
| 20260507085848 | 51 | 248 | 5.0 | 14.0 | 0.00 | 0.01 | 0.00 | 84 | 1011.8 |
| 20260507085747 | 51 | 235 | 5.0 | 14.0 | 0.00 | 0.01 | 0.00 | 83 | 1011.7 |
| 20260507085647 | 51 | 261 | 5.0 | 12.0 | 0.00 | 0.01 | 0.00 | 83 | 1011.6 |
| 20260507085547 | 51 | 234 | 5.0 | 11.0 | 0.00 | 0.01 | 0.00 | 83 | 1011.7 |
| 20260507085500 | 51 | 208 | 5.0 | 11.0 | 0.00 | 0.01 | 0.00 | 84 | 1011.7 |
| 20260507085447 | 51 | 244 | 5.0 | 11.0 | 0.00 | 0.01 | 0.00 | 84 | 1011.6 |
| 20260507085348 | 51 | 220 | 5.0 | 12.0 | 0.00 | 0.01 | 0.00 | 84 | 1011.6 |
| 20260507085248 | 51 | 213 | 5.0 | 12.0 | 0.00 | 0.01 | 0.00 | 84 | 1011.6 |
| 20260507085148 | 51 | 218 | 6.0 | 12.0 | 0.00 | 0.01 | 0.00 | 84 | 1011.6 |
| 20260507085048 | 51 | 222 | 6.0 | 12.0 | 0.00 | 0.01 | 0.00 | 84 | 1011.6 |
| 20260507085001 | 51 | 236 | 6.0 | 12.0 | 0.00 | 0.01 | 0.00 | 84 | 1011.6 |
| 20260507084947 | 51 | 260 | 6.0 | 12.0 | 0.00 | 0.01 | 0.00 | 84 | 1011.6 |
| 20260507084847 | 51 | 245 | 6.0 | 12.0 | 0.00 | 0.01 | 0.00 | 84 | 1011.6 |
| 20260507084748 | 51 | 239 | 5.0 | 12.0 | 0.00 | 0.01 | 0.00 | 83 | 1011.6 |
| 20260507084648 | 51 | 278 | 6.0 | 12.0 | 0.00 | 0.01 | 0.00 | 83 | 1011.5 |
| 20260507084544 | 51 | 217 | 6.0 | 12.0 | 0.00 | 0.01 | 0.00 | 83 | 1011.6 |
| 20260507084501 | 51 | 289 | 6.0 | 12.0 | 0.00 | 0.01 | 0.00 | 82 | 1011.6 |
| 20260507084443 | 51 | 240 | 5.0 | 12.0 | 0.00 | 0.01 | 0.00 | 82 | 1011.6 |
| 20260507084343 | 51 | 281 | 5.0 | 9.0 | 0.00 | 0.01 | 0.00 | 83 | 1011.5 |
| 20260507084243 | 51 | 232 | 5.0 | 9.0 | 0.00 | 0.01 | 0.00 | 83 | 1011.5 |
| 20260507084143 | 51 | 272 | 5.0 | 10.0 | 0.00 | 0.01 | 0.00 | 82 | 1011.5 |
| 20260507084043 | 51 | 269 | 6.0 | 12.0 | 0.00 | 0.01 | 0.00 | 82 | 1011.5 |
| 20260507084001 | 50 | 252 | 6.0 | 12.0 | 0.00 | 0.01 | 0.00 | 81 | 1011.5 |
| 20260507083944 | 51 | 255 | 6.0 | 12.0 | 0.00 | 0.01 | 0.00 | 81 | 1011.5 |
| 20260507083844 | 50 | 253 | 6.0 | 12.0 | 0.00 | 0.01 | 0.00 | 81 | 1011.5 |
| 20260507083744 | 50 | 269 | 6.0 | 12.0 | 0.00 | 0.01 | 0.00 | 81 | 1011.5 |
| 20260507083723 | 50 | 214 | 6.0 | 12.0 | 0.00 | 0.01 | 0.00 | 81 | 1011.5 |
| 20260507083716 | 50 | 234 | 6.0 | 12.0 | 0.00 | 0.01 | 0.00 | 81 | 1011.5 |
| 20260507083712 | 50 | 233 | 6.0 | 12.0 | 0.00 | 0.01 | 0.00 | 81 | 1011.5 |
| 20260507083443 | 50 | 230 | 6.0 | 12.0 | 0.00 | 0.01 | 0.00 | 81 | 1011.5 |
| 20260507083343 | 50 | 246 | 6.0 | 12.0 | 0.00 | 0.01 | 0.00 | 81 | 1011.5 |
| 20260507083243 | 50 | 245 | 7.0 | 12.0 | 0.00 | 0.01 | 0.00 | 80 | 1011.5 |
| 20260507083144 | 50 | 252 | 7.0 | 14.0 | 0.00 | 0.01 | 0.00 | 81 | 1011.6 |
| 20260507083044 | 50 | 250 | 7.0 | 15.0 | 0.00 | 0.01 | 0.00 | 82 | 1011.5 |
| 20260507083001 | 50 | 285 | 7.0 | 15.0 | 0.00 | 0.01 | 0.00 | 82 | 1011.5 |
| 20260507082943 | 50 | 255 | 7.0 | 15.0 | 0.00 | 0.01 | 0.00 | 81 | 1011.5 |
| 20260507082843 | 50 | 266 | 7.0 | 15.0 | 0.00 | 0.01 | 0.00 | 81 | 1011.4 |
| 20260507082743 | 51 | 223 | 7.0 | 15.0 | 0.00 | 0.01 | 0.00 | 81 | 1011.5 |
| 20260507082639 | 51 | 274 | 7.0 | 15.0 | 0.00 | 0.01 | 0.00 | 82 | 1011.5 |
| 20260507082539 | 51 | 220 | 7.0 | 15.0 | 0.00 | 0.01 | 0.00 | 81 | 1011.4 |
| 20260507082501 | 51 | 273 | 7.0 | 15.0 | 0.00 | 0.01 | 0.00 | 81 | 1011.4 |
| 20260507082440 | 51 | 238 | 7.0 | 15.0 | 0.00 | 0.01 | 0.00 | 81 | 1011.5 |
| 20260507082340 | 51 | 241 | 7.0 | 15.0 | 0.00 | 0.01 | 0.00 | 81 | 1011.4 |
| 20260507082240 | 51 | 236 | 7.0 | 15.0 | 0.00 | 0.01 | 0.00 | 81 | 1011.6 |
| 20260507082140 | 51 | 226 | 7.0 | 15.0 | 0.00 | 0.01 | 0.00 | 81 | 1011.4 |
| 20260507082040 | 51 | 242 | 8.0 | 13.0 | 0.00 | 0.01 | 0.00 | 81 | 1011.4 |
| 20260507082001 | 51 | 296 | 8.0 | 13.0 | 0.00 | 0.01 | 0.00 | 81 | 1011.4 |
| 20260507081939 | 51 | 265 | 8.0 | 13.0 | 0.00 | 0.01 | 0.00 | 81 | 1011.5 |
| 20260507081840 | 51 | 242 | 8.0 | 13.0 | 0.00 | 0.01 | 0.00 | 81 | 1011.4 |
| 20260507081740 | 51 | 263 | 8.0 | 13.0 | 0.00 | 0.01 | 0.00 | 81 | 1011.4 |
| 20260507081639 | 51 | 233 | 8.0 | 13.0 | 0.00 | 0.01 | 0.00 | 81 | 1011.3 |
| 20260507081539 | 51 | 223 | 8.0 | 14.0 | 0.00 | 0.01 | 0.00 | 81 | 1011.4 |
| 20260507081502 | 51 | 250 | 8.0 | 14.0 | 0.00 | 0.01 | 0.00 | 81 | 1011.4 |
| 20260507081439 | 51 | 251 | 8.0 | 14.0 | 0.00 | 0.01 | 0.00 | 81 | 1011.4 |
| 20260507081340 | 51 | 255 | 9.0 | 14.0 | 0.00 | 0.01 | 0.00 | 80 | 1011.4 |
| 20260507081240 | 51 | 271 | 9.0 | 14.0 | 0.00 | 0.01 | 0.00 | 81 | 1011.2 |
| 20260507081222 | 51 | 268 | 8.0 | 14.0 | 0.00 | 0.01 | 0.00 | 80 | 1011.3 |
| 20260507081217 | 51 | 259 | 8.0 | 14.0 | 0.00 | 0.01 | 0.00 | 81 | 1011.4 |
| 20260507081213 | 51 | 278 | 8.0 | 14.0 | 0.00 | 0.01 | 0.00 | 80 | 1011.3 |
| 20260507080940 | 51 | 254 | 8.0 | 14.0 | 0.00 | 0.01 | 0.00 | 80 | 1011.4 |
| 20260507080840 | 50 | 278 | 7.0 | 14.0 | 0.00 | 0.01 | 0.00 | 80 | 1011.3 |
| 20260507080735 | 50 | 268 | 7.0 | 14.0 | 0.00 | 0.01 | 0.00 | 81 | 1011.2 |
| 20260507080635 | 50 | 234 | 7.0 | 14.0 | 0.00 | 0.01 | 0.00 | 81 | 1011.5 |
| 20260507080535 | 50 | 287 | 7.0 | 14.0 | 0.00 | 0.01 | 0.00 | 82 | 1011.3 |
| 20260507080501 | 50 | 257 | 7.0 | 14.0 | 0.00 | 0.01 | 0.00 | 81 | 1011.3 |
| 20260507080435 | 50 | 248 | 8.0 | 14.0 | 0.00 | 0.01 | 0.00 | 81 | 1011.3 |
| 20260507080335 | 50 | 232 | 7.0 | 14.0 | 0.00 | 0.01 | 0.00 | 81 | 1011.3 |
| 20260507080236 | 50 | 227 | 7.0 | 13.0 | 0.00 | 0.01 | 0.00 | 81 | 1011.3 |
| 20260507080135 | 50 | 244 | 7.0 | 13.0 | 0.00 | 0.01 | 0.00 | 81 | 1011.2 |
| 20260507080035 | 50 | 221 | 7.0 | 13.0 | 0.00 | 0.01 | 0.00 | 81 | 1011.2 |
| 20260507080000 | 50 | 233 | 7.0 | 13.0 | 0.00 | 0.01 | 0.00 | 80 | 1011.2 |
| 20260507075936 | 50 | 246 | 7.0 | 13.0 | 0.00 | 0.01 | 0.00 | 80 | 1011.2 |
| 20260507075836 | 50 | 225 | 7.0 | 13.0 | 0.00 | 0.01 | 0.00 | 80 | 1011.2 |
| 20260507075735 | 50 | 233 | 7.0 | 13.0 | 0.00 | 0.01 | 0.00 | 80 | 1011.2 |
| 20260507075635 | 50 | 232 | 7.0 | 14.0 | 0.00 | 0.01 | 0.00 | 80 | 1011.2 |
| 20260507075535 | 50 | 241 | 7.0 | 14.0 | 0.00 | 0.01 | 0.00 | 80 | 1011.2 |
| 20260507075502 | 50 | 265 | 7.0 | 14.0 | 0.00 | 0.01 | 0.00 | 80 | 1011.2 |
| 20260507075457 | 50 | 271 | 7.0 | 14.0 | 0.00 | 0.01 | 0.00 | 80 | 1011.1 |
| 20260507075452 | 50 | 250 | 7.0 | 14.0 | 0.00 | 0.01 | 0.00 | 80 | 1011.2 |
| 20260507075448 | 50 | 226 | 7.0 | 14.0 | 0.00 | 0.01 | 0.00 | 80 | 1011.2 |
| 20260507075440 | 50 | 290 | 7.0 | 14.0 | 0.00 | 0.01 | 0.00 | 80 | 1011.2 |
| 20260507075215 | 50 | 208 | 7.0 | 14.0 | 0.00 | 0.01 | 0.00 | 80 | 1011.1 |
| 20260507075211 | 50 | 252 | 7.0 | 14.0 | 0.00 | 0.01 | 0.00 | 80 | 1011.1 |
| 20260507074936 | 50 | 217 | 7.0 | 14.0 | 0.00 | 0.01 | 0.00 | 81 | 1011.2 |
| 20260507074830 | 50 | 265 | 7.0 | 14.0 | 0.00 | 0.01 | 0.00 | 80 | 1011.2 |
| 20260507074730 | 50 | 265 | 7.0 | 14.0 | 0.00 | 0.01 | 0.00 | 80 | 1011.2 |
| 20260507074629 | 50 | 275 | 7.0 | 14.0 | 0.00 | 0.01 | 0.00 | 80 | 1011.1 |
| 20260507074529 | 50 | 252 | 7.0 | 14.0 | 0.00 | 0.01 | 0.00 | 80 | 1011.2 |
| 20260507074501 | 50 | 229 | 7.0 | 14.0 | 0.00 | 0.01 | 0.00 | 80 | 1011.2 |
| 20260507074454 | 50 | 294 | 8.0 | 14.0 | 0.00 | 0.01 | 0.00 | 79 | 1011.0 |
| 20260507074449 | 50 | 252 | 8.0 | 14.0 | 0.00 | 0.01 | 0.00 | 80 | 1011.0 |
| 20260507074445 | 50 | 249 | 8.0 | 14.0 | 0.00 | 0.01 | 0.00 | 79 | 1011.1 |
| 20260507074436 | 50 | 252 | 8.0 | 14.0 | 0.00 | 0.01 | 0.00 | 79 | 1011.1 |
| 20260507074217 | 50 | 271 | 8.0 | 14.0 | 0.00 | 0.01 | 0.00 | 79 | 1011.1 |
| 20260507074213 | 50 | 262 | 8.0 | 14.0 | 0.00 | 0.01 | 0.00 | 79 | 1011.0 |
| 20260507073929 | 50 | 279 | 8.0 | 14.0 | 0.00 | 0.01 | 0.00 | 79 | 1011.1 |
| 20260507073829 | 50 | 275 | 8.0 | 14.0 | 0.00 | 0.01 | 0.00 | 79 | 1011.2 |
| 20260507073729 | 50 | 267 | 7.0 | 13.0 | 0.00 | 0.01 | 0.00 | 79 | 1011.0 |
| 20260507073629 | 50 | 294 | 7.0 | 13.0 | 0.00 | 0.01 | 0.00 | 80 | 1011.1 |
| 20260507073529 | 50 | 294 | 7.0 | 13.0 | 0.00 | 0.01 | 0.00 | 79 | 1011.0 |
| 20260507073501 | 50 | 269 | 7.0 | 13.0 | 0.00 | 0.01 | 0.00 | 80 | 1011.0 |
| 20260507073429 | 50 | 244 | 7.0 | 13.0 | 0.00 | 0.01 | 0.00 | 80 | 1011.1 |
| 20260507073329 | 50 | 267 | 7.0 | 13.0 | 0.00 | 0.01 | 0.00 | 80 | 1010.9 |
| 20260507073229 | 50 | 234 | 7.0 | 13.0 | 0.00 | 0.01 | 0.00 | 80 | 1011.0 |
| 20260507073128 | 50 | 298 | 7.0 | 13.0 | 0.00 | 0.01 | 0.00 | 79 | 1011.0 |
| 20260507073001 | 50 | 243 | 8.0 | 13.0 | 0.00 | 0.01 | 0.00 | 79 | 1010.9 |
| 20260507072925 | 50 | 238 | 8.0 | 13.0 | 0.00 | 0.01 | 0.00 | 79 | 1011.0 |
| 20260507072825 | 50 | 245 | 7.0 | 13.0 | 0.00 | 0.01 | 0.00 | 80 | 1011.0 |
| 20260507072728 | 50 | 271 | 7.0 | 13.0 | 0.00 | 0.01 | 0.00 | 79 | 1010.9 |
| 20260507072724 | 50 | 256 | 7.0 | 13.0 | 0.00 | 0.01 | 0.00 | 79 | 1011.0 |
| 20260507072716 | 50 | 248 | 7.0 | 13.0 | 0.00 | 0.01 | 0.00 | 79 | 1010.9 |
| 20260507072712 | 50 | 288 | 7.0 | 13.0 | 0.00 | 0.01 | 0.00 | 79 | 1011.0 |
| 20260507072425 | 50 | 294 | 7.0 | 13.0 | 0.00 | 0.01 | 0.00 | 79 | 1011.0 |
| 20260507072325 | 50 | 275 | 8.0 | 13.0 | 0.00 | 0.01 | 0.00 | 80 | 1011.0 |
| 20260507072230 | 50 | 290 | 8.0 | 17.0 | 0.00 | 0.01 | 0.00 | 81 | 1010.9 |
| 20260507072225 | 50 | 265 | 8.0 | 17.0 | 0.00 | 0.01 | 0.00 | 80 | 1010.9 |
| 20260507072217 | 50 | 255 | 8.0 | 17.0 | 0.00 | 0.01 | 0.00 | 81 | 1010.9 |
| 20260507072213 | 50 | 267 | 8.0 | 17.0 | 0.00 | 0.01 | 0.00 | 81 | 1010.9 |
| 20260507071925 | 50 | 265 | 8.0 | 17.0 | 0.00 | 0.01 | 0.00 | 81 | 1010.9 |
| 20260507071824 | 50 | 277 | 9.0 | 17.0 | 0.00 | 0.01 | 0.00 | 81 | 1010.9 |
| 20260507071721 | 50 | 251 | 9.0 | 17.0 | 0.00 | 0.01 | 0.00 | 81 | 1010.8 |
| 20260507071621 | 50 | 261 | 9.0 | 17.0 | 0.00 | 0.01 | 0.00 | 80 | 1010.8 |
| 20260507071520 | 50 | 261 | 9.0 | 17.0 | 0.00 | 0.01 | 0.00 | 80 | 1010.8 |
| 20260507071500 | 50 | 257 | 9.0 | 17.0 | 0.00 | 0.01 | 0.00 | 80 | 1010.8 |
| 20260507071419 | 50 | 271 | 9.0 | 17.0 | 0.00 | 0.01 | 0.00 | 80 | 1010.9 |
| 20260507071318 | 50 | 290 | 9.0 | 17.0 | 0.00 | 0.01 | 0.00 | 80 | 1010.9 |
| 20260507071217 | 50 | 217 | 8.0 | 13.0 | 0.00 | 0.01 | 0.00 | 80 | 1010.8 |
| 20260507071117 | 50 | 262 | 8.0 | 13.0 | 0.00 | 0.01 | 0.00 | 80 | 1010.8 |
| 20260507071017 | 50 | 271 | 8.0 | 14.0 | 0.00 | 0.01 | 0.00 | 80 | 1010.8 |
| 20260507071001 | 50 | 257 | 8.0 | 14.0 | 0.00 | 0.01 | 0.00 | 80 | 1010.8 |
| 20260507070917 | 50 | 262 | 8.0 | 14.0 | 0.00 | 0.01 | 0.00 | 80 | 1010.8 |
| 20260507070818 | 50 | 254 | 8.0 | 14.0 | 0.00 | 0.01 | 0.00 | 80 | 1010.8 |
| 20260507070717 | 50 | 264 | 8.0 | 14.0 | 0.00 | 0.01 | 0.00 | 80 | 1010.8 |
| 20260507070617 | 50 | 267 | 8.0 | 14.0 | 0.00 | 0.01 | 0.00 | 80 | 1010.8 |
| 20260507070517 | 50 | 292 | 8.0 | 14.0 | 0.00 | 0.01 | 0.00 | 81 | 1011.0 |
| 20260507070503 | 50 | 281 | 8.0 | 14.0 | 0.00 | 0.01 | 0.00 | 81 | 1011.0 |
| 20260507070417 | 50 | 257 | 8.0 | 14.0 | 0.00 | 0.01 | 0.00 | 81 | 1010.8 |
| 20260507070317 | 50 | 234 | 8.0 | 14.0 | 0.00 | 0.01 | 0.00 | 81 | 1010.7 |
| 20260507070216 | 50 | 283 | 8.0 | 14.0 | 0.00 | 0.01 | 0.00 | 81 | 1010.8 |
| 20260507070115 | 50 | 250 | 8.0 | 14.0 | 0.00 | 0.01 | 0.00 | 81 | 1010.8 |
| 20260507070016 | 50 | 262 | 7.0 | 13.0 | 0.00 | 0.01 | 0.00 | 81 | 1010.7 |
| 20260507070003 | 50 | 256 | 7.0 | 13.0 | 0.00 | 0.01 | 0.00 | 80 | 1010.7 |
| 20260507065915 | 50 | 220 | 7.0 | 13.0 | 0.00 | 0.01 | 0.00 | 80 | 1010.7 |
| 20260507065815 | 50 | 285 | 7.0 | 13.0 | 0.00 | 0.01 | 0.00 | 80 | 1010.8 |
| 20260507065716 | 50 | 246 | 7.0 | 13.0 | 0.00 | 0.01 | 0.00 | 80 | 1010.8 |
| 20260507065615 | 50 | 240 | 6.0 | 13.0 | 0.00 | 0.01 | 0.00 | 81 | 1010.7 |
| 20260507065509 | 50 | 257 | 6.0 | 13.0 | 0.00 | 0.01 | 0.00 | 80 | 1010.7 |
| 20260507065502 | 50 | 241 | 6.0 | 13.0 | 0.00 | 0.01 | 0.00 | 80 | 1010.7 |
| 20260507065410 | 50 | 249 | 5.0 | 13.0 | 0.00 | 0.01 | 0.00 | 80 | 1010.7 |
| 20260507065309 | 50 | 238 | 5.0 | 13.0 | 0.00 | 0.01 | 0.00 | 80 | 1010.7 |
| 20260507065209 | 50 | 234 | 4.0 | 11.0 | 0.00 | 0.01 | 0.00 | 81 | 1010.7 |
| 20260507065108 | 50 | 231 | 4.0 | 10.0 | 0.00 | 0.01 | 0.00 | 81 | 1010.7 |
| 20260507065005 | 50 | 221 | 4.0 | 10.0 | 0.00 | 0.01 | 0.00 | 81 | 1010.6 |
| 20260507065001 | 50 | 192 | 4.0 | 10.0 | 0.00 | 0.01 | 0.00 | 81 | 1010.6 |
| 20260507064902 | 50 | 262 | 5.0 | 12.0 | 0.00 | 0.01 | 0.00 | 81 | 1010.6 |
| 20260507064802 | 50 | 238 | 5.0 | 14.0 | 0.00 | 0.01 | 0.00 | 81 | 1010.7 |
| 20260507064701 | 50 | 232 | 5.0 | 14.0 | 0.00 | 0.01 | 0.00 | 80 | 1010.6 |
| 20260507064601 | 50 | 235 | 5.0 | 14.0 | 0.00 | 0.01 | 0.00 | 81 | 1010.6 |
| 20260507064503 | 50 | 242 | 5.0 | 14.0 | 0.00 | 0.01 | 0.00 | 81 | 1010.6 |
| 20260507064401 | 50 | 284 | 5.0 | 14.0 | 0.00 | 0.01 | 0.00 | 81 | 1010.5 |
| 20260507064201 | 50 | 227 | 6.0 | 14.0 | 0.00 | 0.01 | 0.00 | 81 | 1010.5 |
| 20260507064101 | 50 | 251 | 6.0 | 14.0 | 0.00 | 0.01 | 0.00 | 81 | 1010.5 |
| 20260507064003 | 50 | 278 | 7.0 | 14.0 | 0.00 | 0.01 | 0.00 | 81 | 1010.6 |
| 20260507063901 | 50 | 275 | 7.0 | 14.0 | 0.00 | 0.01 | 0.00 | 81 | 1010.5 |
| 20260507063801 | 50 | 238 | 6.0 | 14.0 | 0.00 | 0.01 | 0.00 | 81 | 1010.6 |
| 20260507063701 | 50 | 219 | 6.0 | 14.0 | 0.00 | 0.01 | 0.00 | 81 | 1010.5 |
| 20260507063601 | 50 | 229 | 6.0 | 14.0 | 0.00 | 0.01 | 0.00 | 81 | 1010.5 |
| 20260507063501 | 50 | 282 | 6.0 | 14.0 | 0.00 | 0.01 | 0.00 | 81 | 1010.5 |
| 20260507063448 | 50 | 247 | 6.0 | 11.0 | 0.00 | 0.01 | 0.00 | 82 | 1010.4 |
| 20260507063444 | 50 | 211 | 6.0 | 14.0 | 0.00 | 0.01 | 0.00 | 81 | 1010.5 |
| 20260507063440 | 50 | 251 | 6.0 | 14.0 | 0.00 | 0.01 | 0.00 | 81 | 1010.6 |
| 20260507063220 | 50 | 284 | 6.0 | 11.0 | 0.00 | 0.01 | 0.00 | 82 | 1010.4 |
| 20260507063216 | 50 | 254 | 5.0 | 11.0 | 0.00 | 0.01 | 0.00 | 82 | 1010.5 |
| 20260507063212 | 50 | 247 | 6.0 | 11.0 | 0.00 | 0.01 | 0.00 | 82 | 1010.4 |
| 20260507062901 | 50 | 260 | 5.0 | 11.0 | 0.00 | 0.01 | 0.00 | 82 | 1010.4 |
| 20260507062801 | 50 | 269 | 5.0 | 11.0 | 0.00 | 0.01 | 0.00 | 82 | 1010.4 |
| 20260507062701 | 50 | 244 | 5.0 | 11.0 | 0.00 | 0.01 | 0.00 | 82 | 1010.4 |
| 20260507062601 | 50 | 245 | 5.0 | 11.0 | 0.00 | 0.01 | 0.00 | 82 | 1010.4 |
| 20260507062500 | 50 | 240 | 5.0 | 11.0 | 0.00 | 0.01 | 0.00 | 82 | 1010.5 |
| 20260507062400 | 50 | 274 | 5.0 | 11.0 | 0.00 | 0.01 | 0.00 | 82 | 1010.5 |
| 20260507062300 | 50 | 216 | 5.0 | 15.0 | 0.00 | 0.01 | 0.00 | 82 | 1010.4 |
| 20260507062200 | 50 | 247 | 6.0 | 15.0 | 0.00 | 0.01 | 0.00 | 82 | 1010.4 |
| 20260507062100 | 50 | 259 | 6.0 | 15.0 | 0.00 | 0.01 | 0.00 | 82 | 1010.4 |
| 20260507062001 | 50 | 264 | 6.0 | 15.0 | 0.00 | 0.01 | 0.00 | 82 | 1010.4 |
| 20260507061901 | 50 | 232 | 6.0 | 15.0 | 0.00 | 0.01 | 0.00 | 82 | 1010.4 |
| 20260507061802 | 50 | 229 | 7.0 | 15.0 | 0.00 | 0.01 | 0.00 | 82 | 1010.4 |
| 20260507061722 | 50 | 247 | 7.0 | 15.0 | 0.00 | 0.01 | 0.00 | 82 | 1010.2 |
| 20260507061717 | 49 | 217 | 7.0 | 15.0 | 0.00 | 0.01 | 0.00 | 82 | 1010.4 |
| 20260507061713 | 49 | 255 | 8.0 | 15.0 | 0.00 | 0.01 | 0.00 | 82 | 1010.4 |
| 20260507061401 | 49 | 224 | 8.0 | 15.0 | 0.00 | 0.01 | 0.00 | 82 | 1010.4 |
| 20260507061301 | 49 | 217 | 9.0 | 16.0 | 0.00 | 0.01 | 0.00 | 82 | 1010.4 |
| 20260507061201 | 49 | 249 | 9.0 | 16.0 | 0.00 | 0.01 | 0.00 | 82 | 1010.4 |
| 20260507061057 | 49 | 249 | 9.0 | 16.0 | 0.00 | 0.01 | 0.00 | 82 | 1010.4 |
| 20260507061001 | 49 | 222 | 8.0 | 16.0 | 0.00 | 0.01 | 0.00 | 82 | 1010.4 |
| 20260507060957 | 49 | 238 | 8.0 | 16.0 | 0.00 | 0.01 | 0.00 | 82 | 1010.4 |
| 20260507060857 | 49 | 202 | 8.0 | 16.0 | 0.00 | 0.01 | 0.00 | 82 | 1010.4 |
| 20260507060758 | 49 | 251 | 8.0 | 16.0 | 0.00 | 0.01 | 0.00 | 82 | 1010.4 |
| 20260507060656 | 49 | 249 | 8.0 | 16.0 | 0.00 | 0.01 | 0.00 | 82 | 1010.4 |
| 20260507060551 | 49 | 239 | 8.0 | 16.0 | 0.00 | 0.01 | 0.00 | 82 | 1010.5 |
| 20260507060502 | 49 | 269 | 8.0 | 16.0 | 0.00 | 0.01 | 0.00 | 82 | 1010.5 |
| 20260507060451 | 49 | 266 | 7.0 | 16.0 | 0.00 | 0.01 | 0.00 | 82 | 1010.5 |
| 20260507060351 | 49 | 247 | 7.0 | 16.0 | 0.00 | 0.01 | 0.00 | 82 | 1010.4 |
| 20260507060251 | 49 | 254 | 7.0 | 19.0 | 0.00 | 0.01 | 0.00 | 82 | 1010.2 |
| 20260507060151 | 49 | 240 | 7.0 | 19.0 | 0.00 | 0.01 | 0.00 | 82 | 1010.2 |
| 20260507060047 | 49 | 242 | 7.0 | 19.0 | 0.00 | 0.01 | 0.00 | 82 | 1010.2 |
| 20260507060001 | 49 | 244 | 7.0 | 19.0 | 0.00 | 0.01 | 0.00 | 82 | 1010.2 |
| 20260507055947 | 49 | 272 | 8.0 | 19.0 | 0.00 | 0.01 | 0.00 | 82 | 1010.1 |
| 20260507055848 | 49 | 277 | 7.0 | 19.0 | 0.00 | 0.01 | 0.00 | 82 | 1010.1 |
| 20260507055746 | 49 | 243 | 7.0 | 19.0 | 0.00 | 0.01 | 0.00 | 82 | 1010.1 |
| 20260507055644 | 49 | 260 | 7.0 | 19.0 | 0.00 | 0.01 | 0.00 | 82 | 1010.1 |
| 20260507055539 | 49 | 260 | 7.0 | 19.0 | 0.00 | 0.01 | 0.00 | 82 | 1010.1 |
| 20260507055500 | 49 | 229 | 7.0 | 19.0 | 0.00 | 0.01 | 0.00 | 82 | 1010.1 |
| 20260507055439 | 49 | 228 | 7.0 | 19.0 | 0.00 | 0.01 | 0.00 | 82 | 1010.1 |
| 20260507055339 | 49 | 223 | 7.0 | 19.0 | 0.00 | 0.01 | 0.00 | 82 | 1010.4 |
| 20260507055240 | 49 | 263 | 7.0 | 14.0 | 0.00 | 0.01 | 0.00 | 82 | 1010.1 |
| 20260507055138 | 49 | 289 | 7.0 | 14.0 | 0.00 | 0.01 | 0.00 | 82 | 1010.0 |
| 20260507055039 | 49 | 238 | 7.0 | 14.0 | 0.00 | 0.01 | 0.00 | 82 | 1010.2 |
| 20260507055003 | 49 | 275 | 7.0 | 14.0 | 0.00 | 0.01 | 0.00 | 82 | 1010.2 |
| 20260507054939 | 49 | 266 | 7.0 | 14.0 | 0.00 | 0.01 | 0.00 | 82 | 1010.1 |
| 20260507054839 | 49 | 210 | 7.0 | 14.0 | 0.00 | 0.01 | 0.00 | 82 | 1010.1 |
| 20260507054739 | 49 | 250 | 7.0 | 14.0 | 0.00 | 0.01 | 0.00 | 82 | 1010.0 |
| 20260507054639 | 49 | 242 | 8.0 | 14.0 | 0.00 | 0.01 | 0.00 | 83 | 1010.0 |
| 20260507054539 | 49 | 261 | 8.0 | 15.0 | 0.00 | 0.01 | 0.00 | 83 | 1010.0 |
| 20260507054502 | 49 | 240 | 8.0 | 15.0 | 0.00 | 0.01 | 0.00 | 83 | 1010.0 |
| 20260507054439 | 49 | 220 | 8.0 | 15.0 | 0.00 | 0.01 | 0.00 | 83 | 1010.1 |
| 20260507054339 | 49 | 234 | 8.0 | 15.0 | 0.00 | 0.01 | 0.00 | 82 | 1010.1 |
| 20260507054237 | 49 | 261 | 8.0 | 15.0 | 0.00 | 0.01 | 0.00 | 82 | 1010.1 |
| 20260507054137 | 49 | 282 | 8.0 | 15.0 | 0.00 | 0.01 | 0.00 | 82 | 1010.0 |
| 20260507054037 | 49 | 215 | 7.0 | 15.0 | 0.00 | 0.01 | 0.00 | 82 | 1010.0 |
| 20260507054001 | 49 | 238 | 7.0 | 15.0 | 0.00 | 0.01 | 0.00 | 82 | 1010.0 |
| 20260507053937 | 49 | 299 | 7.0 | 15.0 | 0.00 | 0.01 | 0.00 | 83 | 1010.0 |
| 20260507053838 | 49 | 252 | 7.0 | 15.0 | 0.00 | 0.01 | 0.00 | 83 | 1009.9 |
| 20260507053637 | 49 | 246 | 6.0 | 15.0 | 0.00 | 0.01 | 0.00 | 83 | 1010.0 |
| 20260507053537 | 49 | 257 | 6.0 | 13.0 | 0.00 | 0.01 | 0.00 | 83 | 1010.0 |
| 20260507053500 | 49 | 286 | 6.0 | 13.0 | 0.00 | 0.01 | 0.00 | 83 | 1010.0 |
| 20260507053436 | 49 | 265 | 6.0 | 13.0 | 0.00 | 0.01 | 0.00 | 83 | 1009.9 |
| 20260507053331 | 49 | 274 | 5.0 | 13.0 | 0.00 | 0.01 | 0.00 | 83 | 1009.9 |
| 20260507053231 | 49 | 232 | 5.0 | 12.0 | 0.00 | 0.01 | 0.00 | 83 | 1009.8 |
| 20260507053131 | 49 | 269 | 5.0 | 12.0 | 0.00 | 0.01 | 0.00 | 83 | 1009.8 |
| 20260507053031 | 49 | 255 | 6.0 | 12.0 | 0.00 | 0.01 | 0.00 | 83 | 1009.9 |
| 20260507053001 | 49 | 263 | 6.0 | 12.0 | 0.00 | 0.01 | 0.00 | 83 | 1009.9 |
| 20260507052930 | 48 | 227 | 5.0 | 12.0 | 0.00 | 0.01 | 0.00 | 83 | 1009.8 |
| 20260507052831 | 48 | 238 | 5.0 | 12.0 | 0.00 | 0.01 | 0.00 | 83 | 1009.8 |
| 20260507052731 | 48 | 234 | 5.0 | 12.0 | 0.00 | 0.01 | 0.00 | 83 | 1009.8 |
| 20260507052631 | 48 | 266 | 5.0 | 12.0 | 0.00 | 0.01 | 0.00 | 83 | 1009.8 |
| 20260507052531 | 48 | 229 | 5.0 | 12.0 | 0.00 | 0.01 | 0.00 | 83 | 1009.8 |
| 20260507052501 | 48 | 242 | 5.0 | 12.0 | 0.00 | 0.01 | 0.00 | 83 | 1009.8 |
| 20260507052431 | 48 | 255 | 5.0 | 12.0 | 0.00 | 0.01 | 0.00 | 83 | 1009.7 |
| 20260507052331 | 48 | 250 | 5.0 | 12.0 | 0.00 | 0.01 | 0.00 | 83 | 1009.7 |
| 20260507052231 | 48 | 228 | 5.0 | 10.0 | 0.00 | 0.01 | 0.00 | 83 | 1009.8 |
| 20260507052129 | 48 | 231 | 5.0 | 10.0 | 0.00 | 0.01 | 0.00 | 83 | 1009.7 |
| 20260507052029 | 48 | 262 | 5.0 | 10.0 | 0.00 | 0.01 | 0.00 | 83 | 1009.7 |
| 20260507052001 | 48 | 237 | 5.0 | 10.0 | 0.00 | 0.01 | 0.00 | 83 | 1009.7 |
| 20260507051929 | 48 | 263 | 5.0 | 10.0 | 0.00 | 0.01 | 0.00 | 83 | 1009.7 |
| 20260507051829 | 48 | 263 | 5.0 | 10.0 | 0.00 | 0.01 | 0.00 | 83 | 1009.7 |
| 20260507051729 | 48 | 230 | 5.0 | 10.0 | 0.00 | 0.01 | 0.00 | 83 | 1009.7 |
| 20260507051629 | 48 | 270 | 5.0 | 10.0 | 0.00 | 0.01 | 0.00 | 83 | 1009.7 |
| 20260507051529 | 48 | 234 | 5.0 | 10.0 | 0.00 | 0.01 | 0.00 | 83 | 1009.7 |
| 20260507051501 | 48 | 257 | 5.0 | 10.0 | 0.00 | 0.01 | 0.00 | 83 | 1009.7 |
| 20260507051429 | 48 | 252 | 5.0 | 10.0 | 0.00 | 0.01 | 0.00 | 83 | 1009.7 |
| 20260507051329 | 48 | 243 | 4.0 | 9.0 | 0.00 | 0.01 | 0.00 | 83 | 1009.6 |
| 20260507051129 | 48 | 267 | 4.0 | 9.0 | 0.00 | 0.01 | 0.00 | 83 | 1009.7 |
| 20260507051029 | 48 | 223 | 4.0 | 9.0 | 0.00 | 0.01 | 0.00 | 84 | 1009.7 |
| 20260507051003 | 48 | 256 | 4.0 | 9.0 | 0.00 | 0.01 | 0.00 | 84 | 1009.7 |
| 20260507050929 | 48 | 283 | 5.0 | 9.0 | 0.00 | 0.01 | 0.00 | 84 | 1009.6 |
| 20260507050829 | 48 | 219 | 5.0 | 9.0 | 0.00 | 0.01 | 0.00 | 84 | 1009.7 |
| 20260507050728 | 48 | 260 | 5.0 | 9.0 | 0.00 | 0.01 | 0.00 | 84 | 1009.6 |
| 20260507050629 | 48 | 246 | 5.0 | 9.0 | 0.00 | 0.01 | 0.00 | 83 | 1009.7 |
| 20260507050529 | 48 | 267 | 5.0 | 9.0 | 0.00 | 0.01 | 0.00 | 84 | 1009.6 |
| 20260507050501 | 48 | 240 | 5.0 | 9.0 | 0.00 | 0.01 | 0.00 | 84 | 1009.6 |
| 20260507050429 | 48 | 241 | 4.0 | 9.0 | 0.00 | 0.01 | 0.00 | 83 | 1009.6 |
| 20260507050328 | 48 | 248 | 5.0 | 9.0 | 0.00 | 0.01 | 0.00 | 84 | 1009.6 |
| 20260507050228 | 48 | 229 | 5.0 | 9.0 | 0.00 | 0.01 | 0.00 | 84 | 1009.6 |
| 20260507050129 | 48 | 259 | 5.0 | 9.0 | 0.00 | 0.01 | 0.00 | 84 | 1009.6 |
| 20260507050029 | 48 | 240 | 4.0 | 9.0 | 0.00 | 0.01 | 0.00 | 84 | 1009.6 |
| 20260507050000 | 47 | 250 | 4.0 | 9.0 | 0.00 | 0.01 | 0.00 | 84 | 1009.6 |
| 20260507045928 | 48 | 253 | 4.0 | 9.0 | 0.00 | 0.01 | 0.00 | 84 | 1009.6 |
| 20260507045828 | 47 | 254 | 4.0 | 9.0 | 0.00 | 0.01 | 0.00 | 84 | 1009.6 |
| 20260507045728 | 47 | 263 | 4.0 | 9.0 | 0.00 | 0.01 | 0.00 | 84 | 1009.6 |
| 20260507045628 | 47 | 219 | 4.0 | 9.0 | 0.00 | 0.01 | 0.00 | 84 | 1009.6 |
| 20260507045528 | 47 | 273 | 4.0 | 8.0 | 0.00 | 0.01 | 0.00 | 84 | 1009.5 |
| 20260507045503 | 47 | 254 | 4.0 | 8.0 | 0.00 | 0.01 | 0.00 | 84 | 1009.5 |
| 20260507045428 | 47 | 205 | 4.0 | 8.0 | 0.00 | 0.01 | 0.00 | 84 | 1009.5 |
| 20260507045328 | 47 | 265 | 4.0 | 8.0 | 0.00 | 0.01 | 0.00 | 84 | 1009.5 |
| 20260507045229 | 47 | 213 | 4.0 | 8.0 | 0.00 | 0.01 | 0.00 | 84 | 1009.5 |
| 20260507045128 | 47 | 213 | 4.0 | 8.0 | 0.00 | 0.01 | 0.00 | 84 | 1009.5 |
| 20260507045029 | 47 | 234 | 4.0 | 8.0 | 0.00 | 0.01 | 0.00 | 84 | 1009.5 |
| 20260507045001 | 47 | 238 | 4.0 | 8.0 | 0.00 | 0.01 | 0.00 | 84 | 1009.5 |
| 20260507044929 | 47 | 267 | 3.0 | 8.0 | 0.00 | 0.01 | 0.00 | 85 | 1009.5 |
| 20260507044829 | 47 | 261 | 3.0 | 7.0 | 0.00 | 0.01 | 0.00 | 85 | 1009.6 |
| 20260507044729 | 47 | 229 | 3.0 | 6.0 | 0.00 | 0.01 | 0.00 | 85 | 1009.5 |
| 20260507044629 | 47 | 234 | 3.0 | 6.0 | 0.00 | 0.01 | 0.00 | 85 | 1009.5 |
| 20260507044529 | 47 | 225 | 2.0 | 6.0 | 0.00 | 0.01 | 0.00 | 85 | 1009.5 |
| 20260507044501 | 47 | 215 | 2.0 | 6.0 | 0.00 | 0.01 | 0.00 | 85 | 1009.5 |
| 20260507044429 | 47 | 214 | 2.0 | 6.0 | 0.00 | 0.01 | 0.00 | 85 | 1009.5 |
| 20260507044328 | 47 | 232 | 2.0 | 6.0 | 0.00 | 0.01 | 0.00 | 84 | 1009.4 |
| 20260507044232 | 47 | 231 | 2.0 | 6.0 | 0.00 | 0.01 | 0.00 | 85 | 1009.4 |
| 20260507044228 | 47 | 217 | 2.0 | 7.0 | 0.00 | 0.01 | 0.00 | 85 | 1009.4 |
| 20260507044218 | 47 | 219 | 2.0 | 6.0 | 0.00 | 0.01 | 0.00 | 85 | 1009.4 |
| 20260507044214 | 47 | 217 | 2.0 | 5.0 | 0.00 | 0.01 | 0.00 | 85 | 1009.4 |
| 20260507043929 | 47 | 217 | 2.0 | 7.0 | 0.00 | 0.01 | 0.00 | 85 | 1009.4 |
| 20260507043829 | 47 | 217 | 2.0 | 7.0 | 0.00 | 0.01 | 0.00 | 85 | 1009.4 |
| 20260507043729 | 47 | 217 | 2.0 | 7.0 | 0.00 | 0.01 | 0.00 | 85 | 1009.3 |
| 20260507043628 | 47 | 217 | 2.0 | 7.0 | 0.00 | 0.01 | 0.00 | 85 | 1009.4 |
| 20260507043528 | 47 | 217 | 3.0 | 7.0 | 0.00 | 0.01 | 0.00 | 85 | 1009.4 |
| 20260507043501 | 47 | 217 | 3.0 | 7.0 | 0.00 | 0.01 | 0.00 | 85 | 1009.3 |
| 20260507043428 | 47 | 216 | 3.0 | 7.0 | 0.00 | 0.01 | 0.00 | 85 | 1009.3 |
| 20260507043329 | 47 | 216 | 3.0 | 7.0 | 0.00 | 0.01 | 0.00 | 85 | 1009.3 |
| 20260507043231 | 47 | 216 | 3.0 | 7.0 | 0.00 | 0.01 | 0.00 | 85 | 1009.3 |
| 20260507043227 | 47 | 218 | 3.0 | 6.0 | 0.00 | 0.01 | 0.00 | 85 | 1009.3 |
| 20260507043216 | 47 | 232 | 3.0 | 7.0 | 0.00 | 0.01 | 0.00 | 85 | 1009.3 |
| 20260507043212 | 47 | 221 | 3.0 | 7.0 | 0.00 | 0.01 | 0.00 | 85 | 1009.3 |
| 20260507042929 | 47 | 236 | 2.0 | 6.0 | 0.00 | 0.01 | 0.00 | 85 | 1009.3 |
| 20260507042828 | 47 | 246 | 3.0 | 5.0 | 0.00 | 0.01 | 0.00 | 85 | 1009.3 |
| 20260507042728 | 47 | 234 | 3.0 | 5.0 | 0.00 | 0.01 | 0.00 | 84 | 1009.3 |
| 20260507042632 | 47 | 234 | 3.0 | 5.0 | 0.00 | 0.01 | 0.00 | 84 | 1009.3 |
| 20260507042529 | 47 | 233 | 3.0 | 6.0 | 0.00 | 0.01 | 0.00 | 84 | 1009.3 |
| 20260507042500 | 47 | 215 | 3.0 | 6.0 | 0.00 | 0.01 | 0.00 | 84 | 1009.3 |
| 20260507042429 | 47 | 242 | 3.0 | 6.0 | 0.00 | 0.01 | 0.00 | 84 | 1009.2 |
| 20260507042329 | 47 | 221 | 3.0 | 6.0 | 0.00 | 0.01 | 0.00 | 84 | 1009.3 |
| 20260507042229 | 47 | 236 | 3.0 | 6.0 | 0.00 | 0.01 | 0.00 | 84 | 1009.2 |
| 20260507042130 | 47 | 236 | 3.0 | 6.0 | 0.00 | 0.01 | 0.00 | 84 | 1009.2 |
| 20260507042001 | 47 | 236 | 3.0 | 6.0 | 0.00 | 0.01 | 0.00 | 84 | 1009.2 |
| 20260507041929 | 47 | 235 | 3.0 | 6.0 | 0.00 | 0.01 | 0.00 | 84 | 1009.2 |
| 20260507041829 | 47 | 225 | 3.0 | 6.0 | 0.00 | 0.01 | 0.00 | 84 | 1009.1 |
| 20260507041729 | 47 | 232 | 3.0 | 6.0 | 0.00 | 0.01 | 0.00 | 84 | 1009.1 |
| 20260507041629 | 47 | 225 | 3.0 | 6.0 | 0.00 | 0.01 | 0.00 | 84 | 1009.1 |
| 20260507041529 | 47 | 244 | 3.0 | 6.0 | 0.00 | 0.01 | 0.00 | 84 | 1009.1 |
| 20260507041503 | 47 | 252 | 3.0 | 6.0 | 0.00 | 0.01 | 0.00 | 84 | 1009.1 |
| 20260507041429 | 47 | 252 | 3.0 | 6.0 | 0.00 | 0.01 | 0.00 | 84 | 1009.1 |
| 20260507041330 | 47 | 250 | 3.0 | 6.0 | 0.00 | 0.01 | 0.00 | 84 | 1009.1 |
| 20260507041228 | 47 | 225 | 3.0 | 6.0 | 0.00 | 0.01 | 0.00 | 84 | 1009.1 |
| 20260507041129 | 47 | 215 | 3.0 | 6.0 | 0.00 | 0.01 | 0.00 | 84 | 1009.0 |
| 20260507041029 | 47 | 266 | 3.0 | 6.0 | 0.00 | 0.01 | 0.00 | 84 | 1009.0 |
| 20260507041003 | 47 | 269 | 3.0 | 7.0 | 0.00 | 0.01 | 0.00 | 84 | 1009.0 |
| 20260507040929 | 47 | 269 | 3.0 | 7.0 | 0.00 | 0.01 | 0.00 | 84 | 1009.0 |
| 20260507040828 | 47 | 250 | 3.0 | 7.0 | 0.00 | 0.01 | 0.00 | 84 | 1009.0 |
| 20260507040728 | 47 | 263 | 3.0 | 7.0 | 0.00 | 0.01 | 0.00 | 84 | 1009.0 |
| 20260507040629 | 47 | 253 | 4.0 | 7.0 | 0.00 | 0.01 | 0.00 | 84 | 1009.0 |
| 20260507040529 | 47 | 221 | 4.0 | 9.0 | 0.00 | 0.01 | 0.00 | 84 | 1009.0 |
| 20260507040500 | 47 | 238 | 4.0 | 9.0 | 0.00 | 0.01 | 0.00 | 83 | 1009.0 |
| 20260507040429 | 47 | 238 | 4.0 | 9.0 | 0.00 | 0.01 | 0.00 | 83 | 1009.0 |
| 20260507040229 | 47 | 225 | 5.0 | 9.0 | 0.00 | 0.01 | 0.00 | 83 | 1009.0 |
| 20260507040128 | 47 | 240 | 5.0 | 10.0 | 0.00 | 0.01 | 0.00 | 83 | 1009.0 |
| 20260507040028 | 47 | 250 | 5.0 | 10.0 | 0.00 | 0.01 | 0.00 | 83 | 1009.0 |
| 20260507040001 | 47 | 258 | 5.0 | 10.0 | 0.00 | 0.01 | 0.00 | 83 | 1009.0 |
| 20260507035929 | 47 | 240 | 5.0 | 10.0 | 0.00 | 0.01 | 0.00 | 83 | 1009.0 |
| 20260507035829 | 47 | 238 | 5.0 | 10.0 | 0.00 | 0.01 | 0.00 | 83 | 1009.0 |
| 20260507035729 | 47 | 273 | 5.0 | 10.0 | 0.00 | 0.01 | 0.00 | 83 | 1009.0 |
| 20260507035629 | 47 | 252 | 5.0 | 10.0 | 0.00 | 0.01 | 0.00 | 83 | 1009.0 |
| 20260507035528 | 47 | 265 | 5.0 | 10.0 | 0.00 | 0.01 | 0.00 | 83 | 1009.0 |
| 20260507035501 | 47 | 254 | 5.0 | 10.0 | 0.00 | 0.01 | 0.00 | 83 | 1009.0 |
| 20260507035428 | 47 | 277 | 5.0 | 10.0 | 0.00 | 0.01 | 0.00 | 83 | 1008.9 |
| 20260507035329 | 47 | 250 | 5.0 | 10.0 | 0.00 | 0.01 | 0.00 | 83 | 1009.0 |
| 20260507035229 | 47 | 257 | 5.0 | 10.0 | 0.00 | 0.01 | 0.00 | 83 | 1009.1 |
| 20260507035129 | 47 | 268 | 5.0 | 10.0 | 0.00 | 0.01 | 0.00 | 83 | 1009.0 |
| 20260507035028 | 47 | 249 | 5.0 | 10.0 | 0.00 | 0.01 | 0.00 | 83 | 1009.0 |
| 20260507035001 | 47 | 273 | 5.0 | 10.0 | 0.00 | 0.01 | 0.00 | 83 | 1009.0 |
| 20260507034929 | 47 | 248 | 5.0 | 10.0 | 0.00 | 0.01 | 0.00 | 83 | 1008.9 |
| 20260507034829 | 47 | 248 | 5.0 | 10.0 | 0.00 | 0.01 | 0.00 | 83 | 1009.0 |
| 20260507034729 | 47 | 271 | 5.0 | 10.0 | 0.00 | 0.01 | 0.00 | 83 | 1009.0 |
| 20260507034629 | 47 | 269 | 5.0 | 10.0 | 0.00 | 0.01 | 0.00 | 83 | 1008.9 |
| 20260507034529 | 47 | 232 | 5.0 | 10.0 | 0.00 | 0.01 | 0.00 | 83 | 1008.9 |
| 20260507034501 | 47 | 253 | 5.0 | 10.0 | 0.00 | 0.01 | 0.00 | 83 | 1008.9 |
| 20260507034429 | 47 | 307 | 5.0 | 10.0 | 0.00 | 0.01 | 0.00 | 83 | 1008.9 |
| 20260507034329 | 47 | 254 | 5.0 | 10.0 | 0.00 | 0.01 | 0.00 | 83 | 1009.0 |
| 20260507034229 | 47 | 268 | 5.0 | 9.0 | 0.00 | 0.01 | 0.00 | 83 | 1008.9 |
| 20260507034129 | 47 | 225 | 5.0 | 9.0 | 0.00 | 0.01 | 0.00 | 83 | 1008.9 |
| 20260507034029 | 47 | 269 | 4.0 | 8.0 | 0.00 | 0.01 | 0.00 | 83 | 1008.9 |
| 20260507034001 | 47 | 275 | 4.0 | 9.0 | 0.00 | 0.01 | 0.00 | 83 | 1008.9 |
| 20260507033929 | 47 | 271 | 4.0 | 9.0 | 0.00 | 0.01 | 0.00 | 83 | 1008.8 |
| 20260507033829 | 47 | 254 | 4.0 | 9.0 | 0.00 | 0.01 | 0.00 | 83 | 1008.9 |
| 20260507033729 | 47 | 235 | 4.0 | 9.0 | 0.00 | 0.01 | 0.00 | 83 | 1008.8 |
| 20260507033629 | 47 | 248 | 4.0 | 9.0 | 0.00 | 0.01 | 0.00 | 83 | 1008.8 |
| 20260507033529 | 47 | 242 | 4.0 | 9.0 | 0.00 | 0.01 | 0.00 | 83 | 1008.8 |
| 20260507033500 | 47 | 254 | 4.0 | 9.0 | 0.00 | 0.01 | 0.00 | 83 | 1008.8 |
| 20260507033429 | 47 | 263 | 4.0 | 9.0 | 0.00 | 0.01 | 0.00 | 83 | 1008.8 |
| 20260507033329 | 47 | 261 | 4.0 | 9.0 | 0.00 | 0.01 | 0.00 | 83 | 1008.8 |
| 20260507033229 | 47 | 253 | 4.0 | 9.0 | 0.00 | 0.01 | 0.00 | 83 | 1008.8 |
| 20260507033128 | 47 | 276 | 4.0 | 9.0 | 0.00 | 0.01 | 0.00 | 83 | 1008.8 |
| 20260507033029 | 48 | 257 | 4.0 | 9.0 | 0.00 | 0.01 | 0.00 | 83 | 1008.8 |
| 20260507033000 | 48 | 246 | 4.0 | 9.0 | 0.00 | 0.01 | 0.00 | 83 | 1008.8 |
| 20260507032929 | 47 | 266 | 4.0 | 9.0 | 0.00 | 0.01 | 0.00 | 83 | 1008.8 |
| 20260507032829 | 48 | 238 | 4.0 | 10.0 | 0.00 | 0.01 | 0.00 | 83 | 1008.7 |
| 20260507032729 | 48 | 284 | 5.0 | 10.0 | 0.00 | 0.01 | 0.00 | 83 | 1008.7 |
| 20260507032629 | 47 | 238 | 5.0 | 10.0 | 0.00 | 0.01 | 0.00 | 83 | 1008.8 |
| 20260507032529 | 48 | 265 | 5.0 | 10.0 | 0.00 | 0.01 | 0.00 | 83 | 1008.8 |
| 20260507032500 | 48 | 247 | 5.0 | 10.0 | 0.00 | 0.01 | 0.00 | 83 | 1008.8 |
| 20260507032429 | 47 | 254 | 5.0 | 10.0 | 0.00 | 0.01 | 0.00 | 83 | 1008.8 |
| 20260507032329 | 48 | 259 | 4.0 | 10.0 | 0.00 | 0.01 | 0.00 | 83 | 1008.8 |
| 20260507032228 | 48 | 275 | 5.0 | 10.0 | 0.00 | 0.01 | 0.00 | 83 | 1008.8 |
| 20260507032223 | 48 | 235 | 5.0 | 10.0 | 0.00 | 0.01 | 0.00 | 83 | 1008.8 |
| 20260507032219 | 48 | 264 | 5.0 | 10.0 | 0.00 | 0.01 | 0.00 | 83 | 1008.7 |
| 20260507032211 | 48 | 231 | 5.0 | 10.0 | 0.00 | 0.01 | 0.00 | 83 | 1008.8 |
| 20260507031929 | 48 | 274 | 5.0 | 10.0 | 0.00 | 0.01 | 0.00 | 83 | 1008.8 |
| 20260507031829 | 48 | 244 | 5.0 | 9.0 | 0.00 | 0.01 | 0.00 | 83 | 1008.8 |
| 20260507031729 | 48 | 259 | 4.0 | 9.0 | 0.00 | 0.01 | 0.00 | 83 | 1008.8 |
| 20260507031629 | 47 | 240 | 4.0 | 8.0 | 0.00 | 0.01 | 0.00 | 83 | 1008.8 |
| 20260507031529 | 48 | 240 | 4.0 | 8.0 | 0.00 | 0.01 | 0.00 | 83 | 1008.8 |
| 20260507031501 | 47 | 260 | 4.0 | 8.0 | 0.00 | 0.01 | 0.00 | 83 | 1008.8 |
| 20260507031429 | 48 | 252 | 4.0 | 8.0 | 0.00 | 0.01 | 0.00 | 83 | 1008.8 |
| 20260507031329 | 47 | 257 | 4.0 | 8.0 | 0.00 | 0.01 | 0.00 | 83 | 1008.8 |
| 20260507031228 | 47 | 253 | 4.0 | 8.0 | 0.00 | 0.01 | 0.00 | 83 | 1008.8 |
| 20260507031128 | 47 | 219 | 4.0 | 9.0 | 0.00 | 0.01 | 0.00 | 83 | 1008.8 |
| 20260507031029 | 47 | 233 | 4.0 | 9.0 | 0.00 | 0.01 | 0.00 | 83 | 1008.8 |
| 20260507031001 | 47 | 250 | 4.0 | 9.0 | 0.00 | 0.01 | 0.00 | 83 | 1008.7 |
| 20260507030928 | 48 | 247 | 4.0 | 9.0 | 0.00 | 0.01 | 0.00 | 83 | 1008.7 |
| 20260507030828 | 48 | 233 | 4.0 | 9.0 | 0.00 | 0.01 | 0.00 | 83 | 1008.8 |
| 20260507030729 | 47 | 253 | 4.0 | 9.0 | 0.00 | 0.01 | 0.00 | 83 | 1008.7 |
| 20260507030629 | 47 | 228 | 4.0 | 9.0 | 0.00 | 0.01 | 0.00 | 83 | 1008.8 |
| 20260507030529 | 47 | 223 | 4.0 | 10.0 | 0.00 | 0.01 | 0.00 | 83 | 1008.8 |
| 20260507030440 | 47 | 232 | 4.0 | 10.0 | 0.00 | 0.01 | 0.00 | 83 | 1008.7 |
| 20260507030432 | 47 | 228 | 4.0 | 10.0 | 0.00 | 0.01 | 0.00 | 83 | 1008.8 |
| 20260507030428 | 47 | 267 | 4.0 | 10.0 | 0.00 | 0.01 | 0.00 | 83 | 1008.7 |
| 20260507030424 | 47 | 273 | 4.0 | 10.0 | 0.00 | 0.01 | 0.00 | 83 | 1008.8 |
| 20260507030209 | 47 | 221 | 4.0 | 10.0 | 0.00 | 0.01 | 0.00 | 83 | 1008.8 |
| 20260507030205 | 47 | 223 | 4.0 | 10.0 | 0.00 | 0.01 | 0.00 | 83 | 1008.7 |
| 20260507025929 | 47 | 246 | 4.0 | 10.0 | 0.00 | 0.01 | 0.00 | 83 | 1008.7 |
| 20260507025829 | 47 | 276 | 4.0 | 10.0 | 0.00 | 0.01 | 0.00 | 83 | 1008.7 |
| 20260507025729 | 47 | 243 | 4.0 | 10.0 | 0.00 | 0.01 | 0.00 | 83 | 1008.7 |
| 20260507025629 | 47 | 242 | 4.0 | 10.0 | 0.00 | 0.01 | 0.00 | 83 | 1008.8 |
| 20260507025531 | 47 | 211 | 4.0 | 10.0 | 0.00 | 0.01 | 0.00 | 83 | 1008.7 |
| 20260507025445 | 47 | 215 | 4.0 | 10.0 | 0.00 | 0.01 | 0.00 | 83 | 1008.7 |
| 20260507025429 | 47 | 243 | 4.0 | 10.0 | 0.00 | 0.01 | 0.00 | 83 | 1008.7 |
| 20260507025328 | 47 | 262 | 5.0 | 10.0 | 0.00 | 0.01 | 0.00 | 83 | 1008.7 |
| 20260507025228 | 47 | 270 | 5.0 | 10.0 | 0.00 | 0.01 | 0.00 | 83 | 1008.7 |
| 20260507025128 | 47 | 248 | 4.0 | 10.0 | 0.00 | 0.01 | 0.00 | 83 | 1008.8 |
| 20260507025029 | 47 | 237 | 4.0 | 10.0 | 0.00 | 0.01 | 0.00 | 83 | 1008.7 |
| 20260507024938 | 47 | 252 | 4.0 | 10.0 | 0.00 | 0.01 | 0.00 | 83 | 1008.7 |
| 20260507024929 | 47 | 215 | 4.0 | 10.0 | 0.00 | 0.01 | 0.00 | 83 | 1008.7 |
| 20260507024829 | 47 | 259 | 4.0 | 10.0 | 0.00 | 0.01 | 0.00 | 83 | 1008.7 |
| 20260507024729 | 47 | 300 | 4.0 | 9.0 | 0.00 | 0.01 | 0.00 | 83 | 1008.7 |
| 20260507024629 | 47 | 259 | 4.0 | 9.0 | 0.00 | 0.01 | 0.00 | 83 | 1008.7 |
| 20260507024529 | 47 | 246 | 4.0 | 9.0 | 0.00 | 0.01 | 0.00 | 83 | 1008.7 |
| 20260507024429 | 47 | 263 | 4.0 | 9.0 | 0.00 | 0.01 | 0.00 | 83 | 1008.8 |
| 20260507024423 | 47 | 267 | 5.0 | 10.0 | 0.00 | 0.01 | 0.00 | 83 | 1008.7 |
| 20260507024414 | 47 | 271 | 5.0 | 10.0 | 0.00 | 0.01 | 0.00 | 83 | 1008.8 |
| 20260507024410 | 47 | 231 | 5.0 | 10.0 | 0.00 | 0.01 | 0.00 | 83 | 1008.7 |
| 20260507024152 | 47 | 223 | 5.0 | 10.0 | 0.00 | 0.01 | 0.00 | 83 | 1008.7 |
| 20260507024148 | 47 | 217 | 5.0 | 10.0 | 0.00 | 0.01 | 0.00 | 83 | 1008.7 |
| 20260507023928 | 47 | 272 | 5.0 | 10.0 | 0.00 | 0.01 | 0.00 | 83 | 1008.7 |
| 20260507023828 | 47 | 273 | 5.0 | 10.0 | 0.00 | 0.01 | 0.00 | 83 | 1008.7 |
| 20260507023629 | 47 | 267 | 5.0 | 10.0 | 0.00 | 0.01 | 0.00 | 83 | 1008.7 |
| 20260507023529 | 47 | 254 | 5.0 | 10.0 | 0.00 | 0.01 | 0.00 | 83 | 1008.8 |
| 20260507023433 | 47 | 255 | 5.0 | 10.0 | 0.00 | 0.01 | 0.00 | 83 | 1008.8 |
| 20260507023429 | 47 | 269 | 5.0 | 10.0 | 0.00 | 0.01 | 0.00 | 83 | 1008.8 |
| 20260507023419 | 47 | 265 | 5.0 | 12.0 | 0.00 | 0.01 | 0.00 | 83 | 1008.7 |
| 20260507023410 | 47 | 249 | 5.0 | 12.0 | 0.00 | 0.01 | 0.00 | 83 | 1008.7 |
| 20260507023152 | 47 | 256 | 5.0 | 12.0 | 0.00 | 0.01 | 0.00 | 83 | 1008.7 |
| 20260507023148 | 47 | 263 | 5.0 | 12.0 | 0.00 | 0.01 | 0.00 | 83 | 1008.7 |
| 20260507022929 | 47 | 234 | 5.0 | 12.0 | 0.00 | 0.01 | 0.00 | 83 | 1008.7 |
| 20260507022829 | 47 | 263 | 5.0 | 12.0 | 0.00 | 0.01 | 0.00 | 83 | 1008.8 |
| 20260507022729 | 47 | 255 | 5.0 | 12.0 | 0.00 | 0.01 | 0.00 | 83 | 1008.7 |
| 20260507022628 | 47 | 265 | 5.0 | 12.0 | 0.00 | 0.01 | 0.00 | 84 | 1008.7 |
| 20260507022528 | 47 | 261 | 5.0 | 12.0 | 0.00 | 0.01 | 0.00 | 83 | 1008.7 |
| 20260507022432 | 47 | 261 | 5.0 | 12.0 | 0.00 | 0.01 | 0.00 | 83 | 1008.7 |
| 20260507022428 | 47 | 243 | 5.0 | 12.0 | 0.00 | 0.01 | 0.00 | 83 | 1008.7 |
| 20260507022329 | 47 | 248 | 5.0 | 12.0 | 0.00 | 0.01 | 0.00 | 84 | 1008.7 |
| 20260507022229 | 47 | 238 | 5.0 | 11.0 | 0.00 | 0.01 | 0.00 | 84 | 1008.7 |
| 20260507022129 | 47 | 241 | 5.0 | 11.0 | 0.00 | 0.01 | 0.00 | 84 | 1008.7 |
| 20260507022029 | 47 | 263 | 5.0 | 11.0 | 0.00 | 0.01 | 0.00 | 84 | 1008.8 |
| 20260507021933 | 47 | 241 | 5.0 | 11.0 | 0.00 | 0.01 | 0.00 | 84 | 1008.7 |
| 20260507021929 | 47 | 252 | 5.0 | 11.0 | 0.00 | 0.01 | 0.00 | 84 | 1008.7 |
| 20260507021829 | 47 | 236 | 5.0 | 10.0 | 0.00 | 0.01 | 0.00 | 85 | 1008.7 |
| 20260507021729 | 47 | 214 | 5.0 | 10.0 | 0.00 | 0.01 | 0.00 | 85 | 1008.7 |
| 20260507021629 | 47 | 275 | 5.0 | 10.0 | 0.00 | 0.01 | 0.00 | 85 | 1008.7 |
| 20260507021529 | 47 | 265 | 4.0 | 10.0 | 0.00 | 0.01 | 0.00 | 85 | 1008.7 |
| 20260507021433 | 47 | 241 | 4.0 | 10.0 | 0.00 | 0.01 | 0.00 | 85 | 1008.6 |
| 20260507021429 | 47 | 263 | 4.0 | 10.0 | 0.00 | 0.01 | 0.00 | 85 | 1008.6 |
| 20260507021329 | 47 | 266 | 4.0 | 10.0 | 0.00 | 0.01 | 0.00 | 85 | 1008.7 |
| 20260507021229 | 47 | 236 | 4.0 | 10.0 | 0.00 | 0.01 | 0.00 | 85 | 1008.7 |
| 20260507021128 | 47 | 267 | 4.0 | 10.0 | 0.00 | 0.01 | 0.00 | 85 | 1008.6 |
| 20260507021028 | 47 | 240 | 4.0 | 9.0 | 0.00 | 0.01 | 0.00 | 85 | 1008.6 |
| 20260507020929 | 47 | 269 | 4.0 | 9.0 | 0.00 | 0.01 | 0.00 | 85 | 1008.6 |
| 20260507020829 | 47 | 267 | 4.0 | 9.0 | 0.00 | 0.01 | 0.00 | 85 | 1008.4 |
| 20260507020729 | 47 | 258 | 4.0 | 9.0 | 0.00 | 0.01 | 0.00 | 85 | 1008.4 |
| 20260507020629 | 47 | 229 | 4.0 | 9.0 | 0.00 | 0.01 | 0.00 | 85 | 1008.4 |
| 20260507020529 | 47 | 248 | 4.0 | 9.0 | 0.00 | 0.01 | 0.00 | 85 | 1008.4 |
| 20260507020433 | 47 | 250 | 4.0 | 9.0 | 0.00 | 0.01 | 0.00 | 85 | 1008.4 |
| 20260507020429 | 47 | 243 | 4.0 | 9.0 | 0.00 | 0.01 | 0.00 | 85 | 1008.4 |
| 20260507020329 | 47 | 248 | 3.0 | 9.0 | 0.00 | 0.01 | 0.00 | 85 | 1008.4 |
| 20260507020229 | 47 | 231 | 3.0 | 8.0 | 0.00 | 0.01 | 0.00 | 85 | 1008.3 |
| 20260507020128 | 47 | 250 | 3.0 | 8.0 | 0.00 | 0.01 | 0.00 | 85 | 1008.3 |
| 20260507020028 | 47 | 263 | 3.0 | 8.0 | 0.00 | 0.01 | 0.00 | 85 | 1008.3 |
| 20260507015928 | 47 | 254 | 4.0 | 8.0 | 0.00 | 0.01 | 0.00 | 85 | 1008.3 |
| 20260507015828 | 47 | 221 | 4.0 | 8.0 | 0.00 | 0.01 | 0.00 | 85 | 1008.4 |
| 20260507015728 | 47 | 224 | 4.0 | 8.0 | 0.00 | 0.01 | 0.00 | 85 | 1008.4 |
| 20260507015628 | 47 | 276 | 4.0 | 8.0 | 0.00 | 0.01 | 0.00 | 85 | 1008.4 |
| 20260507015528 | 47 | 278 | 4.0 | 8.0 | 0.00 | 0.01 | 0.00 | 85 | 1008.4 |
| 20260507015429 | 47 | 262 | 4.0 | 8.0 | 0.00 | 0.01 | 0.00 | 85 | 1008.4 |
| 20260507015329 | 47 | 240 | 4.0 | 8.0 | 0.00 | 0.01 | 0.00 | 85 | 1008.4 |
| 20260507015228 | 47 | 241 | 4.0 | 8.0 | 0.00 | 0.01 | 0.00 | 85 | 1008.6 |
| 20260507015128 | 47 | 286 | 4.0 | 8.0 | 0.00 | 0.01 | 0.00 | 85 | 1008.4 |
| 20260507015028 | 47 | 271 | 4.0 | 8.0 | 0.00 | 0.01 | 0.00 | 85 | 1008.4 |
| 20260507014928 | 47 | 279 | 4.0 | 8.0 | 0.00 | 0.01 | 0.00 | 85 | 1008.4 |
| 20260507014828 | 47 | 277 | 4.0 | 8.0 | 0.00 | 0.01 | 0.00 | 85 | 1008.4 |
| 20260507014729 | 47 | 274 | 3.0 | 8.0 | 0.00 | 0.01 | 0.00 | 85 | 1008.4 |
| 20260507014629 | 47 | 259 | 3.0 | 8.0 | 0.00 | 0.01 | 0.00 | 85 | 1008.4 |
| 20260507014529 | 47 | 247 | 4.0 | 8.0 | 0.00 | 0.01 | 0.00 | 85 | 1008.4 |
| 20260507014428 | 47 | 267 | 3.0 | 8.0 | 0.00 | 0.01 | 0.00 | 85 | 1008.4 |
| 20260507014329 | 47 | 231 | 3.0 | 8.0 | 0.00 | 0.01 | 0.00 | 85 | 1008.6 |
| 20260507014229 | 47 | 244 | 3.0 | 8.0 | 0.00 | 0.01 | 0.00 | 85 | 1008.4 |
| 20260507014129 | 47 | 263 | 3.0 | 8.0 | 0.00 | 0.01 | 0.00 | 85 | 1008.4 |
| 20260507014025 | 47 | 272 | 3.0 | 8.0 | 0.00 | 0.01 | 0.00 | 85 | 1008.4 |
| 20260507013923 | 47 | 272 | 3.0 | 8.0 | 0.00 | 0.01 | 0.00 | 85 | 1008.4 |
| 20260507013820 | 47 | 248 | 3.0 | 8.0 | 0.00 | 0.01 | 0.00 | 85 | 1008.4 |
| 20260507013720 | 47 | 255 | 4.0 | 8.0 | 0.00 | 0.01 | 0.00 | 85 | 1008.4 |
| 20260507013620 | 47 | 246 | 4.0 | 8.0 | 0.00 | 0.01 | 0.00 | 85 | 1008.6 |
| 20260507013514 | 47 | 267 | 4.0 | 8.0 | 0.00 | 0.01 | 0.00 | 85 | 1008.4 |
| 20260507013430 | 47 | 249 | 4.0 | 8.0 | 0.00 | 0.01 | 0.00 | 85 | 1008.4 |
| 20260507013415 | 47 | 275 | 4.0 | 8.0 | 0.00 | 0.01 | 0.00 | 85 | 1008.4 |
| 20260507013315 | 47 | 275 | 4.0 | 8.0 | 0.00 | 0.01 | 0.00 | 85 | 1008.6 |
| 20260507013215 | 47 | 265 | 4.0 | 8.0 | 0.00 | 0.01 | 0.00 | 85 | 1008.6 |
| 20260507013115 | 47 | 247 | 4.0 | 8.0 | 0.00 | 0.01 | 0.00 | 85 | 1008.6 |
| 20260507013015 | 47 | 269 | 4.0 | 8.0 | 0.00 | 0.01 | 0.00 | 85 | 1008.4 |
| 20260507012931 | 47 | 279 | 4.0 | 8.0 | 0.00 | 0.01 | 0.00 | 85 | 1008.4 |
| 20260507012912 | 47 | 267 | 4.0 | 8.0 | 0.00 | 0.01 | 0.00 | 85 | 1008.4 |
| 20260507012812 | 47 | 279 | 3.0 | 8.0 | 0.00 | 0.01 | 0.00 | 85 | 1008.4 |
| 20260507012713 | 47 | 261 | 3.0 | 8.0 | 0.00 | 0.01 | 0.00 | 85 | 1008.4 |
| 20260507012613 | 47 | 247 | 3.0 | 8.0 | 0.00 | 0.01 | 0.00 | 85 | 1008.4 |
| 20260507012513 | 47 | 263 | 3.0 | 8.0 | 0.00 | 0.01 | 0.00 | 85 | 1008.4 |
| 20260507012412 | 47 | 254 | 3.0 | 8.0 | 0.00 | 0.01 | 0.00 | 85 | 1008.4 |
| 20260507012312 | 47 | 246 | 3.0 | 7.0 | 0.00 | 0.01 | 0.00 | 85 | 1008.4 |
| 20260507012213 | 47 | 244 | 3.0 | 7.0 | 0.00 | 0.01 | 0.00 | 85 | 1008.3 |
| 20260507012112 | 47 | 242 | 3.0 | 7.0 | 0.00 | 0.01 | 0.00 | 85 | 1008.3 |
| 20260507012012 | 47 | 275 | 3.0 | 7.0 | 0.00 | 0.01 | 0.00 | 85 | 1008.4 |
| 20260507011913 | 47 | 214 | 3.0 | 7.0 | 0.00 | 0.01 | 0.00 | 85 | 1008.3 |
| 20260507011807 | 47 | 279 | 3.0 | 7.0 | 0.00 | 0.01 | 0.00 | 85 | 1008.3 |
| 20260507011707 | 47 | 266 | 3.0 | 7.0 | 0.00 | 0.01 | 0.00 | 85 | 1008.3 |
| 20260507011606 | 47 | 255 | 3.0 | 7.0 | 0.00 | 0.01 | 0.00 | 85 | 1008.3 |
| 20260507011506 | 47 | 236 | 3.0 | 7.0 | 0.00 | 0.01 | 0.00 | 85 | 1008.3 |
| 20260507011433 | 47 | 242 | 3.0 | 7.0 | 0.00 | 0.01 | 0.00 | 85 | 1008.4 |
| 20260507011407 | 47 | 252 | 3.0 | 7.0 | 0.00 | 0.01 | 0.00 | 85 | 1008.4 |
| 20260507011307 | 47 | 257 | 3.0 | 6.0 | 0.00 | 0.01 | 0.00 | 85 | 1008.3 |
| 20260507011207 | 47 | 265 | 3.0 | 6.0 | 0.00 | 0.01 | 0.00 | 85 | 1008.3 |
| 20260507011107 | 47 | 252 | 3.0 | 6.0 | 0.00 | 0.01 | 0.00 | 85 | 1008.3 |
| 20260507011006 | 47 | 258 | 3.0 | 6.0 | 0.00 | 0.01 | 0.00 | 85 | 1008.3 |
| 20260507010931 | 47 | 261 | 3.0 | 6.0 | 0.00 | 0.01 | 0.00 | 85 | 1008.3 |
| 20260507010907 | 47 | 249 | 3.0 | 6.0 | 0.00 | 0.01 | 0.00 | 85 | 1008.3 |
| 20260507010806 | 47 | 225 | 3.0 | 6.0 | 0.00 | 0.01 | 0.00 | 85 | 1008.3 |
| 20260507010706 | 47 | 248 | 3.0 | 6.0 | 0.00 | 0.01 | 0.00 | 85 | 1008.3 |
| 20260507010651 | 47 | 208 | 3.0 | 7.0 | 0.00 | 0.01 | 0.00 | 85 | 1008.2 |
| 20260507010645 | 47 | 263 | 3.0 | 6.0 | 0.00 | 0.01 | 0.00 | 85 | 1008.3 |
| 20260507010641 | 47 | 217 | 3.0 | 7.0 | 0.00 | 0.01 | 0.00 | 85 | 1008.3 |
| 20260507010403 | 47 | 250 | 3.0 | 7.0 | 0.00 | 0.01 | 0.00 | 85 | 1008.2 |
| 20260507010303 | 47 | 241 | 3.0 | 7.0 | 0.00 | 0.01 | 0.00 | 85 | 1008.3 |
| 20260507010203 | 47 | 221 | 3.0 | 7.0 | 0.00 | 0.01 | 0.00 | 85 | 1008.3 |
| 20260507010002 | 47 | 252 | 3.0 | 7.0 | 0.00 | 0.01 | 0.00 | 85 | 1008.3 |
| 20260507005902 | 47 | 234 | 3.0 | 7.0 | 0.00 | 0.01 | 0.00 | 85 | 1008.3 |
| 20260507005803 | 47 | 241 | 3.0 | 7.0 | 0.00 | 0.01 | 0.00 | 85 | 1008.3 |
| 20260507005703 | 47 | 258 | 3.0 | 7.0 | 0.00 | 0.01 | 0.00 | 85 | 1008.3 |
| 20260507005603 | 47 | 240 | 3.0 | 7.0 | 0.00 | 0.01 | 0.00 | 85 | 1008.3 |
| 20260507005502 | 47 | 254 | 3.0 | 6.0 | 0.00 | 0.01 | 0.00 | 85 | 1008.3 |
| 20260507005429 | 47 | 228 | 3.0 | 6.0 | 0.00 | 0.01 | 0.00 | 84 | 1008.3 |
| 20260507005400 | 47 | 237 | 3.0 | 6.0 | 0.00 | 0.01 | 0.00 | 84 | 1008.3 |
| 20260507005301 | 47 | 280 | 3.0 | 6.0 | 0.00 | 0.01 | 0.00 | 84 | 1008.3 |
| 20260507005201 | 47 | 246 | 3.0 | 6.0 | 0.00 | 0.01 | 0.00 | 84 | 1008.3 |
| 20260507005101 | 47 | 235 | 3.0 | 6.0 | 0.00 | 0.01 | 0.00 | 84 | 1008.3 |
| 20260507005001 | 47 | 245 | 3.0 | 6.0 | 0.00 | 0.01 | 0.00 | 84 | 1008.3 |
| 20260507004928 | 47 | 214 | 3.0 | 6.0 | 0.00 | 0.01 | 0.00 | 84 | 1008.3 |
| 20260507004901 | 47 | 236 | 3.0 | 6.0 | 0.00 | 0.01 | 0.00 | 84 | 1008.3 |
| 20260507004801 | 47 | 236 | 3.0 | 6.0 | 0.00 | 0.01 | 0.00 | 84 | 1008.4 |
| 20260507004700 | 47 | 267 | 3.0 | 7.0 | 0.00 | 0.01 | 0.00 | 84 | 1008.4 |
| 20260507004600 | 47 | 247 | 3.0 | 7.0 | 0.00 | 0.01 | 0.00 | 84 | 1008.3 |
| 20260507004500 | 47 | 221 | 3.0 | 7.0 | 0.00 | 0.01 | 0.00 | 84 | 1008.3 |
| 20260507004430 | 47 | 220 | 3.0 | 7.0 | 0.00 | 0.01 | 0.00 | 84 | 1008.3 |
| 20260507004401 | 47 | 232 | 3.0 | 7.0 | 0.00 | 0.01 | 0.00 | 84 | 1008.3 |
| 20260507004301 | 47 | 233 | 3.0 | 7.0 | 0.00 | 0.01 | 0.00 | 84 | 1008.3 |
| 20260507004201 | 47 | 229 | 3.0 | 7.0 | 0.00 | 0.01 | 0.00 | 84 | 1008.2 |
| 20260507004100 | 47 | 242 | 3.0 | 8.0 | 0.00 | 0.01 | 0.00 | 84 | 1008.2 |
| 20260507004000 | 47 | 213 | 3.0 | 8.0 | 0.00 | 0.01 | 0.00 | 84 | 1008.3 |
| 20260507003929 | 47 | 232 | 4.0 | 8.0 | 0.00 | 0.01 | 0.00 | 84 | 1008.2 |
| 20260507003900 | 47 | 252 | 4.0 | 8.0 | 0.00 | 0.01 | 0.00 | 84 | 1008.2 |
| 20260507003801 | 47 | 269 | 4.0 | 8.0 | 0.00 | 0.01 | 0.00 | 84 | 1008.2 |
| 20260507003701 | 47 | 226 | 4.0 | 8.0 | 0.00 | 0.01 | 0.00 | 84 | 1008.2 |
| 20260507003601 | 47 | 234 | 4.0 | 9.0 | 0.00 | 0.01 | 0.00 | 84 | 1008.2 |
| 20260507003501 | 47 | 275 | 4.0 | 9.0 | 0.00 | 0.01 | 0.00 | 84 | 1008.2 |
| 20260507003428 | 47 | 274 | 4.0 | 9.0 | 0.00 | 0.01 | 0.00 | 84 | 1008.2 |
| 20260507003401 | 47 | 263 | 4.0 | 9.0 | 0.00 | 0.01 | 0.00 | 84 | 1008.2 |
| 20260507003300 | 47 | 271 | 4.0 | 9.0 | 0.00 | 0.01 | 0.00 | 84 | 1008.3 |
| 20260507003200 | 47 | 264 | 4.0 | 9.0 | 0.00 | 0.01 | 0.00 | 84 | 1008.3 |
| 20260507003100 | 47 | 261 | 4.0 | 9.0 | 0.00 | 0.01 | 0.00 | 84 | 1008.3 |
| 20260507003000 | 47 | 245 | 3.0 | 9.0 | 0.00 | 0.01 | 0.00 | 84 | 1008.3 |
| 20260507002929 | 47 | 261 | 3.0 | 9.0 | 0.00 | 0.01 | 0.00 | 83 | 1008.3 |
| 20260507002900 | 47 | 255 | 3.0 | 9.0 | 0.00 | 0.01 | 0.00 | 83 | 1008.3 |
| 20260507002800 | 48 | 251 | 3.0 | 9.0 | 0.00 | 0.01 | 0.00 | 83 | 1008.3 |
| 20260507002700 | 48 | 263 | 3.0 | 9.0 | 0.00 | 0.01 | 0.00 | 83 | 1008.4 |
| 20260507002601 | 48 | 273 | 3.0 | 7.0 | 0.00 | 0.01 | 0.00 | 83 | 1008.3 |
| 20260507002501 | 48 | 234 | 3.0 | 7.0 | 0.00 | 0.01 | 0.00 | 83 | 1008.3 |
| 20260507002406 | 48 | 265 | 3.0 | 7.0 | 0.00 | 0.01 | 0.00 | 83 | 1008.3 |
| 20260507002300 | 48 | 235 | 3.0 | 7.0 | 0.00 | 0.01 | 0.00 | 83 | 1008.3 |
| 20260507002201 | 48 | 247 | 3.0 | 7.0 | 0.00 | 0.01 | 0.00 | 83 | 1008.3 |
| 20260507002101 | 48 | 248 | 3.0 | 7.0 | 0.00 | 0.01 | 0.00 | 83 | 1008.3 |
| 20260507002001 | 48 | 244 | 4.0 | 7.0 | 0.00 | 0.01 | 0.00 | 83 | 1008.3 |
| 20260507001929 | 48 | 233 | 3.0 | 7.0 | 0.00 | 0.01 | 0.00 | 83 | 1008.2 |
| 20260507001902 | 48 | 263 | 3.0 | 7.0 | 0.00 | 0.01 | 0.00 | 83 | 1008.2 |
| 20260507001800 | 48 | 275 | 3.0 | 7.0 | 0.00 | 0.01 | 0.00 | 83 | 1008.3 |
| 20260507001700 | 48 | 265 | 3.0 | 7.0 | 0.00 | 0.01 | 0.00 | 83 | 1008.2 |
| 20260507001600 | 48 | 271 | 3.0 | 7.0 | 0.00 | 0.01 | 0.00 | 83 | 1008.3 |
| 20260507001501 | 48 | 247 | 3.0 | 7.0 | 0.00 | 0.01 | 0.00 | 83 | 1008.3 |
| 20260507001429 | 48 | 245 | 3.0 | 7.0 | 0.00 | 0.01 | 0.00 | 83 | 1008.3 |
| 20260507001401 | 48 | 249 | 3.0 | 7.0 | 0.00 | 0.01 | 0.00 | 83 | 1008.3 |
| 20260507001301 | 48 | 250 | 3.0 | 6.0 | 0.00 | 0.01 | 0.00 | 83 | 1008.3 |
| 20260507001201 | 48 | 219 | 3.0 | 6.0 | 0.00 | 0.01 | 0.00 | 83 | 1008.2 |
| 20260507001101 | 48 | 261 | 3.0 | 6.0 | 0.00 | 0.01 | 0.00 | 83 | 1008.3 |
| 20260507001000 | 48 | 265 | 3.0 | 6.0 | 0.00 | 0.01 | 0.00 | 83 | 1008.3 |
| 20260507000929 | 48 | 286 | 3.0 | 6.0 | 0.00 | 0.01 | 0.00 | 83 | 1008.3 |
| 20260507000901 | 48 | 281 | 3.0 | 6.0 | 0.00 | 0.01 | 0.00 | 83 | 1008.3 |
| 20260507000800 | 48 | 248 | 3.0 | 5.0 | 0.00 | 0.01 | 0.00 | 83 | 1008.3 |
| 20260507000700 | 48 | 245 | 2.0 | 5.0 | 0.00 | 0.01 | 0.00 | 83 | 1008.4 |
| 20260507000600 | 48 | 233 | 3.0 | 5.0 | 0.00 | 0.01 | 0.00 | 83 | 1008.4 |
| 20260507000500 | 48 | 264 | 3.0 | 5.0 | 0.00 | 0.01 | 0.00 | 83 | 1008.4 |
| 20260507000428 | 48 | 259 | 2.0 | 5.0 | 0.00 | 0.01 | 0.00 | 83 | 1008.3 |
| 20260507000401 | 48 | 265 | 2.0 | 5.0 | 0.00 | 0.01 | 0.00 | 83 | 1008.3 |
| 20260507000300 | 48 | 248 | 3.0 | 6.0 | 0.00 | 0.01 | 0.00 | 83 | 1008.3 |
| 20260507000201 | 48 | 248 | 3.0 | 6.0 | 0.00 | 0.01 | 0.00 | 83 | 1008.3 |
| 20260507000101 | 48 | 232 | 3.0 | 7.0 | 0.00 | 0.01 | 0.00 | 83 | 1008.3 |
| 20260507000001 | 48 | 224 | 3.0 | 7.0 | 0.00 | 0.01 | 0.00 | 83 | 1008.3 |
| 20260506235901 | 48 | 235 | 3.0 | 7.0 | 0.00 | 0.01 | 0.00 | 83 | 1008.4 |
| 20260506235800 | 48 | 229 | 3.0 | 7.0 | 0.00 | 0.01 | 0.00 | 83 | 1008.3 |
| 20260506235700 | 49 | 229 | 3.0 | 8.0 | 0.00 | 0.01 | 0.00 | 83 | 1008.3 |
| 20260506235600 | 49 | 258 | 3.0 | 8.0 | 0.00 | 0.01 | 0.00 | 83 | 1008.3 |
| 20260506235501 | 49 | 242 | 3.0 | 8.0 | 0.00 | 0.01 | 0.00 | 83 | 1008.3 |
| 20260506235428 | 49 | 242 | 4.0 | 8.0 | 0.00 | 0.01 | 0.00 | 83 | 1008.3 |
| 20260506235402 | 49 | 265 | 4.0 | 8.0 | 0.00 | 0.01 | 0.00 | 83 | 1008.3 |
| 20260506235300 | 49 | 265 | 4.0 | 8.0 | 0.00 | 0.01 | 0.00 | 83 | 1008.4 |
| 20260506235200 | 49 | 265 | 4.0 | 8.0 | 0.00 | 0.01 | 0.00 | 83 | 1008.4 |
| 20260506235100 | 49 | 296 | 4.0 | 8.0 | 0.00 | 0.01 | 0.00 | 83 | 1008.4 |
| 20260506235000 | 49 | 275 | 4.0 | 9.0 | 0.00 | 0.01 | 0.00 | 83 | 1008.4 |
| 20260506234929 | 49 | 277 | 4.0 | 9.0 | 0.00 | 0.01 | 0.00 | 83 | 1008.4 |
| 20260506234801 | 49 | 239 | 4.0 | 9.0 | 0.00 | 0.01 | 0.00 | 83 | 1008.4 |
| 20260506234700 | 49 | 256 | 4.0 | 10.0 | 0.00 | 0.01 | 0.00 | 83 | 1008.4 |
| 20260506234654 | 49 | 273 | 4.0 | 10.0 | 0.00 | 0.01 | 0.00 | 83 | 1008.4 |
| 20260506234644 | 49 | 263 | 4.0 | 10.0 | 0.00 | 0.01 | 0.00 | 83 | 1008.4 |
| 20260506234640 | 49 | 265 | 4.0 | 10.0 | 0.00 | 0.01 | 0.00 | 83 | 1008.4 |
| 20260506234401 | 49 | 253 | 4.0 | 10.0 | 0.00 | 0.01 | 0.00 | 83 | 1008.4 |
| 20260506234300 | 49 | 245 | 4.0 | 10.0 | 0.00 | 0.01 | 0.00 | 83 | 1008.4 |
| 20260506234200 | 49 | 225 | 4.0 | 10.0 | 0.00 | 0.01 | 0.00 | 83 | 1008.4 |
| 20260506234100 | 49 | 266 | 4.0 | 10.0 | 0.00 | 0.01 | 0.00 | 83 | 1008.4 |
| 20260506234000 | 49 | 277 | 4.0 | 10.0 | 0.00 | 0.01 | 0.00 | 83 | 1008.4 |
| 20260506233929 | 49 | 241 | 4.0 | 10.0 | 0.00 | 0.01 | 0.00 | 83 | 1008.4 |
| 20260506233901 | 49 | 281 | 4.0 | 10.0 | 0.00 | 0.01 | 0.00 | 83 | 1008.4 |
| 20260506233801 | 49 | 269 | 4.0 | 10.0 | 0.00 | 0.01 | 0.00 | 83 | 1008.4 |
| 20260506233701 | 49 | 300 | 4.0 | 9.0 | 0.00 | 0.01 | 0.00 | 83 | 1008.3 |
| 20260506233655 | 49 | 269 | 4.0 | 9.0 | 0.00 | 0.01 | 0.00 | 83 | 1008.3 |
| 20260506233644 | 49 | 235 | 4.0 | 9.0 | 0.00 | 0.01 | 0.00 | 83 | 1008.3 |
| 20260506233640 | 49 | 268 | 4.0 | 9.0 | 0.00 | 0.01 | 0.00 | 83 | 1008.3 |
| 20260506233401 | 49 | 261 | 4.0 | 9.0 | 0.00 | 0.01 | 0.00 | 83 | 1008.3 |
| 20260506233300 | 49 | 277 | 4.0 | 9.0 | 0.00 | 0.01 | 0.00 | 83 | 1008.3 |
| 20260506233200 | 49 | 284 | 4.0 | 9.0 | 0.00 | 0.01 | 0.00 | 83 | 1008.4 |
| 20260506233100 | 49 | 271 | 4.0 | 9.0 | 0.00 | 0.01 | 0.00 | 83 | 1008.4 |
| 20260506233001 | 49 | 252 | 5.0 | 9.0 | 0.00 | 0.01 | 0.00 | 83 | 1008.4 |
| 20260506232928 | 49 | 262 | 5.0 | 9.0 | 0.00 | 0.01 | 0.00 | 83 | 1008.4 |
| 20260506232901 | 49 | 273 | 5.0 | 9.0 | 0.00 | 0.01 | 0.00 | 83 | 1008.4 |
| 20260506232801 | 49 | 267 | 5.0 | 9.0 | 0.00 | 0.01 | 0.00 | 83 | 1008.4 |
| 20260506232700 | 49 | 213 | 5.0 | 9.0 | 0.00 | 0.01 | 0.00 | 83 | 1008.4 |
| 20260506232653 | 49 | 272 | 5.0 | 9.0 | 0.00 | 0.01 | 0.00 | 83 | 1008.3 |
| 20260506232644 | 49 | 223 | 5.0 | 9.0 | 0.00 | 0.01 | 0.00 | 83 | 1008.3 |
| 20260506232640 | 49 | 275 | 5.0 | 9.0 | 0.00 | 0.01 | 0.00 | 83 | 1008.4 |
| 20260506232401 | 49 | 275 | 5.0 | 9.0 | 0.00 | 0.01 | 0.00 | 83 | 1008.3 |
| 20260506232301 | 49 | 252 | 5.0 | 9.0 | 0.00 | 0.01 | 0.00 | 83 | 1008.4 |
| 20260506232201 | 49 | 269 | 5.0 | 9.0 | 0.00 | 0.01 | 0.00 | 83 | 1008.4 |
| 20260506232101 | 49 | 246 | 5.0 | 9.0 | 0.00 | 0.01 | 0.00 | 83 | 1008.4 |
| 20260506232001 | 49 | 257 | 5.0 | 9.0 | 0.00 | 0.01 | 0.00 | 83 | 1008.3 |
| 20260506231929 | 49 | 236 | 5.0 | 9.0 | 0.00 | 0.01 | 0.00 | 83 | 1008.3 |
| 20260506231901 | 49 | 247 | 5.0 | 9.0 | 0.00 | 0.01 | 0.00 | 83 | 1008.3 |
| 20260506231801 | 49 | 220 | 5.0 | 9.0 | 0.00 | 0.01 | 0.00 | 83 | 1008.3 |
| 20260506231701 | 49 | 275 | 5.0 | 9.0 | 0.00 | 0.01 | 0.00 | 83 | 1008.2 |
| 20260506231601 | 49 | 229 | 5.0 | 9.0 | 0.00 | 0.01 | 0.00 | 83 | 1008.3 |
| 20260506231501 | 49 | 251 | 5.0 | 9.0 | 0.00 | 0.01 | 0.00 | 83 | 1008.3 |
| 20260506231429 | 49 | 241 | 5.0 | 9.0 | 0.00 | 0.01 | 0.00 | 83 | 1008.3 |
| 20260506231401 | 49 | 253 | 5.0 | 9.0 | 0.00 | 0.01 | 0.00 | 83 | 1008.3 |
| 20260506231301 | 49 | 254 | 5.0 | 9.0 | 0.00 | 0.01 | 0.00 | 82 | 1008.3 |
| 20260506231201 | 49 | 295 | 4.0 | 9.0 | 0.00 | 0.01 | 0.00 | 82 | 1008.2 |
| 20260506231101 | 49 | 261 | 5.0 | 9.0 | 0.00 | 0.01 | 0.00 | 82 | 1008.2 |
| 20260506231001 | 49 | 214 | 5.0 | 9.0 | 0.00 | 0.01 | 0.00 | 82 | 1008.1 |
| 20260506230901 | 49 | 213 | 5.0 | 9.0 | 0.00 | 0.01 | 0.00 | 82 | 1008.2 |
| 20260506230801 | 49 | 229 | 5.0 | 9.0 | 0.00 | 0.01 | 0.00 | 82 | 1008.2 |
| 20260506230701 | 49 | 242 | 5.0 | 9.0 | 0.00 | 0.01 | 0.00 | 82 | 1008.1 |
| 20260506230600 | 49 | 212 | 5.0 | 9.0 | 0.00 | 0.01 | 0.00 | 82 | 1008.2 |
| 20260506230500 | 49 | 242 | 5.0 | 9.0 | 0.00 | 0.01 | 0.00 | 82 | 1008.2 |
| 20260506230429 | 49 | 219 | 5.0 | 9.0 | 0.00 | 0.01 | 0.00 | 82 | 1008.2 |
| 20260506230400 | 49 | 261 | 5.0 | 9.0 | 0.00 | 0.01 | 0.00 | 82 | 1008.2 |
| 20260506230300 | 49 | 252 | 5.0 | 10.0 | 0.00 | 0.01 | 0.00 | 82 | 1008.1 |
| 20260506230156 | 49 | 252 | 5.0 | 10.0 | 0.00 | 0.01 | 0.00 | 82 | 1008.1 |
| 20260506230057 | 49 | 240 | 5.0 | 10.0 | 0.00 | 0.01 | 0.00 | 82 | 1008.1 |
| 20260506225954 | 49 | 229 | 5.0 | 10.0 | 0.00 | 0.01 | 0.00 | 82 | 1008.1 |
| 20260506225929 | 49 | 241 | 5.0 | 10.0 | 0.00 | 0.01 | 0.00 | 82 | 1008.1 |
| 20260506225854 | 49 | 259 | 5.0 | 10.0 | 0.00 | 0.01 | 0.00 | 82 | 1008.1 |
| 20260506225754 | 49 | 265 | 5.0 | 10.0 | 0.00 | 0.01 | 0.00 | 82 | 1008.1 |
| 20260506225649 | 49 | 274 | 5.0 | 10.0 | 0.00 | 0.01 | 0.00 | 82 | 1008.1 |
| 20260506225549 | 49 | 284 | 5.0 | 10.0 | 0.00 | 0.01 | 0.00 | 82 | 1008.1 |
| 20260506225448 | 49 | 228 | 5.0 | 10.0 | 0.00 | 0.01 | 0.00 | 82 | 1008.1 |
| 20260506225429 | 49 | 257 | 5.0 | 10.0 | 0.00 | 0.01 | 0.00 | 82 | 1008.1 |
| 20260506225348 | 49 | 250 | 5.0 | 10.0 | 0.00 | 0.01 | 0.00 | 82 | 1008.1 |
| 20260506225248 | 49 | 281 | 5.0 | 10.0 | 0.00 | 0.01 | 0.00 | 82 | 1008.1 |
| 20260506225142 | 49 | 227 | 4.0 | 10.0 | 0.00 | 0.01 | 0.00 | 82 | 1008.1 |
| 20260506225042 | 49 | 263 | 4.0 | 10.0 | 0.00 | 0.01 | 0.00 | 82 | 1008.1 |
| 20260506224943 | 49 | 269 | 4.0 | 10.0 | 0.00 | 0.01 | 0.00 | 82 | 1008.1 |
| 20260506224929 | 49 | 255 | 4.0 | 10.0 | 0.00 | 0.01 | 0.00 | 82 | 1008.1 |
| 20260506224842 | 49 | 246 | 5.0 | 10.0 | 0.00 | 0.01 | 0.00 | 82 | 1008.1 |
| 20260506224741 | 49 | 236 | 4.0 | 11.0 | 0.00 | 0.01 | 0.00 | 82 | 1008.2 |
| 20260506224636 | 49 | 275 | 4.0 | 11.0 | 0.00 | 0.01 | 0.00 | 82 | 1008.1 |
| 20260506224536 | 49 | 260 | 4.0 | 11.0 | 0.00 | 0.01 | 0.00 | 82 | 1008.1 |
| 20260506224436 | 49 | 263 | 4.0 | 11.0 | 0.00 | 0.01 | 0.00 | 81 | 1008.1 |
| 20260506224429 | 49 | 271 | 4.0 | 11.0 | 0.00 | 0.01 | 0.00 | 81 | 1008.1 |
| 20260506224336 | 49 | 238 | 4.0 | 11.0 | 0.00 | 0.01 | 0.00 | 81 | 1008.1 |
| 20260506224236 | 49 | 255 | 4.0 | 11.0 | 0.00 | 0.01 | 0.00 | 81 | 1008.1 |
| 20260506224134 | 49 | 231 | 5.0 | 11.0 | 0.00 | 0.01 | 0.00 | 81 | 1008.0 |
| 20260506224034 | 49 | 271 | 5.0 | 12.0 | 0.00 | 0.01 | 0.00 | 81 | 1008.1 |
| 20260506223934 | 49 | 246 | 5.0 | 12.0 | 0.00 | 0.01 | 0.00 | 81 | 1008.1 |
| 20260506223929 | 49 | 232 | 5.0 | 12.0 | 0.00 | 0.01 | 0.00 | 81 | 1008.1 |
| 20260506223834 | 49 | 242 | 5.0 | 12.0 | 0.00 | 0.01 | 0.00 | 81 | 1008.1 |
| 20260506223733 | 49 | 262 | 5.0 | 12.0 | 0.00 | 0.01 | 0.00 | 81 | 1008.1 |
| 20260506223633 | 49 | 273 | 5.0 | 12.0 | 0.00 | 0.01 | 0.00 | 81 | 1008.1 |
| 20260506223532 | 49 | 263 | 5.0 | 12.0 | 0.00 | 0.01 | 0.00 | 81 | 1008.1 |
| 20260506223432 | 49 | 259 | 5.0 | 12.0 | 0.00 | 0.01 | 0.00 | 81 | 1008.0 |
| 20260506223428 | 49 | 258 | 5.0 | 12.0 | 0.00 | 0.01 | 0.00 | 81 | 1008.0 |
| 20260506223332 | 49 | 242 | 5.0 | 14.0 | 0.00 | 0.01 | 0.00 | 81 | 1008.0 |
| 20260506223232 | 49 | 269 | 6.0 | 14.0 | 0.00 | 0.01 | 0.00 | 81 | 1008.1 |
| 20260506223130 | 49 | 219 | 6.0 | 14.0 | 0.00 | 0.01 | 0.00 | 81 | 1008.1 |
| 20260506223030 | 49 | 236 | 6.0 | 14.0 | 0.00 | 0.01 | 0.00 | 81 | 1008.1 |
| 20260506222933 | 49 | 263 | 6.0 | 14.0 | 0.00 | 0.01 | 0.00 | 81 | 1008.1 |
| 20260506222929 | 49 | 247 | 6.0 | 14.0 | 0.00 | 0.01 | 0.00 | 81 | 1008.1 |
| 20260506222830 | 49 | 279 | 6.0 | 14.0 | 0.00 | 0.01 | 0.00 | 81 | 1008.0 |
| 20260506222730 | 49 | 241 | 6.0 | 14.0 | 0.00 | 0.01 | 0.00 | 81 | 1008.1 |
| 20260506222648 | 49 | 274 | 6.0 | 14.0 | 0.00 | 0.01 | 0.00 | 81 | 1008.0 |
| 20260506222644 | 49 | 265 | 7.0 | 14.0 | 0.00 | 0.01 | 0.00 | 81 | 1008.1 |
| 20260506222640 | 49 | 221 | 6.0 | 14.0 | 0.00 | 0.01 | 0.00 | 81 | 1008.2 |
| 20260506222330 | 49 | 238 | 6.0 | 13.0 | 0.00 | 0.01 | 0.00 | 81 | 1008.1 |
| 20260506222230 | 49 | 235 | 6.0 | 12.0 | 0.00 | 0.01 | 0.00 | 81 | 1008.1 |
| 20260506222130 | 49 | 246 | 6.0 | 12.0 | 0.00 | 0.01 | 0.00 | 81 | 1008.2 |
| 20260506222029 | 49 | 232 | 6.0 | 12.0 | 0.00 | 0.01 | 0.00 | 81 | 1008.1 |
| 20260506221928 | 49 | 268 | 6.0 | 12.0 | 0.00 | 0.01 | 0.00 | 81 | 1008.1 |
| 20260506221829 | 49 | 273 | 6.0 | 12.0 | 0.00 | 0.01 | 0.00 | 81 | 1008.1 |
| 20260506221729 | 49 | 236 | 6.0 | 12.0 | 0.00 | 0.01 | 0.00 | 81 | 1008.1 |
| 20260506221629 | 49 | 223 | 6.0 | 12.0 | 0.00 | 0.01 | 0.00 | 81 | 1008.1 |
| 20260506221529 | 49 | 252 | 6.0 | 13.0 | 0.00 | 0.01 | 0.00 | 81 | 1008.1 |
| 20260506221430 | 49 | 259 | 6.0 | 16.0 | 0.00 | 0.01 | 0.00 | 81 | 1008.0 |
| 20260506221329 | 49 | 278 | 7.0 | 16.0 | 0.00 | 0.01 | 0.00 | 81 | 1008.0 |
| 20260506221228 | 49 | 215 | 7.0 | 16.0 | 0.00 | 0.01 | 0.00 | 81 | 1008.0 |
| 20260506221129 | 49 | 219 | 6.0 | 16.0 | 0.00 | 0.01 | 0.00 | 81 | 1008.0 |
| 20260506221029 | 49 | 226 | 6.0 | 16.0 | 0.00 | 0.01 | 0.00 | 81 | 1008.0 |
| 20260506220929 | 49 | 259 | 6.0 | 16.0 | 0.00 | 0.01 | 0.00 | 81 | 1008.0 |
| 20260506220829 | 49 | 246 | 6.0 | 16.0 | 0.00 | 0.01 | 0.00 | 81 | 1008.0 |
| 20260506220728 | 49 | 261 | 6.0 | 16.0 | 0.00 | 0.01 | 0.00 | 81 | 1008.0 |
| 20260506220628 | 49 | 248 | 6.0 | 16.0 | 0.00 | 0.01 | 0.00 | 81 | 1008.1 |
| 20260506220528 | 49 | 259 | 5.0 | 16.0 | 0.00 | 0.01 | 0.00 | 81 | 1008.1 |
| 20260506220428 | 49 | 260 | 5.0 | 11.0 | 0.00 | 0.01 | 0.00 | 81 | 1007.9 |
| 20260506220329 | 49 | 222 | 5.0 | 11.0 | 0.00 | 0.01 | 0.00 | 81 | 1007.9 |
| 20260506220228 | 49 | 262 | 5.0 | 11.0 | 0.00 | 0.01 | 0.00 | 81 | 1007.9 |
| 20260506220128 | 49 | 252 | 6.0 | 11.0 | 0.00 | 0.01 | 0.00 | 82 | 1007.9 |
| 20260506220028 | 49 | 254 | 6.0 | 11.0 | 0.00 | 0.01 | 0.00 | 81 | 1007.9 |
| 20260506215929 | 49 | 219 | 6.0 | 11.0 | 0.00 | 0.01 | 0.01 | 82 | 1007.9 |
| 20260506215829 | 49 | 238 | 6.0 | 11.0 | 0.00 | 0.01 | 0.01 | 82 | 1007.9 |
| 20260506215729 | 49 | 250 | 6.0 | 11.0 | 0.00 | 0.01 | 0.01 | 81 | 1007.9 |
| 20260506215629 | 49 | 217 | 5.0 | 11.0 | 0.00 | 0.01 | 0.01 | 82 | 1007.9 |
| 20260506215529 | 49 | 280 | 5.0 | 11.0 | 0.00 | 0.01 | 0.01 | 82 | 1007.8 |
| 20260506215429 | 49 | 255 | 5.0 | 11.0 | 0.00 | 0.01 | 0.01 | 82 | 1007.8 |
| 20260506215329 | 49 | 242 | 5.0 | 10.0 | 0.00 | 0.01 | 0.01 | 82 | 1007.8 |
| 20260506215229 | 49 | 196 | 5.0 | 10.0 | 0.00 | 0.01 | 0.01 | 82 | 1007.8 |
| 20260506215148 | 49 | 292 | 5.0 | 9.0 | 0.00 | 0.01 | 0.01 | 82 | 1007.9 |
| 20260506215144 | 49 | 264 | 5.0 | 9.0 | 0.00 | 0.01 | 0.01 | 82 | 1007.8 |
| 20260506215140 | 49 | 269 | 5.0 | 10.0 | 0.00 | 0.01 | 0.01 | 82 | 1007.8 |
| 20260506214829 | 49 | 250 | 5.0 | 10.0 | 0.00 | 0.01 | 0.01 | 82 | 1007.8 |
| 20260506214729 | 49 | 258 | 5.0 | 10.0 | 0.00 | 0.01 | 0.01 | 82 | 1007.8 |
| 20260506214628 | 49 | 212 | 5.0 | 10.0 | 0.00 | 0.01 | 0.01 | 82 | 1007.8 |
| 20260506214528 | 49 | 266 | 5.0 | 11.0 | 0.00 | 0.01 | 0.01 | 82 | 1007.8 |
| 20260506214429 | 49 | 244 | 5.0 | 11.0 | 0.00 | 0.01 | 0.01 | 82 | 1007.8 |
| 20260506214329 | 49 | 274 | 5.0 | 11.0 | 0.00 | 0.01 | 0.01 | 82 | 1007.8 |
| 20260506214229 | 49 | 225 | 5.0 | 11.0 | 0.00 | 0.01 | 0.01 | 82 | 1007.8 |
| 20260506214129 | 49 | 228 | 6.0 | 11.0 | 0.00 | 0.01 | 0.01 | 82 | 1007.8 |
| 20260506214029 | 49 | 240 | 6.0 | 11.0 | 0.00 | 0.01 | 0.01 | 82 | 1007.7 |
| 20260506213929 | 49 | 257 | 6.0 | 11.0 | 0.00 | 0.01 | 0.01 | 82 | 1007.8 |
| 20260506213829 | 49 | 261 | 6.0 | 11.0 | 0.00 | 0.01 | 0.01 | 82 | 1007.7 |
| 20260506213728 | 49 | 288 | 6.0 | 11.0 | 0.00 | 0.01 | 0.01 | 82 | 1007.7 |
| 20260506213628 | 49 | 230 | 6.0 | 12.0 | 0.00 | 0.01 | 0.01 | 82 | 1007.8 |
| 20260506213528 | 49 | 221 | 6.0 | 12.0 | 0.00 | 0.01 | 0.01 | 82 | 1007.8 |
| 20260506213428 | 49 | 234 | 6.0 | 12.0 | 0.00 | 0.01 | 0.01 | 82 | 1007.7 |
| 20260506213330 | 49 | 226 | 6.0 | 12.0 | 0.00 | 0.01 | 0.01 | 82 | 1007.7 |
| 20260506213229 | 49 | 279 | 6.0 | 12.0 | 0.00 | 0.01 | 0.01 | 82 | 1007.7 |
| 20260506213129 | 49 | 240 | 6.0 | 12.0 | 0.00 | 0.01 | 0.01 | 82 | 1007.8 |
| 20260506213029 | 49 | 226 | 6.0 | 12.0 | 0.00 | 0.01 | 0.01 | 82 | 1007.7 |
| 20260506212928 | 49 | 259 | 6.0 | 12.0 | 0.00 | 0.01 | 0.01 | 82 | 1007.7 |
| 20260506212829 | 49 | 233 | 6.0 | 13.0 | 0.00 | 0.01 | 0.01 | 82 | 1007.7 |
| 20260506212729 | 49 | 267 | 5.0 | 13.0 | 0.00 | 0.01 | 0.01 | 82 | 1007.7 |
| 20260506212629 | 49 | 243 | 5.0 | 13.0 | 0.00 | 0.01 | 0.01 | 82 | 1007.7 |
| 20260506212529 | 49 | 220 | 5.0 | 13.0 | 0.00 | 0.01 | 0.01 | 82 | 1007.7 |
| 20260506212429 | 49 | 259 | 5.0 | 13.0 | 0.00 | 0.01 | 0.01 | 82 | 1007.7 |
| 20260506212329 | 49 | 248 | 5.0 | 13.0 | 0.00 | 0.01 | 0.01 | 82 | 1007.7 |
| 20260506212229 | 49 | 218 | 5.0 | 13.0 | 0.00 | 0.01 | 0.01 | 82 | 1007.6 |
| 20260506212129 | 49 | 240 | 5.0 | 13.0 | 0.00 | 0.01 | 0.01 | 82 | 1007.6 |
| 20260506212029 | 49 | 265 | 5.0 | 13.0 | 0.00 | 0.01 | 0.01 | 82 | 1007.7 |
| 20260506211930 | 49 | 270 | 5.0 | 13.0 | 0.00 | 0.01 | 0.01 | 82 | 1007.8 |
| 20260506211829 | 49 | 264 | 5.0 | 11.0 | 0.00 | 0.01 | 0.01 | 82 | 1007.7 |
| 20260506211733 | 49 | 268 | 5.0 | 11.0 | 0.00 | 0.01 | 0.01 | 82 | 1007.8 |
| 20260506211629 | 49 | 267 | 5.0 | 11.0 | 0.00 | 0.01 | 0.01 | 82 | 1007.7 |
| 20260506211529 | 49 | 224 | 5.0 | 11.0 | 0.00 | 0.01 | 0.01 | 82 | 1007.7 |
| 20260506211429 | 49 | 256 | 5.0 | 11.0 | 0.00 | 0.01 | 0.01 | 82 | 1007.7 |
| 20260506211329 | 49 | 254 | 5.0 | 11.0 | 0.00 | 0.01 | 0.01 | 82 | 1007.7 |
| 20260506211230 | 49 | 257 | 5.0 | 11.0 | 0.00 | 0.01 | 0.01 | 82 | 1007.7 |
| 20260506211029 | 49 | 232 | 5.0 | 10.0 | 0.00 | 0.01 | 0.01 | 82 | 1007.7 |
| 20260506210929 | 49 | 235 | 4.0 | 10.0 | 0.00 | 0.01 | 0.01 | 82 | 1007.8 |
| 20260506210829 | 49 | 254 | 5.0 | 10.0 | 0.00 | 0.01 | 0.01 | 82 | 1007.8 |
| 20260506210729 | 49 | 254 | 5.0 | 10.0 | 0.00 | 0.01 | 0.01 | 82 | 1007.7 |
| 20260506210629 | 49 | 238 | 5.0 | 10.0 | 0.00 | 0.01 | 0.01 | 82 | 1007.7 |
| 20260506210529 | 49 | 250 | 5.0 | 10.0 | 0.00 | 0.01 | 0.01 | 82 | 1007.9 |
| 20260506210428 | 49 | 250 | 5.0 | 10.0 | 0.00 | 0.01 | 0.01 | 82 | 1007.8 |
| 20260506210328 | 49 | 274 | 5.0 | 14.0 | 0.00 | 0.01 | 0.01 | 82 | 1007.8 |
| 20260506210228 | 49 | 262 | 6.0 | 14.0 | 0.00 | 0.01 | 0.01 | 82 | 1007.8 |
| 20260506210128 | 49 | 227 | 6.0 | 14.0 | 0.00 | 0.01 | 0.01 | 82 | 1007.8 |
| 20260506210028 | 49 | 243 | 6.0 | 14.0 | 0.00 | 0.01 | 0.01 | 82 | 1007.7 |
| 20260506205928 | 49 | 223 | 6.0 | 14.0 | 0.00 | 0.01 | 0.01 | 82 | 1007.7 |
| 20260506205829 | 49 | 236 | 6.0 | 14.0 | 0.00 | 0.01 | 0.01 | 82 | 1007.7 |
| 20260506205729 | 49 | 280 | 6.0 | 14.0 | 0.00 | 0.01 | 0.01 | 82 | 1007.7 |
| 20260506205629 | 49 | 277 | 7.0 | 14.0 | 0.00 | 0.01 | 0.01 | 82 | 1007.7 |
| 20260506205528 | 49 | 262 | 7.0 | 14.0 | 0.00 | 0.01 | 0.01 | 82 | 1007.7 |
| 20260506205429 | 49 | 273 | 7.0 | 14.0 | 0.00 | 0.01 | 0.01 | 82 | 1007.7 |
| 20260506205329 | 49 | 246 | 7.0 | 14.0 | 0.00 | 0.01 | 0.01 | 82 | 1007.7 |
| 20260506205229 | 49 | 235 | 7.0 | 14.0 | 0.00 | 0.01 | 0.01 | 82 | 1007.7 |
| 20260506205129 | 49 | 225 | 6.0 | 14.0 | 0.00 | 0.01 | 0.01 | 82 | 1007.7 |
| 20260506205029 | 49 | 273 | 6.0 | 12.0 | 0.00 | 0.01 | 0.01 | 82 | 1007.6 |
| 20260506204929 | 49 | 230 | 6.0 | 12.0 | 0.00 | 0.01 | 0.01 | 82 | 1007.7 |
| 20260506204828 | 49 | 232 | 6.0 | 12.0 | 0.00 | 0.01 | 0.01 | 82 | 1007.7 |
| 20260506204729 | 49 | 248 | 6.0 | 12.0 | 0.00 | 0.01 | 0.01 | 82 | 1007.7 |
| 20260506204629 | 49 | 247 | 6.0 | 12.0 | 0.00 | 0.01 | 0.01 | 82 | 1007.7 |
| 20260506204530 | 49 | 220 | 6.0 | 12.0 | 0.00 | 0.01 | 0.01 | 82 | 1007.8 |
| 20260506204429 | 49 | 257 | 6.0 | 15.0 | 0.00 | 0.01 | 0.01 | 82 | 1007.7 |
| 20260506204329 | 49 | 244 | 6.0 | 15.0 | 0.00 | 0.01 | 0.01 | 82 | 1007.6 |
| 20260506204229 | 49 | 248 | 6.0 | 15.0 | 0.00 | 0.01 | 0.01 | 82 | 1007.6 |
| 20260506204129 | 49 | 271 | 6.0 | 15.0 | 0.00 | 0.01 | 0.01 | 82 | 1007.5 |
| 20260506204029 | 49 | 257 | 6.0 | 15.0 | 0.00 | 0.01 | 0.01 | 82 | 1007.6 |
| 20260506203928 | 49 | 279 | 6.0 | 15.0 | 0.00 | 0.01 | 0.01 | 82 | 1007.5 |
| 20260506203828 | 49 | 242 | 6.0 | 15.0 | 0.00 | 0.01 | 0.01 | 82 | 1007.5 |
| 20260506203728 | 49 | 263 | 6.0 | 15.0 | 0.00 | 0.01 | 0.01 | 82 | 1007.5 |
| 20260506203649 | 49 | 217 | 6.0 | 15.0 | 0.00 | 0.01 | 0.01 | 82 | 1007.5 |
| 20260506203645 | 49 | 215 | 6.0 | 15.0 | 0.00 | 0.01 | 0.01 | 82 | 1007.5 |
| 20260506203641 | 49 | 229 | 6.0 | 13.0 | 0.00 | 0.01 | 0.01 | 82 | 1007.5 |
| 20260506203329 | 49 | 276 | 6.0 | 13.0 | 0.00 | 0.01 | 0.01 | 82 | 1007.5 |
| 20260506203228 | 49 | 252 | 6.0 | 13.0 | 0.00 | 0.01 | 0.01 | 81 | 1007.4 |
| 20260506203128 | 49 | 236 | 6.0 | 13.0 | 0.00 | 0.01 | 0.01 | 81 | 1007.5 |
| 20260506203028 | 49 | 221 | 6.0 | 11.0 | 0.00 | 0.01 | 0.01 | 81 | 1007.4 |
| 20260506202929 | 49 | 236 | 6.0 | 11.0 | 0.00 | 0.01 | 0.01 | 81 | 1007.5 |
| 20260506202829 | 49 | 240 | 6.0 | 11.0 | 0.00 | 0.01 | 0.01 | 81 | 1007.4 |
| 20260506202729 | 49 | 284 | 6.0 | 11.0 | 0.00 | 0.01 | 0.01 | 81 | 1007.5 |
| 20260506202629 | 49 | 290 | 6.0 | 11.0 | 0.00 | 0.01 | 0.01 | 81 | 1007.4 |
| 20260506202529 | 49 | 253 | 7.0 | 11.0 | 0.00 | 0.01 | 0.01 | 81 | 1007.5 |
| 20260506202429 | 49 | 266 | 7.0 | 11.0 | 0.00 | 0.01 | 0.01 | 81 | 1007.5 |
| 20260506202329 | 49 | 247 | 6.0 | 11.0 | 0.00 | 0.01 | 0.01 | 82 | 1007.5 |
| 20260506202228 | 49 | 217 | 6.0 | 11.0 | 0.00 | 0.01 | 0.01 | 82 | 1007.4 |
| 20260506202129 | 49 | 271 | 6.0 | 11.0 | 0.00 | 0.01 | 0.01 | 82 | 1007.4 |
| 20260506202029 | 49 | 260 | 6.0 | 11.0 | 0.00 | 0.01 | 0.01 | 82 | 1007.4 |
| 20260506201929 | 49 | 256 | 6.0 | 11.0 | 0.00 | 0.01 | 0.01 | 82 | 1007.4 |
| 20260506201829 | 49 | 241 | 6.0 | 11.0 | 0.00 | 0.01 | 0.01 | 82 | 1007.4 |
| 20260506201729 | 49 | 275 | 6.0 | 11.0 | 0.00 | 0.01 | 0.01 | 82 | 1007.4 |
| 20260506201649 | 49 | 234 | 5.0 | 11.0 | 0.00 | 0.01 | 0.01 | 82 | 1007.4 |
| 20260506201645 | 49 | 241 | 5.0 | 11.0 | 0.00 | 0.01 | 0.01 | 81 | 1007.4 |
| 20260506201641 | 49 | 265 | 5.0 | 11.0 | 0.00 | 0.01 | 0.01 | 81 | 1007.4 |
| 20260506201329 | 49 | 279 | 5.0 | 11.0 | 0.00 | 0.01 | 0.01 | 82 | 1007.3 |
| 20260506201229 | 49 | 239 | 5.0 | 11.0 | 0.00 | 0.01 | 0.01 | 81 | 1007.3 |
| 20260506201129 | 49 | 225 | 5.0 | 11.0 | 0.00 | 0.01 | 0.01 | 81 | 1007.3 |
| 20260506201029 | 49 | 244 | 5.0 | 9.0 | 0.00 | 0.01 | 0.01 | 81 | 1007.4 |
| 20260506200928 | 49 | 261 | 5.0 | 9.0 | 0.00 | 0.01 | 0.01 | 82 | 1007.3 |
| 20260506200829 | 49 | 286 | 5.0 | 9.0 | 0.00 | 0.01 | 0.01 | 82 | 1007.3 |
| 20260506200728 | 49 | 272 | 5.0 | 9.0 | 0.00 | 0.01 | 0.01 | 81 | 1007.3 |
| 20260506200628 | 49 | 232 | 5.0 | 9.0 | 0.00 | 0.01 | 0.01 | 81 | 1007.3 |
| 20260506200528 | 49 | 249 | 5.0 | 9.0 | 0.00 | 0.01 | 0.01 | 81 | 1007.3 |
| 20260506200430 | 49 | 249 | 5.0 | 10.0 | 0.00 | 0.01 | 0.01 | 81 | 1007.3 |
| 20260506200426 | 49 | 248 | 5.0 | 10.0 | 0.00 | 0.01 | 0.01 | 81 | 1007.3 |
| 20260506200329 | 49 | 244 | 5.0 | 10.0 | 0.00 | 0.01 | 0.01 | 81 | 1007.2 |
| 20260506200229 | 49 | 210 | 5.0 | 10.0 | 0.00 | 0.01 | 0.01 | 81 | 1007.2 |
| 20260506200128 | 49 | 277 | 5.0 | 10.0 | 0.00 | 0.01 | 0.01 | 81 | 1007.3 |
| 20260506200029 | 49 | 236 | 5.0 | 10.0 | 0.00 | 0.01 | 0.01 | 81 | 1007.2 |
| 20260506195921 | 49 | 252 | 6.0 | 10.0 | 0.00 | 0.01 | 0.01 | 81 | 1007.2 |
| 20260506195829 | 49 | 271 | 6.0 | 10.0 | 0.00 | 0.01 | 0.01 | 81 | 1007.1 |
| 20260506195729 | 49 | 302 | 6.0 | 10.0 | 0.00 | 0.01 | 0.01 | 81 | 1007.1 |
| 20260506195630 | 49 | 232 | 6.0 | 10.0 | 0.00 | 0.01 | 0.01 | 81 | 1007.2 |
| 20260506195529 | 49 | 246 | 6.0 | 11.0 | 0.00 | 0.01 | 0.01 | 81 | 1007.3 |
| 20260506195429 | 49 | 276 | 6.0 | 11.0 | 0.00 | 0.01 | 0.01 | 81 | 1007.2 |
| 20260506195415 | 49 | 290 | 6.0 | 11.0 | 0.00 | 0.01 | 0.01 | 81 | 1007.2 |
| 20260506195329 | 49 | 267 | 6.0 | 11.0 | 0.00 | 0.01 | 0.01 | 81 | 1007.3 |
| 20260506195229 | 49 | 271 | 6.0 | 11.0 | 0.00 | 0.01 | 0.01 | 81 | 1007.3 |
| 20260506195127 | 49 | 242 | 6.0 | 11.0 | 0.00 | 0.01 | 0.01 | 81 | 1007.2 |
| 20260506195027 | 49 | 286 | 6.0 | 11.0 | 0.00 | 0.01 | 0.01 | 81 | 1007.3 |
| 20260506194927 | 50 | 252 | 6.0 | 11.0 | 0.00 | 0.01 | 0.01 | 81 | 1007.3 |
| 20260506194908 | 49 | 296 | 6.0 | 11.0 | 0.00 | 0.01 | 0.01 | 81 | 1007.3 |
| 20260506194826 | 50 | 267 | 6.0 | 11.0 | 0.00 | 0.01 | 0.01 | 81 | 1007.3 |
| 20260506194726 | 50 | 266 | 6.0 | 11.0 | 0.00 | 0.01 | 0.01 | 81 | 1007.2 |
| 20260506194621 | 50 | 229 | 5.0 | 11.0 | 0.00 | 0.01 | 0.01 | 81 | 1007.3 |
| 20260506194521 | 50 | 283 | 5.0 | 10.0 | 0.00 | 0.01 | 0.01 | 81 | 1007.2 |
| 20260506194421 | 50 | 281 | 5.0 | 10.0 | 0.00 | 0.01 | 0.01 | 81 | 1007.2 |
| 20260506194402 | 50 | 247 | 5.0 | 10.0 | 0.00 | 0.01 | 0.01 | 81 | 1007.2 |
| 20260506194320 | 50 | 265 | 5.0 | 10.0 | 0.00 | 0.01 | 0.01 | 81 | 1007.2 |
| 20260506194220 | 50 | 261 | 5.0 | 9.0 | 0.00 | 0.01 | 0.01 | 81 | 1007.2 |
| 20260506194128 | 50 | 253 | 5.0 | 9.0 | 0.00 | 0.01 | 0.01 | 81 | 1007.2 |
| 20260506194123 | 50 | 275 | 5.0 | 9.0 | 0.00 | 0.01 | 0.01 | 81 | 1007.2 |
| 20260506194119 | 50 | 228 | 5.0 | 9.0 | 0.00 | 0.01 | 0.01 | 81 | 1007.2 |
| 20260506194115 | 50 | 272 | 5.0 | 9.0 | 0.00 | 0.01 | 0.01 | 81 | 1007.2 |
| 20260506193817 | 50 | 234 | 6.0 | 10.0 | 0.00 | 0.01 | 0.01 | 81 | 1007.2 |
| 20260506193715 | 50 | 247 | 6.0 | 10.0 | 0.00 | 0.01 | 0.01 | 81 | 1007.2 |
| 20260506193608 | 50 | 269 | 6.0 | 11.0 | 0.00 | 0.01 | 0.01 | 80 | 1007.1 |
| 20260506193508 | 50 | 271 | 6.0 | 11.0 | 0.00 | 0.01 | 0.01 | 80 | 1007.1 |
| 20260506193409 | 50 | 285 | 6.0 | 11.0 | 0.00 | 0.01 | 0.01 | 80 | 1007.1 |
| 20260506193403 | 50 | 249 | 6.0 | 11.0 | 0.00 | 0.01 | 0.01 | 80 | 1007.1 |
| 20260506193309 | 50 | 246 | 6.0 | 11.0 | 0.00 | 0.01 | 0.01 | 80 | 1007.1 |
| 20260506193209 | 50 | 280 | 6.0 | 11.0 | 0.00 | 0.01 | 0.01 | 80 | 1007.0 |
| 20260506193103 | 50 | 239 | 6.0 | 12.0 | 0.00 | 0.01 | 0.01 | 80 | 1007.0 |
| 20260506193003 | 50 | 304 | 6.0 | 12.0 | 0.00 | 0.01 | 0.01 | 80 | 1007.0 |
| 20260506192901 | 50 | 282 | 6.0 | 12.0 | 0.00 | 0.01 | 0.01 | 80 | 1007.0 |
| 20260506192801 | 50 | 288 | 6.0 | 12.0 | 0.00 | 0.01 | 0.01 | 80 | 1007.0 |
| 20260506192701 | 50 | 246 | 6.0 | 12.0 | 0.00 | 0.01 | 0.01 | 80 | 1007.1 |
| 20260506192601 | 50 | 273 | 6.0 | 12.0 | 0.00 | 0.01 | 0.01 | 80 | 1007.1 |
| 20260506192501 | 50 | 262 | 6.0 | 12.0 | 0.00 | 0.01 | 0.01 | 80 | 1007.0 |
| 20260506192401 | 50 | 270 | 6.0 | 12.0 | 0.00 | 0.01 | 0.01 | 80 | 1007.1 |
| 20260506192301 | 50 | 275 | 6.0 | 12.0 | 0.00 | 0.01 | 0.01 | 80 | 1007.0 |
| 20260506192202 | 50 | 248 | 6.0 | 12.0 | 0.00 | 0.01 | 0.01 | 80 | 1007.0 |
| 20260506192100 | 50 | 265 | 6.0 | 12.0 | 0.00 | 0.01 | 0.01 | 80 | 1007.0 |
| 20260506192001 | 50 | 242 | 6.0 | 12.0 | 0.00 | 0.01 | 0.01 | 80 | 1007.0 |
| 20260506191901 | 50 | 233 | 5.0 | 11.0 | 0.00 | 0.01 | 0.01 | 80 | 1007.1 |
| 20260506191801 | 50 | 263 | 5.0 | 10.0 | 0.00 | 0.01 | 0.01 | 80 | 1007.0 |
| 20260506191701 | 50 | 276 | 5.0 | 10.0 | 0.00 | 0.01 | 0.01 | 80 | 1007.0 |
| 20260506191601 | 50 | 248 | 5.0 | 10.0 | 0.00 | 0.01 | 0.01 | 80 | 1007.0 |
| 20260506191500 | 50 | 227 | 6.0 | 10.0 | 0.00 | 0.01 | 0.01 | 80 | 1007.0 |
| 20260506191400 | 50 | 230 | 6.0 | 10.0 | 0.00 | 0.01 | 0.01 | 80 | 1007.0 |
| 20260506191301 | 50 | 244 | 6.0 | 10.0 | 0.00 | 0.01 | 0.01 | 80 | 1007.0 |
| 20260506191101 | 50 | 262 | 6.0 | 12.0 | 0.00 | 0.01 | 0.01 | 80 | 1007.1 |
| 20260506191001 | 50 | 274 | 6.0 | 12.0 | 0.00 | 0.01 | 0.01 | 79 | 1007.0 |
| 20260506190901 | 50 | 269 | 6.0 | 12.0 | 0.00 | 0.01 | 0.01 | 79 | 1007.0 |
| 20260506190801 | 50 | 277 | 6.0 | 12.0 | 0.00 | 0.01 | 0.01 | 79 | 1007.0 |
| 20260506190700 | 51 | 265 | 6.0 | 12.0 | 0.00 | 0.01 | 0.01 | 79 | 1007.0 |
| 20260506190600 | 51 | 218 | 6.0 | 12.0 | 0.00 | 0.01 | 0.01 | 79 | 1007.0 |
| 20260506190500 | 50 | 201 | 6.0 | 12.0 | 0.00 | 0.01 | 0.01 | 79 | 1007.0 |
| 20260506190400 | 51 | 254 | 6.0 | 12.0 | 0.00 | 0.01 | 0.01 | 79 | 1007.1 |
| 20260506190301 | 51 | 217 | 6.0 | 12.0 | 0.00 | 0.01 | 0.01 | 79 | 1007.0 |
| 20260506190201 | 51 | 236 | 6.0 | 12.0 | 0.00 | 0.01 | 0.01 | 79 | 1007.0 |
| 20260506190100 | 51 | 211 | 6.0 | 11.0 | 0.00 | 0.01 | 0.01 | 79 | 1006.9 |
| 20260506190001 | 51 | 223 | 6.0 | 11.0 | 0.00 | 0.01 | 0.01 | 80 | 1006.9 |
| 20260506185901 | 51 | 238 | 6.0 | 11.0 | 0.00 | 0.01 | 0.01 | 80 | 1006.8 |
| 20260506185801 | 51 | 226 | 6.0 | 11.0 | 0.00 | 0.01 | 0.01 | 80 | 1006.9 |
| 20260506185701 | 51 | 249 | 6.0 | 11.0 | 0.00 | 0.01 | 0.01 | 79 | 1006.8 |
| 20260506185601 | 51 | 277 | 5.0 | 10.0 | 0.00 | 0.01 | 0.01 | 79 | 1006.8 |
| 20260506185501 | 51 | 240 | 5.0 | 10.0 | 0.00 | 0.01 | 0.01 | 79 | 1006.8 |
| 20260506185400 | 51 | 222 | 5.0 | 9.0 | 0.00 | 0.01 | 0.01 | 80 | 1006.8 |
| 20260506185301 | 51 | 280 | 5.0 | 8.0 | 0.00 | 0.01 | 0.01 | 79 | 1006.8 |
| 20260506185200 | 51 | 221 | 5.0 | 8.0 | 0.00 | 0.01 | 0.01 | 80 | 1006.8 |
| 20260506185100 | 51 | 238 | 5.0 | 8.0 | 0.00 | 0.01 | 0.01 | 79 | 1006.8 |
| 20260506185001 | 51 | 244 | 5.0 | 9.0 | 0.00 | 0.01 | 0.01 | 79 | 1006.8 |
| 20260506184901 | 51 | 245 | 5.0 | 9.0 | 0.00 | 0.01 | 0.01 | 79 | 1006.8 |
| 20260506184801 | 51 | 253 | 5.0 | 9.0 | 0.00 | 0.01 | 0.01 | 79 | 1006.9 |
| 20260506184701 | 51 | 296 | 5.0 | 11.0 | 0.00 | 0.01 | 0.01 | 79 | 1006.8 |
| 20260506184601 | 51 | 250 | 5.0 | 11.0 | 0.00 | 0.01 | 0.01 | 79 | 1006.8 |
| 20260506184501 | 51 | 285 | 5.0 | 11.0 | 0.00 | 0.01 | 0.01 | 79 | 1006.8 |
| 20260506184400 | 51 | 209 | 5.0 | 11.0 | 0.00 | 0.01 | 0.01 | 79 | 1006.9 |
| 20260506184300 | 51 | 260 | 6.0 | 11.0 | 0.00 | 0.01 | 0.01 | 79 | 1006.9 |
| 20260506184201 | 51 | 223 | 6.0 | 11.0 | 0.00 | 0.01 | 0.01 | 79 | 1006.8 |
| 20260506184101 | 51 | 257 | 6.0 | 11.0 | 0.00 | 0.01 | 0.01 | 79 | 1006.9 |
| 20260506184000 | 51 | 227 | 6.0 | 11.0 | 0.00 | 0.01 | 0.01 | 79 | 1006.9 |
| 20260506183900 | 51 | 284 | 6.0 | 11.0 | 0.00 | 0.01 | 0.01 | 79 | 1006.8 |
| 20260506183800 | 51 | 246 | 6.0 | 11.0 | 0.00 | 0.01 | 0.01 | 79 | 1006.9 |
| 20260506183700 | 51 | 248 | 6.0 | 11.0 | 0.00 | 0.01 | 0.01 | 78 | 1006.7 |
| 20260506183601 | 51 | 236 | 6.0 | 11.0 | 0.00 | 0.01 | 0.01 | 78 | 1006.9 |
| 20260506183501 | 51 | 273 | 6.0 | 11.0 | 0.00 | 0.01 | 0.01 | 79 | 1006.9 |
| 20260506183401 | 51 | 277 | 6.0 | 11.0 | 0.00 | 0.01 | 0.01 | 78 | 1006.8 |
| 20260506183301 | 51 | 239 | 6.0 | 12.0 | 0.00 | 0.01 | 0.01 | 78 | 1006.8 |
| 20260506183201 | 51 | 256 | 6.0 | 12.0 | 0.00 | 0.01 | 0.01 | 79 | 1006.8 |
| 20260506183101 | 51 | 271 | 6.0 | 12.0 | 0.00 | 0.01 | 0.01 | 79 | 1006.8 |
| 20260506183000 | 51 | 271 | 6.0 | 12.0 | 0.00 | 0.01 | 0.01 | 79 | 1006.8 |
| 20260506182900 | 51 | 260 | 6.0 | 12.0 | 0.00 | 0.01 | 0.01 | 78 | 1006.8 |
| 20260506182800 | 51 | 264 | 6.0 | 12.0 | 0.00 | 0.01 | 0.01 | 78 | 1006.7 |
| 20260506182700 | 51 | 254 | 6.0 | 12.0 | 0.00 | 0.01 | 0.01 | 78 | 1006.7 |
| 20260506182601 | 51 | 229 | 6.0 | 12.0 | 0.00 | 0.01 | 0.01 | 78 | 1006.8 |
| 20260506182501 | 51 | 262 | 7.0 | 13.0 | 0.00 | 0.01 | 0.01 | 78 | 1006.7 |
| 20260506182401 | 51 | 270 | 7.0 | 13.0 | 0.00 | 0.01 | 0.01 | 78 | 1006.7 |
| 20260506182301 | 51 | 266 | 7.0 | 13.0 | 0.00 | 0.01 | 0.01 | 78 | 1006.7 |
| 20260506182200 | 51 | 238 | 7.0 | 13.0 | 0.00 | 0.01 | 0.01 | 78 | 1006.7 |
| 20260506182101 | 51 | 263 | 7.0 | 13.0 | 0.00 | 0.01 | 0.01 | 78 | 1006.7 |
| 20260506182001 | 51 | 274 | 7.0 | 13.0 | 0.00 | 0.01 | 0.01 | 79 | 1006.5 |
| 20260506181900 | 51 | 255 | 7.0 | 13.0 | 0.00 | 0.01 | 0.01 | 78 | 1006.7 |
| 20260506181800 | 51 | 226 | 7.0 | 13.0 | 0.00 | 0.01 | 0.01 | 78 | 1006.7 |
| 20260506181700 | 51 | 275 | 7.0 | 13.0 | 0.00 | 0.01 | 0.01 | 78 | 1006.5 |
| 20260506181600 | 51 | 223 | 7.0 | 13.0 | 0.00 | 0.01 | 0.01 | 78 | 1006.4 |
| 20260506181501 | 51 | 227 | 6.0 | 13.0 | 0.00 | 0.01 | 0.01 | 78 | 1006.4 |
| 20260506181401 | 51 | 253 | 6.0 | 13.0 | 0.00 | 0.01 | 0.01 | 78 | 1006.4 |
| 20260506181301 | 51 | 236 | 6.0 | 12.0 | 0.00 | 0.01 | 0.01 | 78 | 1006.4 |
| 20260506181201 | 51 | 274 | 6.0 | 12.0 | 0.00 | 0.01 | 0.01 | 78 | 1006.4 |
| 20260506181107 | 52 | 229 | 6.0 | 12.0 | 0.00 | 0.01 | 0.01 | 78 | 1006.3 |
| 20260506181000 | 52 | 281 | 5.0 | 12.0 | 0.00 | 0.01 | 0.01 | 78 | 1006.3 |
| 20260506180901 | 52 | 271 | 5.0 | 12.0 | 0.00 | 0.01 | 0.01 | 78 | 1006.3 |
| 20260506180801 | 52 | 250 | 5.0 | 12.0 | 0.00 | 0.01 | 0.01 | 78 | 1006.4 |
| 20260506180701 | 52 | 273 | 5.0 | 11.0 | 0.00 | 0.01 | 0.01 | 78 | 1006.3 |
| 20260506180603 | 52 | 242 | 5.0 | 11.0 | 0.00 | 0.01 | 0.01 | 78 | 1006.3 |
| 20260506180500 | 52 | 252 | 5.0 | 11.0 | 0.00 | 0.01 | 0.01 | 78 | 1006.3 |
| 20260506180400 | 52 | 277 | 5.0 | 11.0 | 0.00 | 0.01 | 0.01 | 78 | 1006.3 |
| 20260506180300 | 52 | 243 | 5.0 | 11.0 | 0.00 | 0.01 | 0.01 | 78 | 1006.3 |
| 20260506180200 | 52 | 240 | 5.0 | 11.0 | 0.00 | 0.01 | 0.01 | 78 | 1006.2 |
| 20260506180124 | 52 | 243 | 5.0 | 11.0 | 0.00 | 0.01 | 0.01 | 78 | 1006.3 |
| 20260506180116 | 52 | 248 | 5.0 | 11.0 | 0.00 | 0.01 | 0.01 | 78 | 1006.3 |
| 20260506180112 | 52 | 270 | 5.0 | 11.0 | 0.00 | 0.01 | 0.01 | 78 | 1006.2 |
| 20260506175800 | 52 | 272 | 5.0 | 10.0 | 0.00 | 0.01 | 0.01 | 78 | 1006.2 |
| 20260506175701 | 52 | 248 | 5.0 | 10.0 | 0.00 | 0.01 | 0.01 | 78 | 1006.2 |
| 20260506175624 | 52 | 244 | 6.0 | 11.0 | 0.00 | 0.01 | 0.01 | 78 | 1006.2 |
| 20260506175615 | 52 | 243 | 6.0 | 13.0 | 0.00 | 0.01 | 0.01 | 78 | 1006.2 |
| 20260506175611 | 52 | 256 | 7.0 | 13.0 | 0.00 | 0.01 | 0.01 | 78 | 1006.2 |
| 20260506175300 | 52 | 238 | 7.0 | 13.0 | 0.00 | 0.01 | 0.01 | 78 | 1006.2 |
| 20260506175200 | 52 | 242 | 7.0 | 13.0 | 0.00 | 0.01 | 0.01 | 78 | 1006.1 |
| 20260506175101 | 52 | 273 | 7.0 | 13.0 | 0.00 | 0.01 | 0.01 | 78 | 1006.1 |
| 20260506175001 | 52 | 258 | 7.0 | 13.0 | 0.00 | 0.01 | 0.01 | 78 | 1006.0 |
| 20260506174900 | 52 | 216 | 7.0 | 13.0 | 0.00 | 0.01 | 0.01 | 78 | 1006.0 |
| 20260506174800 | 52 | 255 | 7.0 | 13.0 | 0.00 | 0.01 | 0.01 | 78 | 1006.1 |
| 20260506174700 | 52 | 263 | 7.0 | 13.0 | 0.00 | 0.01 | 0.01 | 78 | 1006.1 |
| 20260506174623 | 52 | 272 | 7.0 | 13.0 | 0.00 | 0.01 | 0.01 | 78 | 1006.1 |
| 20260506174615 | 52 | 288 | 6.0 | 11.0 | 0.00 | 0.01 | 0.01 | 78 | 1006.0 |
| 20260506174611 | 52 | 232 | 6.0 | 11.0 | 0.00 | 0.01 | 0.01 | 78 | 1006.1 |
| 20260506174300 | 52 | 218 | 6.0 | 10.0 | 0.00 | 0.01 | 0.01 | 79 | 1006.0 |
| 20260506174200 | 52 | 267 | 6.0 | 10.0 | 0.00 | 0.01 | 0.01 | 79 | 1005.9 |
| 20260506174100 | 52 | 272 | 6.0 | 10.0 | 0.00 | 0.01 | 0.01 | 78 | 1005.9 |
| 20260506174001 | 52 | 214 | 6.0 | 10.0 | 0.00 | 0.01 | 0.01 | 78 | 1005.9 |
| 20260506173901 | 52 | 267 | 6.0 | 11.0 | 0.00 | 0.01 | 0.01 | 79 | 1005.8 |
| 20260506173801 | 52 | 241 | 6.0 | 11.0 | 0.00 | 0.01 | 0.01 | 78 | 1005.8 |
| 20260506173700 | 52 | 273 | 6.0 | 11.0 | 0.00 | 0.01 | 0.01 | 78 | 1005.7 |
| 20260506173600 | 52 | 244 | 6.0 | 11.0 | 0.00 | 0.01 | 0.01 | 78 | 1005.5 |
| 20260506173500 | 52 | 280 | 6.0 | 12.0 | 0.00 | 0.01 | 0.01 | 78 | 1005.5 |
| 20260506173400 | 52 | 255 | 6.0 | 12.0 | 0.00 | 0.01 | 0.01 | 78 | 1005.5 |
| 20260506173300 | 52 | 278 | 6.0 | 12.0 | 0.00 | 0.01 | 0.01 | 78 | 1005.5 |
| 20260506173200 | 52 | 259 | 7.0 | 13.0 | 0.00 | 0.01 | 0.01 | 78 | 1005.4 |
| 20260506173101 | 51 | 258 | 7.0 | 14.0 | 0.00 | 0.01 | 0.01 | 78 | 1005.5 |
| 20260506173000 | 52 | 246 | 8.0 | 14.0 | 0.00 | 0.01 | 0.01 | 78 | 1005.5 |
| 20260506172901 | 52 | 240 | 8.0 | 14.0 | 0.00 | 0.01 | 0.01 | 78 | 1005.4 |
| 20260506172801 | 52 | 230 | 9.0 | 15.0 | 0.00 | 0.01 | 0.01 | 78 | 1005.5 |
| 20260506172701 | 52 | 250 | 9.0 | 15.0 | 0.00 | 0.01 | 0.01 | 78 | 1005.4 |
| 20260506172601 | 52 | 272 | 9.0 | 15.0 | 0.00 | 0.01 | 0.01 | 78 | 1005.4 |
| 20260506172501 | 52 | 251 | 10.0 | 16.0 | 0.00 | 0.01 | 0.01 | 77 | 1005.4 |
| 20260506172400 | 52 | 263 | 10.0 | 17.0 | 0.00 | 0.01 | 0.01 | 78 | 1005.4 |
| 20260506172300 | 52 | 242 | 11.0 | 17.0 | 0.00 | 0.01 | 0.01 | 78 | 1005.4 |
| 20260506172200 | 52 | 267 | 11.0 | 17.0 | 0.00 | 0.01 | 0.01 | 78 | 1005.5 |
| 20260506172100 | 52 | 285 | 11.0 | 17.0 | 0.00 | 0.01 | 0.01 | 77 | 1005.6 |
| 20260506172000 | 52 | 261 | 11.0 | 17.0 | 0.00 | 0.01 | 0.01 | 78 | 1005.3 |
| 20260506171901 | 52 | 273 | 11.0 | 17.0 | 0.00 | 0.01 | 0.01 | 78 | 1005.3 |
| 20260506171800 | 52 | 269 | 11.0 | 17.0 | 0.00 | 0.01 | 0.01 | 78 | 1005.3 |
| 20260506171700 | 52 | 253 | 10.0 | 17.0 | 0.00 | 0.01 | 0.01 | 78 | 1005.4 |
| 20260506171600 | 52 | 230 | 10.0 | 17.0 | 0.00 | 0.01 | 0.01 | 77 | 1005.4 |
| 20260506171500 | 52 | 286 | 11.0 | 19.0 | 0.00 | 0.01 | 0.01 | 78 | 1005.4 |
| 20260506171400 | 52 | 268 | 11.0 | 19.0 | 0.00 | 0.01 | 0.01 | 78 | 1005.3 |
| 20260506171300 | 52 | 250 | 11.0 | 19.0 | 0.00 | 0.01 | 0.01 | 77 | 1005.4 |
| 20260506171200 | 52 | 292 | 11.0 | 19.0 | 0.00 | 0.01 | 0.01 | 77 | 1005.3 |
| 20260506171100 | 52 | 233 | 11.0 | 19.0 | 0.00 | 0.01 | 0.01 | 78 | 1005.3 |
| 20260506171001 | 52 | 248 | 11.0 | 19.0 | 0.00 | 0.01 | 0.01 | 78 | 1005.5 |
| 20260506170901 | 52 | 277 | 11.0 | 19.0 | 0.00 | 0.01 | 0.01 | 78 | 1005.3 |
| 20260506170800 | 52 | 253 | 12.0 | 19.0 | 0.00 | 0.01 | 0.01 | 78 | 1005.3 |
| 20260506170700 | 52 | 252 | 12.0 | 19.0 | 0.00 | 0.01 | 0.01 | 77 | 1005.3 |
| 20260506170600 | 52 | 254 | 12.0 | 19.0 | 0.00 | 0.01 | 0.01 | 77 | 1005.4 |
| 20260506170501 | 52 | 263 | 12.0 | 19.0 | 0.00 | 0.01 | 0.01 | 77 | 1005.4 |
| 20260506170401 | 52 | 282 | 12.0 | 19.0 | 0.00 | 0.02 | 0.01 | 78 | 1005.4 |
| 20260506170300 | 52 | 256 | 12.0 | 19.0 | 0.00 | 0.02 | 0.01 | 78 | 1005.6 |
| 20260506170200 | 52 | 220 | 12.0 | 19.0 | 0.00 | 0.02 | 0.01 | 78 | 1005.5 |
| 20260506170100 | 52 | 268 | 12.0 | 20.0 | 0.00 | 0.02 | 0.01 | 78 | 1005.3 |
| 20260506170001 | 52 | 210 | 12.0 | 20.0 | 0.00 | 0.02 | 0.01 | 77 | 1005.3 |
| 20260506165901 | 52 | 240 | 12.0 | 20.0 | 0.00 | 0.02 | 0.01 | 77 | 1005.5 |
| 20260506165800 | 52 | 266 | 12.0 | 20.0 | 0.00 | 0.02 | 0.01 | 77 | 1005.3 |
| 20260506165700 | 52 | 269 | 12.0 | 20.0 | 0.00 | 0.02 | 0.01 | 77 | 1005.2 |
| 20260506165600 | 53 | 256 | 12.0 | 20.0 | 0.00 | 0.02 | 0.01 | 78 | 1005.2 |
| 20260506165500 | 53 | 277 | 12.0 | 20.0 | 0.00 | 0.02 | 0.01 | 77 | 1005.6 |
| 20260506165400 | 53 | 255 | 13.0 | 21.0 | 0.00 | 0.02 | 0.01 | 78 | 1005.2 |
| 20260506165300 | 53 | 254 | 13.0 | 21.0 | 0.00 | 0.02 | 0.01 | 77 | 1005.4 |
| 20260506165202 | 53 | 237 | 13.0 | 21.0 | 0.00 | 0.02 | 0.01 | 78 | 1005.4 |
| 20260506165101 | 53 | 269 | 13.0 | 21.0 | 0.00 | 0.02 | 0.01 | 78 | 1005.2 |
| 20260506165001 | 53 | 302 | 14.0 | 21.0 | 0.00 | 0.02 | 0.01 | 77 | 1005.3 |
| 20260506164901 | 53 | 258 | 15.0 | 25.0 | 0.00 | 0.02 | 0.01 | 77 | 1005.3 |
| 20260506164801 | 53 | 256 | 15.0 | 25.0 | 0.00 | 0.02 | 0.01 | 77 | 1005.3 |
| 20260506164700 | 53 | 245 | 15.0 | 25.0 | 0.00 | 0.02 | 0.01 | 76 | 1005.5 |
| 20260506164600 | 53 | 282 | 15.0 | 25.0 | 0.00 | 0.02 | 0.01 | 76 | 1005.8 |
| 20260506164500 | 53 | 244 | 15.0 | 25.0 | 0.00 | 0.02 | 0.01 | 76 | 1005.8 |
| 20260506164400 | 53 | 288 | 14.0 | 25.0 | 0.00 | 0.02 | 0.01 | 76 | 1005.3 |
| 20260506164301 | 53 | 273 | 14.0 | 25.0 | 0.00 | 0.02 | 0.01 | 77 | 1005.3 |
| 20260506164200 | 53 | 236 | 14.0 | 25.0 | 0.00 | 0.02 | 0.01 | 76 | 1005.3 |
| 20260506164100 | 53 | 292 | 13.0 | 25.0 | 0.00 | 0.02 | 0.01 | 76 | 1005.5 |
| 20260506164001 | 53 | 277 | 13.0 | 25.0 | 0.00 | 0.02 | 0.01 | 77 | 1005.5 |
| 20260506163901 | 53 | 271 | 13.0 | 23.0 | 0.00 | 0.02 | 0.01 | 77 | 1005.6 |
| 20260506163800 | 53 | 240 | 13.0 | 23.0 | 0.01 | 0.02 | 0.01 | 77 | 1005.6 |
| 20260506163700 | 53 | 267 | 12.0 | 23.0 | 0.01 | 0.02 | 0.01 | 78 | 1005.8 |
| 20260506163600 | 53 | 242 | 12.0 | 23.0 | 0.01 | 0.02 | 0.01 | 80 | 1005.4 |
| 20260506163500 | 53 | 289 | 11.0 | 23.0 | 0.01 | 0.02 | 0.01 | 80 | 1005.3 |
| 20260506163400 | 53 | 270 | 11.0 | 23.0 | 0.01 | 0.02 | 0.01 | 79 | 1005.3 |
| 20260506163300 | 53 | 247 | 11.0 | 23.0 | 0.01 | 0.02 | 0.01 | 79 | 1005.3 |
| 20260506163200 | 53 | 284 | 11.0 | 23.0 | 0.01 | 0.02 | 0.01 | 78 | 1005.4 |
| 20260506163101 | 53 | 265 | 10.0 | 23.0 | 0.01 | 0.02 | 0.01 | 79 | 1005.2 |
| 20260506163000 | 53 | 281 | 10.0 | 23.0 | 0.01 | 0.02 | 0.01 | 79 | 1005.3 |
| 20260506162901 | 53 | 297 | 9.0 | 15.0 | 0.01 | 0.02 | 0.01 | 80 | 1005.4 |
| 20260506162801 | 53 | 265 | 9.0 | 15.0 | 0.01 | 0.02 | 0.01 | 81 | 1005.5 |
| 20260506162701 | 53 | 282 | 9.0 | 14.0 | 0.01 | 0.02 | 0.01 | 81 | 1005.2 |
| 20260506162600 | 53 | 221 | 8.0 | 14.0 | 0.01 | 0.02 | 0.01 | 81 | 1005.2 |
| 20260506162500 | 53 | 257 | 8.0 | 14.0 | 0.01 | 0.02 | 0.01 | 82 | 1005.2 |
| 20260506162400 | 53 | 269 | 9.0 | 14.0 | 0.01 | 0.02 | 0.01 | 82 | 1005.1 |
| 20260506162300 | 53 | 241 | 9.0 | 14.0 | 0.01 | 0.02 | 0.01 | 81 | 1005.1 |
| 20260506162200 | 53 | 270 | 9.0 | 20.0 | 0.01 | 0.02 | 0.01 | 81 | 1005.2 |
| 20260506162101 | 53 | 289 | 10.0 | 20.0 | 0.01 | 0.02 | 0.01 | 81 | 1005.1 |
| 20260506162000 | 53 | 285 | 10.0 | 20.0 | 0.01 | 0.02 | 0.01 | 81 | 1005.1 |
| 20260506161900 | 53 | 273 | 10.0 | 20.0 | 0.01 | 0.02 | 0.01 | 82 | 1005.1 |
| 20260506161800 | 53 | 268 | 10.0 | 20.0 | 0.01 | 0.02 | 0.01 | 82 | 1005.2 |
| 20260506161700 | 53 | 242 | 11.0 | 20.0 | 0.01 | 0.02 | 0.01 | 82 | 1005.1 |
| 20260506161600 | 53 | 264 | 11.0 | 20.0 | 0.01 | 0.02 | 0.01 | 81 | 1005.2 |
| 20260506161500 | 53 | 263 | 12.0 | 20.0 | 0.01 | 0.02 | 0.01 | 81 | 1005.1 |
| 20260506161400 | 53 | 248 | 12.0 | 20.0 | 0.01 | 0.02 | 0.01 | 81 | 1005.2 |
| 20260506161301 | 53 | 260 | 12.0 | 20.0 | 0.01 | 0.02 | 0.01 | 81 | 1005.3 |
| 20260506161201 | 53 | 263 | 12.0 | 19.0 | 0.01 | 0.02 | 0.01 | 82 | 1005.3 |
| 20260506161124 | 53 | 262 | 11.0 | 19.0 | 0.01 | 0.02 | 0.01 | 82 | 1005.2 |
| 20260506161120 | 53 | 269 | 12.0 | 19.0 | 0.01 | 0.02 | 0.01 | 82 | 1005.2 |
| 20260506161112 | 53 | 269 | 11.0 | 19.0 | 0.01 | 0.02 | 0.01 | 82 | 1005.1 |
| 20260506160801 | 53 | 270 | 11.0 | 19.0 | 0.01 | 0.02 | 0.01 | 83 | 1005.0 |
| 20260506160701 | 53 | 266 | 11.0 | 19.0 | 0.01 | 0.02 | 0.01 | 83 | 1005.2 |
| 20260506160601 | 53 | 294 | 10.0 | 19.0 | 0.01 | 0.02 | 0.01 | 84 | 1005.0 |
| 20260506160503 | 53 | 230 | 10.0 | 19.0 | 0.01 | 0.02 | 0.01 | 84 | 1005.0 |
| 20260506160400 | 53 | 255 | 10.0 | 19.0 | 0.01 | 0.02 | 0.01 | 85 | 1005.1 |
| 20260506160301 | 53 | 263 | 10.0 | 19.0 | 0.01 | 0.02 | 0.01 | 84 | 1004.9 |
| 20260506160201 | 53 | 268 | 11.0 | 19.0 | 0.01 | 0.02 | 0.01 | 85 | 1004.7 |
| 20260506160124 | 53 | 238 | 11.0 | 19.0 | 0.01 | 0.02 | 0.01 | 85 | 1005.0 |
| 20260506160120 | 53 | 278 | 10.0 | 17.0 | 0.01 | 0.02 | 0.01 | 85 | 1004.9 |
| 20260506160111 | 52 | 274 | 10.0 | 17.0 | 0.01 | 0.02 | 0.01 | 84 | 1004.9 |
| 20260506155801 | 52 | 224 | 10.0 | 17.0 | 0.01 | 0.02 | 0.01 | 84 | 1004.9 |
| 20260506155701 | 52 | 273 | 10.0 | 17.0 | 0.01 | 0.02 | 0.01 | 84 | 1004.7 |
| 20260506155601 | 52 | 257 | 11.0 | 18.0 | 0.01 | 0.02 | 0.01 | 84 | 1004.7 |
| 20260506155501 | 52 | 273 | 11.0 | 18.0 | 0.01 | 0.02 | 0.01 | 83 | 1004.9 |
| 20260506155401 | 53 | 268 | 11.0 | 18.0 | 0.01 | 0.02 | 0.01 | 84 | 1005.0 |
| 20260506155305 | 53 | 265 | 11.0 | 20.0 | 0.01 | 0.02 | 0.01 | 83 | 1004.9 |
| 20260506155201 | 53 | 268 | 11.0 | 20.0 | 0.01 | 0.02 | 0.01 | 83 | 1005.1 |
| 20260506155124 | 53 | 272 | 12.0 | 20.0 | 0.01 | 0.02 | 0.01 | 83 | 1004.9 |
| 20260506155120 | 53 | 229 | 11.0 | 20.0 | 0.01 | 0.02 | 0.01 | 83 | 1004.9 |
| 20260506155111 | 53 | 264 | 12.0 | 20.0 | 0.01 | 0.02 | 0.01 | 82 | 1004.6 |
| 20260506154756 | 53 | 283 | 12.0 | 20.0 | 0.01 | 0.02 | 0.01 | 82 | 1004.6 |
| 20260506154656 | 53 | 270 | 12.0 | 20.0 | 0.01 | 0.02 | 0.01 | 81 | 1004.5 |
| 20260506154557 | 53 | 302 | 13.0 | 20.0 | 0.01 | 0.02 | 0.01 | 81 | 1004.5 |
| 20260506154458 | 53 | 271 | 13.0 | 20.0 | 0.01 | 0.02 | 0.01 | 80 | 1004.5 |
| 20260506154401 | 54 | 263 | 13.0 | 23.0 | 0.01 | 0.02 | 0.01 | 80 | 1004.7 |
| 20260506154356 | 54 | 250 | 13.0 | 23.0 | 0.01 | 0.02 | 0.01 | 80 | 1004.6 |
| 20260506154256 | 54 | 268 | 13.0 | 23.0 | 0.01 | 0.02 | 0.01 | 79 | 1004.6 |
| 20260506154156 | 54 | 282 | 13.0 | 24.0 | 0.01 | 0.02 | 0.01 | 78 | 1004.6 |
| 20260506154054 | 55 | 263 | 13.0 | 24.0 | 0.01 | 0.02 | 0.01 | 77 | 1004.7 |
| 20260506153954 | 55 | 251 | 14.0 | 25.0 | 0.01 | 0.02 | 0.01 | 76 | 1004.6 |
| 20260506153900 | 56 | 276 | 14.0 | 25.0 | 0.01 | 0.02 | 0.00 | 75 | 1004.6 |
| 20260506153854 | 56 | 273 | 14.0 | 26.0 | 0.01 | 0.02 | 0.00 | 75 | 1004.6 |
| 20260506153752 | 56 | 292 | 15.0 | 26.0 | 0.00 | 0.01 | 0.00 | 74 | 1004.7 |
| 20260506153652 | 57 | 258 | 15.0 | 34.0 | 0.00 | 0.01 | 0.00 | 73 | 1004.6 |
| 20260506153552 | 57 | 277 | 15.0 | 34.0 | 0.00 | 0.01 | 0.00 | 70 | 1004.6 |
| 20260506153453 | 58 | 257 | 14.0 | 34.0 | 0.00 | 0.01 | 0.00 | 69 | 1004.5 |
| 20260506153401 | 58 | 265 | 14.0 | 34.0 | 0.00 | 0.01 | 0.00 | 67 | 1004.5 |
| 20260506153353 | 58 | 248 | 13.0 | 34.0 | 0.00 | 0.01 | 0.00 | 67 | 1004.5 |
| 20260506153253 | 59 | 243 | 13.0 | 34.0 | 0.00 | 0.01 | 0.00 | 66 | 1004.7 |
| 20260506153152 | 60 | 250 | 11.0 | 34.0 | 0.00 | 0.01 | 0.00 | 65 | 1004.5 |
| 20260506153052 | 60 | 283 | 10.0 | 34.0 | 0.00 | 0.01 | 0.00 | 63 | 1004.3 |
| 20260506152952 | 61 | 220 | 9.0 | 34.0 | 0.00 | 0.01 | 0.00 | 62 | 1004.5 |
| 20260506152900 | 62 | 286 | 9.0 | 34.0 | 0.00 | 0.01 | 0.00 | 62 | 1004.5 |
| 20260506152852 | 62 | 331 | 9.0 | 34.0 | 0.00 | 0.01 | 0.00 | 62 | 1004.7 |
| 20260506152752 | 62 | 234 | 7.0 | 34.0 | 0.00 | 0.01 | 0.00 | 62 | 1004.3 |
| 20260506152652 | 62 | 265 | 6.0 | 21.0 | 0.00 | 0.01 | 0.00 | 63 | 1003.7 |
| 20260506152628 | 63 | 227 | 5.0 | 11.0 | 0.00 | 0.01 | 0.00 | 62 | 1003.4 |
| 20260506152621 | 63 | 211 | 5.0 | 12.0 | 0.00 | 0.01 | 0.00 | 63 | 1003.7 |
| 20260506152617 | 63 | 219 | 5.0 | 11.0 | 0.00 | 0.01 | 0.00 | 62 | 1003.4 |
| 20260506152347 | 63 | 205 | 5.0 | 11.0 | 0.00 | 0.01 | 0.00 | 62 | 1003.3 |
| 20260506152246 | 63 | 220 | 5.0 | 11.0 | 0.00 | 0.01 | 0.00 | 62 | 1003.2 |
| 20260506152145 | 63 | 223 | 5.0 | 11.0 | 0.00 | 0.01 | 0.00 | 62 | 1003.3 |
| 20260506152042 | 63 | 234 | 5.0 | 11.0 | 0.00 | 0.01 | 0.00 | 62 | 1003.3 |
| 20260506151945 | 63 | 214 | 4.0 | 11.0 | 0.00 | 0.01 | 0.00 | 62 | 1003.2 |
| 20260506151901 | 63 | 210 | 4.0 | 11.0 | 0.00 | 0.01 | 0.00 | 62 | 1003.2 |
| 20260506151843 | 64 | 212 | 4.0 | 11.0 | 0.00 | 0.01 | 0.00 | 62 | 1003.2 |
| 20260506151742 | 64 | 219 | 4.0 | 10.0 | 0.00 | 0.01 | 0.00 | 62 | 1003.2 |
| 20260506151639 | 64 | 196 | 3.0 | 9.0 | 0.00 | 0.01 | 0.00 | 62 | 1003.1 |
| 20260506151541 | 64 | 203 | 3.0 | 9.0 | 0.00 | 0.01 | 0.00 | 61 | 1003.1 |
| 20260506151442 | 64 | 204 | 3.0 | 9.0 | 0.00 | 0.01 | 0.00 | 61 | 1003.1 |
| 20260506151401 | 64 | 148 | 3.0 | 9.0 | 0.00 | 0.01 | 0.00 | 62 | 1003.1 |
| 20260506151340 | 64 | 145 | 2.0 | 8.0 | 0.00 | 0.01 | 0.00 | 61 | 1003.0 |
| 20260506151240 | 64 | 126 | 2.0 | 8.0 | 0.00 | 0.01 | 0.00 | 62 | 1002.8 |
| 20260506151139 | 64 | 221 | 2.0 | 8.0 | 0.00 | 0.01 | 0.00 | 61 | 1002.8 |
| 20260506151125 | 64 | 192 | 2.0 | 8.0 | 0.00 | 0.01 | 0.00 | 61 | 1002.7 |
| 20260506151119 | 64 | 188 | 2.0 | 8.0 | 0.00 | 0.01 | 0.00 | 61 | 1002.7 |
| 20260506151115 | 64 | 191 | 2.0 | 8.0 | 0.00 | 0.01 | 0.00 | 61 | 1002.7 |
| 20260506150836 | 64 | 192 | 3.0 | 8.0 | 0.00 | 0.01 | 0.00 | 62 | 1002.6 |
| 20260506150734 | 64 | 132 | 3.0 | 7.0 | 0.00 | 0.01 | 0.00 | 63 | 1002.6 |
| 20260506150634 | 64 | 119 | 3.0 | 10.0 | 0.00 | 0.01 | 0.00 | 62 | 1002.6 |
| 20260506150533 | 64 | 120 | 3.0 | 10.0 | 0.00 | 0.01 | 0.00 | 63 | 1002.7 |
| 20260506150431 | 64 | 117 | 4.0 | 10.0 | 0.00 | 0.01 | 0.00 | 62 | 1002.6 |
| 20260506150400 | 64 | 117 | 4.0 | 10.0 | 0.00 | 0.01 | 0.00 | 63 | 1002.6 |
| 20260506150330 | 64 | 117 | 4.0 | 10.0 | 0.00 | 0.01 | 0.00 | 63 | 1002.6 |
| 20260506150229 | 64 | 196 | 3.0 | 10.0 | 0.00 | 0.01 | 0.00 | 64 | 1002.6 |
| 20260506150129 | 64 | 237 | 3.0 | 10.0 | 0.00 | 0.01 | 0.00 | 64 | 1002.7 |
| 20260506150029 | 64 | 236 | 3.0 | 10.0 | 0.00 | 0.01 | 0.00 | 64 | 1002.6 |
| 20260506145929 | 64 | 197 | 3.0 | 10.0 | 0.00 | 0.01 | 0.00 | 64 | 1002.7 |
| 20260506145902 | 64 | 197 | 3.0 | 10.0 | 0.00 | 0.01 | 0.00 | 63 | 1002.7 |
| 20260506145829 | 64 | 184 | 3.0 | 10.0 | 0.00 | 0.01 | 0.00 | 63 | 1002.7 |
| 20260506145729 | 64 | 150 | 3.0 | 10.0 | 0.00 | 0.01 | 0.00 | 64 | 1002.7 |
| 20260506145629 | 64 | 119 | 3.0 | 7.0 | 0.00 | 0.01 | 0.00 | 64 | 1002.7 |
| 20260506145530 | 64 | 190 | 3.0 | 7.0 | 0.00 | 0.01 | 0.00 | 65 | 1002.6 |
| 20260506145434 | 63 | 195 | 3.0 | 7.0 | 0.00 | 0.01 | 0.00 | 64 | 1002.7 |
| 20260506145402 | 63 | 202 | 3.0 | 7.0 | 0.00 | 0.01 | 0.00 | 65 | 1002.7 |
| 20260506145329 | 63 | 216 | 3.0 | 7.0 | 0.00 | 0.01 | 0.00 | 65 | 1002.7 |
| 20260506145229 | 63 | 200 | 4.0 | 10.0 | 0.00 | 0.01 | 0.00 | 66 | 1002.7 |
| 20260506145129 | 63 | 200 | 4.0 | 10.0 | 0.00 | 0.01 | 0.00 | 66 | 1002.7 |
| 20260506145125 | 62 | 205 | 4.0 | 10.0 | 0.00 | 0.01 | 0.00 | 65 | 1002.7 |
| 20260506145119 | 63 | 194 | 4.0 | 10.0 | 0.00 | 0.01 | 0.00 | 67 | 1002.7 |
| 20260506145115 | 63 | 172 | 4.0 | 10.0 | 0.00 | 0.01 | 0.00 | 66 | 1002.7 |
| 20260506144829 | 62 | 208 | 4.0 | 10.0 | 0.00 | 0.01 | 0.00 | 65 | 1002.7 |
| 20260506144729 | 62 | 198 | 4.0 | 10.0 | 0.00 | 0.01 | 0.00 | 66 | 1002.7 |
| 20260506144633 | 62 | 142 | 4.0 | 10.0 | 0.00 | 0.01 | 0.00 | 67 | 1002.7 |
| 20260506144628 | 62 | 177 | 4.0 | 10.0 | 0.00 | 0.01 | 0.00 | 68 | 1002.8 |
| 20260506144620 | 62 | 171 | 4.0 | 10.0 | 0.00 | 0.01 | 0.00 | 67 | 1002.8 |
| 20260506144616 | 62 | 153 | 4.0 | 10.0 | 0.00 | 0.01 | 0.00 | 67 | 1002.7 |
| 20260506144329 | 62 | 130 | 4.0 | 10.0 | 0.00 | 0.01 | 0.00 | 67 | 1002.7 |
| 20260506144229 | 62 | 169 | 3.0 | 7.0 | 0.00 | 0.01 | 0.00 | 68 | 1002.7 |
| 20260506144129 | 62 | 178 | 3.0 | 7.0 | 0.00 | 0.01 | 0.00 | 67 | 1002.7 |
| 20260506144028 | 62 | 153 | 3.0 | 7.0 | 0.00 | 0.01 | 0.00 | 68 | 1002.7 |
| 20260506143901 | 61 | 107 | 3.0 | 7.0 | 0.00 | 0.01 | 0.00 | 66 | 1002.6 |
| 20260506143828 | 61 | 124 | 2.0 | 7.0 | 0.00 | 0.01 | 0.00 | 67 | 1002.6 |
| 20260506143728 | 61 | 140 | 2.0 | 6.0 | 0.00 | 0.01 | 0.00 | 67 | 1002.6 |
| 20260506143628 | 61 | 131 | 2.0 | 6.0 | 0.00 | 0.01 | 0.00 | 66 | 1002.6 |
| 20260506143528 | 61 | 127 | 2.0 | 6.0 | 0.00 | 0.01 | 0.00 | 66 | 1002.6 |
| 20260506143429 | 61 | 137 | 1.0 | 5.0 | 0.00 | 0.01 | 0.00 | 68 | 1002.6 |
| 20260506143400 | 61 | 128 | 1.0 | 5.0 | 0.00 | 0.01 | 0.00 | 68 | 1002.6 |
| 20260506143328 | 61 | 123 | 1.0 | 5.0 | 0.00 | 0.01 | 0.00 | 69 | 1002.6 |
| 20260506143225 | 61 | 115 | 1.0 | 5.0 | 0.00 | 0.01 | 0.00 | 69 | 1002.6 |
| 20260506143124 | 61 | 146 | 1.0 | 5.0 | 0.00 | 0.01 | 0.00 | 70 | 1002.6 |
| 20260506143024 | 61 | 165 | 1.0 | 5.0 | 0.00 | 0.01 | 0.00 | 69 | 1002.7 |
| 20260506142922 | 61 | 165 | 1.0 | 5.0 | 0.00 | 0.01 | 0.00 | 69 | 1002.7 |
| 20260506142906 | 61 | 166 | 1.0 | 5.0 | 0.00 | 0.01 | 0.00 | 70 | 1002.7 |
| 20260506142822 | 61 | 166 | 1.0 | 5.0 | 0.00 | 0.01 | 0.00 | 70 | 1002.7 |
| 20260506142722 | 61 | 166 | 1.0 | 5.0 | 0.00 | 0.01 | 0.00 | 69 | 1002.7 |
| 20260506142620 | 61 | 166 | 1.0 | 5.0 | 0.00 | 0.01 | 0.00 | 70 | 1002.7 |
| 20260506142518 | 60 | 162 | 1.0 | 5.0 | 0.00 | 0.01 | 0.00 | 72 | 1002.7 |
| 20260506142402 | 60 | 292 | 2.0 | 7.0 | 0.00 | 0.01 | 0.00 | 71 | 1002.7 |
| 20260506142316 | 60 | 292 | 2.0 | 7.0 | 0.00 | 0.01 | 0.00 | 71 | 1002.7 |
| 20260506142213 | 60 | 292 | 2.0 | 7.0 | 0.00 | 0.01 | 0.00 | 69 | 1002.6 |
| 20260506142114 | 60 | 292 | 3.0 | 9.0 | 0.00 | 0.01 | 0.00 | 69 | 1002.7 |
| 20260506142012 | 60 | 292 | 3.0 | 9.0 | 0.00 | 0.01 | 0.00 | 69 | 1002.6 |
| 20260506141910 | 60 | 292 | 4.0 | 9.0 | 0.00 | 0.01 | 0.00 | 69 | 1002.6 |
| 20260506141901 | 60 | 285 | 4.0 | 9.0 | 0.00 | 0.01 | 0.00 | 71 | 1002.6 |
| 20260506141810 | 60 | 285 | 4.0 | 9.0 | 0.00 | 0.01 | 0.00 | 68 | 1002.7 |
| 20260506141707 | 60 | 140 | 4.0 | 9.0 | 0.00 | 0.01 | 0.00 | 69 | 1002.8 |
| 20260506141606 | 60 | 140 | 4.0 | 9.0 | 0.00 | 0.01 | 0.00 | 69 | 1003.0 |
| 20260506141506 | 60 | 227 | 4.0 | 9.0 | 0.00 | 0.01 | 0.00 | 70 | 1003.1 |
| 20260506141405 | 60 | 223 | 4.0 | 9.0 | 0.00 | 0.01 | 0.00 | 70 | 1003.2 |
| 20260506141401 | 60 | 227 | 4.0 | 9.0 | 0.00 | 0.01 | 0.00 | 70 | 1003.2 |
| 20260506141304 | 60 | 234 | 4.0 | 10.0 | 0.00 | 0.01 | 0.00 | 69 | 1003.3 |
| 20260506141204 | 60 | 237 | 4.0 | 10.0 | 0.00 | 0.01 | 0.00 | 69 | 1003.3 |
| 20260506141104 | 60 | 249 | 4.0 | 10.0 | 0.00 | 0.01 | 0.00 | 69 | 1003.4 |
| 20260506141004 | 60 | 205 | 4.0 | 10.0 | 0.00 | 0.01 | 0.00 | 69 | 1003.4 |
| 20260506140901 | 60 | 205 | 4.0 | 10.0 | 0.00 | 0.01 | 0.00 | 68 | 1003.4 |
| 20260506140804 | 60 | 223 | 4.0 | 10.0 | 0.00 | 0.01 | 0.00 | 68 | 1003.5 |
| 20260506140704 | 60 | 225 | 4.0 | 10.0 | 0.00 | 0.01 | 0.00 | 67 | 1003.4 |
| 20260506140620 | 60 | 236 | 4.0 | 10.0 | 0.00 | 0.01 | 0.00 | 67 | 1003.4 |
| 20260506140616 | 60 | 192 | 5.0 | 10.0 | 0.00 | 0.01 | 0.00 | 68 | 1003.3 |
| 20260506140612 | 60 | 207 | 5.0 | 10.0 | 0.00 | 0.01 | 0.00 | 68 | 1003.3 |
| 20260506140302 | 60 | 238 | 5.0 | 10.0 | 0.00 | 0.01 | 0.00 | 67 | 1003.3 |
| 20260506140202 | 60 | 178 | 5.0 | 10.0 | 0.00 | 0.01 | 0.00 | 66 | 1003.2 |
| 20260506140002 | 60 | 193 | 5.0 | 10.0 | 0.00 | 0.01 | 0.00 | 66 | 1003.3 |
| 20260506135901 | 60 | 169 | 4.0 | 10.0 | 0.00 | 0.01 | 0.00 | 67 | 1003.2 |
| 20260506135801 | 60 | 154 | 4.0 | 10.0 | 0.00 | 0.01 | 0.00 | 69 | 1003.3 |
| 20260506135701 | 60 | 129 | 4.0 | 10.0 | 0.00 | 0.01 | 0.00 | 67 | 1003.3 |
| 20260506135601 | 60 | 211 | 4.0 | 10.0 | 0.00 | 0.01 | 0.00 | 66 | 1003.2 |
| 20260506135501 | 60 | 167 | 4.0 | 9.0 | 0.00 | 0.01 | 0.00 | 68 | 1003.3 |
| 20260506135401 | 59 | 169 | 4.0 | 8.0 | 0.00 | 0.01 | 0.00 | 69 | 1003.3 |
| 20260506135301 | 59 | 209 | 4.0 | 12.0 | 0.00 | 0.01 | 0.00 | 69 | 1003.3 |
| 20260506135200 | 59 | 136 | 4.0 | 12.0 | 0.00 | 0.01 | 0.00 | 70 | 1003.3 |
| 20260506135100 | 59 | 173 | 4.0 | 12.0 | 0.00 | 0.01 | 0.00 | 70 | 1003.4 |
| 20260506135001 | 59 | 190 | 4.0 | 12.0 | 0.00 | 0.01 | 0.00 | 69 | 1003.4 |
| 20260506134903 | 59 | 177 | 5.0 | 12.0 | 0.00 | 0.01 | 0.00 | 68 | 1003.5 |
| 20260506134801 | 59 | 187 | 5.0 | 12.0 | 0.00 | 0.01 | 0.00 | 70 | 1003.5 |
| 20260506134700 | 59 | 193 | 5.0 | 12.0 | 0.00 | 0.01 | 0.00 | 69 | 1003.6 |
| 20260506134600 | 59 | 187 | 5.0 | 12.0 | 0.00 | 0.01 | 0.00 | 69 | 1003.6 |
| 20260506134500 | 59 | 181 | 5.0 | 12.0 | 0.00 | 0.01 | 0.00 | 68 | 1003.6 |
| 20260506134401 | 59 | 195 | 4.0 | 12.0 | 0.00 | 0.01 | 0.00 | 67 | 1003.5 |
| 20260506134301 | 60 | 175 | 4.0 | 11.0 | 0.00 | 0.01 | 0.00 | 67 | 1003.5 |
| 20260506134201 | 60 | 221 | 4.0 | 11.0 | 0.00 | 0.01 | 0.00 | 67 | 1003.5 |
| 20260506134101 | 60 | 153 | 3.0 | 11.0 | 0.00 | 0.01 | 0.00 | 66 | 1003.5 |
| 20260506134001 | 60 | 142 | 3.0 | 10.0 | 0.00 | 0.01 | 0.00 | 67 | 1003.5 |
| 20260506133901 | 60 | 158 | 3.0 | 10.0 | 0.00 | 0.01 | 0.00 | 68 | 1003.5 |
| 20260506133800 | 60 | 125 | 2.0 | 10.0 | 0.00 | 0.01 | 0.00 | 69 | 1003.5 |
| 20260506133701 | 60 | 119 | 1.0 | 4.0 | 0.00 | 0.01 | 0.00 | 69 | 1003.5 |
| 20260506133601 | 60 | 121 | 1.0 | 4.0 | 0.00 | 0.01 | 0.00 | 68 | 1003.5 |
| 20260506133501 | 60 | 132 | 1.0 | 3.0 | 0.00 | 0.01 | 0.00 | 69 | 1003.4 |
| 20260506133403 | 60 | 134 | 1.0 | 3.0 | 0.00 | 0.01 | 0.00 | 69 | 1003.4 |
| 20260506133301 | 60 | 134 | 1.0 | 3.0 | 0.00 | 0.01 | 0.00 | 68 | 1003.4 |
| 20260506133201 | 60 | 131 | 1.0 | 3.0 | 0.00 | 0.01 | 0.00 | 68 | 1003.4 |
| 20260506133121 | 60 | 132 | 1.0 | 3.0 | 0.00 | 0.01 | 0.00 | 69 | 1003.4 |
| 20260506133117 | 60 | 179 | 1.0 | 3.0 | 0.00 | 0.01 | 0.00 | 71 | 1003.4 |
| 20260506133113 | 60 | 179 | 1.0 | 3.0 | 0.00 | 0.01 | 0.00 | 69 | 1003.4 |
| 20260506132851 | 60 | 179 | 2.0 | 6.0 | 0.00 | 0.01 | 0.00 | 69 | 1003.3 |
| 20260506132843 | 60 | 179 | 1.0 | 3.0 | 0.00 | 0.01 | 0.00 | 69 | 1003.4 |
| 20260506132839 | 60 | 179 | 1.0 | 4.0 | 0.00 | 0.01 | 0.00 | 69 | 1003.4 |
| 20260506132620 | 60 | 179 | 2.0 | 6.0 | 0.00 | 0.01 | 0.00 | 69 | 1003.4 |
| 20260506132616 | 60 | 179 | 2.0 | 6.0 | 0.00 | 0.01 | 0.00 | 70 | 1003.3 |
| 20260506132612 | 60 | 179 | 2.0 | 6.0 | 0.00 | 0.01 | 0.00 | 69 | 1003.3 |
| 20260506132301 | 60 | 180 | 2.0 | 6.0 | 0.00 | 0.01 | 0.00 | 69 | 1003.3 |
| 20260506132201 | 60 | 180 | 2.0 | 6.0 | 0.00 | 0.01 | 0.00 | 68 | 1003.3 |
| 20260506132101 | 60 | 180 | 2.0 | 6.0 | 0.00 | 0.01 | 0.00 | 68 | 1003.3 |
| 20260506132001 | 60 | 179 | 2.0 | 6.0 | 0.00 | 0.01 | 0.00 | 68 | 1003.3 |
| 20260506131900 | 60 | 179 | 2.0 | 6.0 | 0.00 | 0.01 | 0.00 | 68 | 1003.3 |
| 20260506131801 | 60 | 179 | 2.0 | 6.0 | 0.00 | 0.01 | 0.00 | 68 | 1003.3 |
| 20260506131701 | 60 | 179 | 2.0 | 6.0 | 0.00 | 0.01 | 0.00 | 67 | 1003.3 |
| 20260506131601 | 60 | 186 | 2.0 | 5.0 | 0.00 | 0.01 | 0.00 | 67 | 1003.3 |
| 20260506131501 | 60 | 165 | 1.0 | 5.0 | 0.00 | 0.01 | 0.00 | 67 | 1003.3 |
| 20260506131401 | 60 | 165 | 1.0 | 5.0 | 0.00 | 0.01 | 0.00 | 67 | 1003.3 |
| 20260506131304 | 60 | 166 | 1.0 | 5.0 | 0.00 | 0.01 | 0.00 | 67 | 1003.2 |
| 20260506131200 | 60 | 166 | 1.0 | 5.0 | 0.00 | 0.01 | 0.00 | 67 | 1003.2 |
| 20260506131101 | 60 | 166 | 1.0 | 5.0 | 0.00 | 0.01 | 0.00 | 67 | 1003.1 |
| 20260506131001 | 60 | 150 | 1.0 | 5.0 | 0.00 | 0.01 | 0.00 | 66 | 1003.1 |
| 20260506130901 | 60 | 150 | 1.0 | 4.0 | 0.00 | 0.01 | 0.00 | 67 | 1003.0 |
| 20260506130804 | 60 | 121 | 1.0 | 4.0 | 0.00 | 0.01 | 0.00 | 66 | 1003.0 |
| 20260506130700 | 60 | 104 | 1.0 | 4.0 | 0.00 | 0.01 | 0.00 | 65 | 1002.8 |
| 20260506130621 | 61 | 103 | 1.0 | 4.0 | 0.00 | 0.01 | 0.00 | 65 | 1002.8 |
| 20260506130617 | 61 | 103 | 1.0 | 4.0 | 0.00 | 0.01 | 0.00 | 65 | 1002.7 |
| 20260506130613 | 61 | 103 | 1.0 | 4.0 | 0.00 | 0.01 | 0.00 | 66 | 1002.7 |
| 20260506130301 | 61 | 103 | 1.0 | 4.0 | 0.00 | 0.01 | 0.00 | 66 | 1002.7 |
| 20260506130201 | 61 | 100 | 1.0 | 4.0 | 0.00 | 0.01 | 0.00 | 67 | 1002.7 |
| 20260506130120 | 61 | 130 | 1.0 | 4.0 | 0.00 | 0.01 | 0.00 | 67 | 1002.7 |
| 20260506130116 | 61 | 132 | 1.0 | 4.0 | 0.00 | 0.01 | 0.00 | 66 | 1002.6 |
| 20260506130112 | 61 | 132 | 1.0 | 4.0 | 0.00 | 0.01 | 0.00 | 67 | 1002.6 |
| 20260506125801 | 61 | 75 | 1.0 | 4.0 | 0.00 | 0.01 | 0.00 | 66 | 1002.6 |
| 20260506125701 | 61 | 88 | 1.0 | 4.0 | 0.00 | 0.01 | 0.00 | 65 | 1002.6 |
| 20260506125601 | 61 | 98 | 1.0 | 4.0 | 0.00 | 0.01 | 0.00 | 65 | 1002.6 |
| 20260506125501 | 61 | 93 | 1.0 | 4.0 | 0.00 | 0.01 | 0.00 | 65 | 1002.7 |
| 20260506125401 | 61 | 93 | 1.0 | 4.0 | 0.00 | 0.01 | 0.00 | 64 | 1002.6 |
| 20260506125301 | 61 | 93 | 1.0 | 4.0 | 0.00 | 0.01 | 0.00 | 65 | 1002.6 |
| 20260506125201 | 61 | 93 | 1.0 | 4.0 | 0.00 | 0.01 | 0.00 | 64 | 1002.6 |
| 20260506125101 | 62 | 91 | 1.0 | 4.0 | 0.00 | 0.01 | 0.00 | 63 | 1002.6 |
| 20260506125000 | 62 | 91 | 1.0 | 4.0 | 0.00 | 0.01 | 0.00 | 62 | 1002.6 |
| 20260506124900 | 62 | 92 | 1.0 | 4.0 | 0.00 | 0.01 | 0.00 | 62 | 1002.6 |
| 20260506124853 | 62 | 109 | 1.0 | 3.0 | 0.00 | 0.01 | 0.00 | 61 | 1002.7 |
| 20260506124848 | 62 | 90 | 1.0 | 4.0 | 0.00 | 0.01 | 0.00 | 62 | 1002.6 |
| 20260506124839 | 62 | 94 | 1.0 | 4.0 | 0.00 | 0.01 | 0.00 | 60 | 1002.6 |
| 20260506124619 | 62 | 94 | 1.0 | 4.0 | 0.00 | 0.01 | 0.00 | 60 | 1002.6 |
| 20260506124615 | 62 | 106 | 1.0 | 3.0 | 0.00 | 0.01 | 0.00 | 60 | 1002.6 |
| 20260506124611 | 62 | 109 | 1.0 | 3.0 | 0.00 | 0.01 | 0.00 | 61 | 1002.7 |
| 20260506124300 | 62 | 109 | 0.0 | 3.0 | 0.00 | 0.01 | 0.00 | 62 | 1002.7 |
| 20260506124200 | 62 | 109 | 0.0 | 3.0 | 0.00 | 0.01 | 0.00 | 61 | 1002.7 |
| 20260506124122 | 62 | 119 | 0.0 | 2.0 | 0.00 | 0.01 | 0.00 | 60 | 1002.7 |
| 20260506124118 | 62 | 106 | 0.0 | 2.0 | 0.00 | 0.01 | 0.00 | 61 | 1002.8 |
| 20260506124114 | 62 | 107 | 0.0 | 2.0 | 0.00 | 0.01 | 0.00 | 62 | 1002.8 |
| 20260506123801 | 62 | 110 | 0.0 | 2.0 | 0.00 | 0.01 | 0.00 | 62 | 1002.8 |
| 20260506123700 | 62 | 111 | 0.0 | 2.0 | 0.00 | 0.01 | 0.00 | 62 | 1002.8 |
| 20260506123600 | 62 | 111 | 0.0 | 3.0 | 0.00 | 0.01 | 0.00 | 60 | 1002.8 |
| 20260506123500 | 62 | 111 | 1.0 | 3.0 | 0.00 | 0.01 | 0.00 | 60 | 1002.8 |
| 20260506123401 | 62 | 111 | 1.0 | 4.0 | 0.00 | 0.01 | 0.00 | 61 | 1002.8 |
| 20260506123301 | 62 | 111 | 1.0 | 4.0 | 0.00 | 0.01 | 0.00 | 61 | 1002.8 |
| 20260506123202 | 62 | 112 | 1.0 | 4.0 | 0.00 | 0.01 | 0.00 | 61 | 1003.0 |
| 20260506123101 | 63 | 111 | 1.0 | 4.0 | 0.00 | 0.01 | 0.00 | 61 | 1002.8 |
| 20260506123001 | 62 | 112 | 1.0 | 4.0 | 0.00 | 0.01 | 0.00 | 61 | 1002.8 |
| 20260506122901 | 63 | 112 | 1.0 | 4.0 | 0.00 | 0.01 | 0.00 | 60 | 1002.8 |
| 20260506122801 | 63 | 112 | 1.0 | 4.0 | 0.00 | 0.01 | 0.00 | 60 | 1002.8 |
| 20260506122701 | 63 | 112 | 1.0 | 4.0 | 0.00 | 0.01 | 0.00 | 60 | 1002.8 |
| 20260506122601 | 63 | 111 | 1.0 | 4.0 | 0.00 | 0.01 | 0.00 | 60 | 1002.8 |
| 20260506122501 | 63 | 88 | 1.0 | 4.0 | 0.00 | 0.01 | 0.00 | 59 | 1002.8 |
| 20260506122402 | 63 | 69 | 1.0 | 4.0 | 0.00 | 0.01 | 0.00 | 59 | 1003.0 |
| 20260506122301 | 63 | 68 | 1.0 | 4.0 | 0.00 | 0.01 | 0.00 | 58 | 1003.0 |
| 20260506122201 | 63 | 68 | 1.0 | 4.0 | 0.00 | 0.01 | 0.00 | 59 | 1003.0 |
| 20260506122101 | 63 | 68 | 1.0 | 4.0 | 0.00 | 0.01 | 0.00 | 59 | 1002.8 |
| 20260506122001 | 63 | 67 | 1.0 | 4.0 | 0.00 | 0.01 | 0.00 | 58 | 1003.0 |
| 20260506121901 | 63 | 65 | 1.0 | 4.0 | 0.00 | 0.01 | 0.00 | 58 | 1003.0 |
| 20260506121801 | 63 | 65 | 1.0 | 4.0 | 0.00 | 0.01 | 0.00 | 58 | 1003.0 |
| 20260506121700 | 63 | 65 | 1.0 | 4.0 | 0.00 | 0.01 | 0.00 | 58 | 1003.0 |
| 20260506121600 | 63 | 65 | 1.0 | 5.0 | 0.00 | 0.01 | 0.00 | 58 | 1003.1 |
| 20260506121500 | 63 | 88 | 1.0 | 6.0 | 0.00 | 0.01 | 0.00 | 58 | 1003.1 |
| 20260506121400 | 63 | 90 | 1.0 | 6.0 | 0.00 | 0.01 | 0.00 | 59 | 1003.1 |
| 20260506121301 | 63 | 90 | 1.0 | 6.0 | 0.00 | 0.01 | 0.00 | 59 | 1003.1 |
| 20260506121159 | 63 | 91 | 1.0 | 6.0 | 0.00 | 0.01 | 0.00 | 59 | 1003.1 |
| 20260506121059 | 63 | 91 | 1.0 | 6.0 | 0.00 | 0.01 | 0.00 | 58 | 1003.1 |
| 20260506121000 | 63 | 91 | 1.0 | 6.0 | 0.00 | 0.01 | 0.00 | 60 | 1003.1 |
| 20260506120902 | 63 | 91 | 1.0 | 6.0 | 0.00 | 0.01 | 0.00 | 59 | 1003.1 |
| 20260506120858 | 63 | 91 | 1.0 | 6.0 | 0.00 | 0.01 | 0.00 | 59 | 1003.1 |
| 20260506120756 | 63 | 64 | 1.0 | 6.0 | 0.00 | 0.01 | 0.00 | 58 | 1003.1 |
| 20260506120650 | 63 | 83 | 1.0 | 6.0 | 0.00 | 0.01 | 0.00 | 59 | 1003.1 |
| 20260506120550 | 63 | 80 | 1.0 | 6.0 | 0.00 | 0.01 | 0.00 | 60 | 1003.1 |
| 20260506120449 | 63 | 87 | 1.0 | 4.0 | 0.00 | 0.01 | 0.00 | 58 | 1003.0 |
| 20260506120402 | 63 | 87 | 1.0 | 4.0 | 0.00 | 0.01 | 0.00 | 58 | 1003.0 |
| 20260506120349 | 63 | 87 | 1.0 | 4.0 | 0.00 | 0.01 | 0.00 | 58 | 1003.0 |
| 20260506120249 | 63 | 87 | 1.0 | 4.0 | 0.00 | 0.01 | 0.00 | 58 | 1003.0 |
| 20260506120144 | 63 | 87 | 1.0 | 4.0 | 0.00 | 0.01 | 0.00 | 58 | 1002.8 |
| 20260506120044 | 63 | 87 | 2.0 | 5.0 | 0.00 | 0.01 | 0.00 | 59 | 1002.8 |
| 20260506115944 | 63 | 86 | 2.0 | 5.0 | 0.00 | 0.01 | 0.00 | 58 | 1002.8 |
| 20260506115903 | 63 | 86 | 2.0 | 5.0 | 0.00 | 0.01 | 0.00 | 57 | 1002.8 |
| 20260506115844 | 63 | 86 | 2.0 | 5.0 | 0.00 | 0.01 | 0.00 | 57 | 1003.0 |
| 20260506115744 | 63 | 86 | 2.0 | 5.0 | 0.00 | 0.01 | 0.00 | 58 | 1003.0 |
| 20260506115641 | 63 | 84 | 2.0 | 5.0 | 0.00 | 0.01 | 0.00 | 58 | 1003.1 |
| 20260506115625 | 63 | 88 | 2.0 | 5.0 | 0.00 | 0.01 | 0.00 | 57 | 1003.1 |
| 20260506115617 | 63 | 53 | 2.0 | 5.0 | 0.00 | 0.01 | 0.00 | 57 | 1003.1 |
| 20260506115613 | 63 | 28 | 2.0 | 5.0 | 0.00 | 0.01 | 0.00 | 57 | 1003.1 |
| 20260506115340 | 63 | 88 | 2.0 | 5.0 | 0.00 | 0.01 | 0.00 | 57 | 1003.1 |
| 20260506115240 | 63 | 89 | 2.0 | 5.0 | 0.00 | 0.01 | 0.00 | 57 | 1003.1 |
| 20260506115140 | 63 | 44 | 2.0 | 5.0 | 0.00 | 0.01 | 0.00 | 58 | 1003.1 |
| 20260506115040 | 63 | 115 | 2.0 | 5.0 | 0.00 | 0.01 | 0.00 | 58 | 1003.0 |
| 20260506114937 | 63 | 114 | 2.0 | 5.0 | 0.00 | 0.01 | 0.00 | 58 | 1003.0 |
| 20260506114903 | 63 | 93 | 2.0 | 6.0 | 0.00 | 0.01 | 0.00 | 58 | 1003.0 |
| 20260506114838 | 63 | 69 | 2.0 | 6.0 | 0.00 | 0.01 | 0.00 | 58 | 1003.0 |
| 20260506114738 | 63 | 85 | 2.0 | 6.0 | 0.00 | 0.01 | 0.00 | 57 | 1002.8 |
| 20260506114638 | 63 | 75 | 2.0 | 6.0 | 0.00 | 0.01 | 0.00 | 59 | 1003.0 |
| 20260506114538 | 63 | 22 | 2.0 | 6.0 | 0.00 | 0.01 | 0.00 | 58 | 1003.0 |
| 20260506114435 | 63 | 62 | 2.0 | 6.0 | 0.00 | 0.01 | 0.00 | 59 | 1003.0 |
| 20260506114401 | 63 | 34 | 2.0 | 6.0 | 0.00 | 0.01 | 0.00 | 57 | 1003.0 |
| 20260506114335 | 63 | 28 | 2.0 | 6.0 | 0.00 | 0.01 | 0.00 | 57 | 1003.0 |
| 20260506114236 | 63 | 28 | 2.0 | 6.0 | 0.00 | 0.01 | 0.00 | 57 | 1003.1 |
| 20260506114136 | 63 | 80 | 2.0 | 6.0 | 0.00 | 0.01 | 0.00 | 57 | 1003.1 |
| 20260506114036 | 63 | 80 | 2.0 | 6.0 | 0.00 | 0.01 | 0.00 | 57 | 1003.1 |
| 20260506113936 | 63 | 80 | 2.0 | 6.0 | 0.00 | 0.01 | 0.00 | 57 | 1003.1 |
| 20260506113901 | 63 | 9 | 2.0 | 6.0 | 0.00 | 0.01 | 0.00 | 57 | 1003.2 |
| 20260506113833 | 63 | 27 | 2.0 | 6.0 | 0.00 | 0.01 | 0.00 | 57 | 1003.2 |
| 20260506113733 | 63 | 98 | 2.0 | 6.0 | 0.00 | 0.01 | 0.00 | 57 | 1003.2 |
| 20260506113631 | 63 | 98 | 2.0 | 6.0 | 0.00 | 0.01 | 0.00 | 59 | 1003.2 |
| 20260506113529 | 63 | 97 | 2.0 | 6.0 | 0.00 | 0.01 | 0.00 | 57 | 1003.2 |
| 20260506113429 | 63 | 96 | 2.0 | 6.0 | 0.00 | 0.01 | 0.00 | 57 | 1003.2 |
| 20260506113329 | 63 | 26 | 2.0 | 6.0 | 0.00 | 0.01 | 0.00 | 57 | 1003.2 |
| 20260506113229 | 63 | 26 | 2.0 | 6.0 | 0.00 | 0.01 | 0.00 | 58 | 1003.2 |
| 20260506113129 | 63 | 39 | 2.0 | 6.0 | 0.00 | 0.01 | 0.00 | 58 | 1003.2 |